GFSSW_700_rhum_000.txt.gz
RH
62 67 68 76 83 81 66 49 51 64 55 45 38 36 33 33 29 36 98 73 91 82 81 68 64 73 74 62 64 56 45 38 38 32 32 37 38 40 39 38 36 37 38 40 43
37 53 79 94 92 68 46 45 45 58 62 56 45 39 35 36 34 29 63 73 100 100 91 78 72 77 77 69 68 58 52 32 30 30 38 43 45 40 39 37 38 37 38 41 44
52 70 68 76 84 70 69 67 60 61 52 58 60 47 39 41 38 30 43 84 100 100 97 89 82 88 80 73 71 63 59 31 30 38 42 43 45 41 38 37 40 39 38 39 42
60 67 84 89 77 63 80 78 71 60 54 51 57 50 48 74 46 28 40 96 90 100 97 97 79 88 90 76 68 66 55 48 35 47 47 36 35 44 41 37 41 40 38 37 40
70 80 72 74 72 75 77 88 79 73 69 57 52 50 65 71 52 72 26 87 98 100 93 94 84 84 87 75 60 60 53 47 45 43 48 32 20 29 39 41 40 39 40 40 40
88 84 78 76 80 84 78 77 72 60 76 76 51 68 66 68 50 98 53 58 92 96 99 97 88 90 85 72 62 52 55 46 49 46 48 44 33 37 28 39 39 39 39 40 40
87 84 80 76 76 78 83 77 66 75 67 68 71 89 79 60 51 95 75 59 79 81 98 92 84 96 89 74 56 49 50 51 49 49 41 42 32 18 14 26 30 39 40 40 41
73 90 77 51 48 62 66 59 74 83 73 52 76 94 90 84 70 92 80 79 69 84 91 100 90 95 76 56 55 48 51 51 44 42 41 39 21 32 35 37 33 29 36 40 37
87 92 88 64 51 57 60 80 92 96 84 73 75 78 80 96 95 89 80 86 90 92 100 99 100 87 75 53 55 50 40 41 35 40 41 41 29 32 36 34 31 32 34 37 37
100 92 100 97 97 88 95 95 95 98 86 91 87 86 94 86 85 98 83 99 96 98 99 100 92 81 56 49 52 40 38 35 31 42 43 36 37 24 29 29 27 26 29 30 29
100 93 90 83 92 94 93 98 98 98 97 94 69 57 98 99 99 99 92 99 99 91 98 94 83 60 46 45 38 45 36 29 29 34 37 31 29 30 32 24 24 31 28 18 14
98 98 96 100 99 98 98 99 98 99 98 99 93 97 100 97 99 97 92 98 99 98 95 86 62 47 45 48 50 44 38 34 34 33 29 27 35 36 28 24 25 25 20 21 22
100 100 100 100 99 97 98 99 99 99 99 99 98 99 99 99 100 98 98 93 96 96 88 63 48 43 57 52 49 44 42 40 42 43 39 38 36 31 33 31 27 24 22 21 22
98 99 96 97 92 96 98 99 99 96 98 99 100 100 99 100 100 100 100 95 99 86 60 46 50 54 49 47 42 41 37 43 42 44 38 34 35 30 35 41 40 24 23 25 26
99 100 99 95 93 90 98 100 100 100 99 99 99 99 100 100 96 100 100 98 68 57 50 46 45 48 43 50 46 54 47 43 40 39 39 34 34 30 34 42 43 28 29 31 28
100 96 99 99 87 93 100 100 100 99 99 99 100 99 100 100 100 98 81 58 49 49 48 43 41 43 52 50 44 49 46 43 42 40 43 32 31 30 31 36 35 31 29 27 28
100 97 98 99 99 100 100 100 98 97 99 100 100 99 99 100 100 75 61 50 50 50 49 50 45 47 50 49 45 49 44 43 51 50 45 31 27 25 28 32 31 26 28 29 29
91 98 96 98 98 87 98 98 98 100 100 100 99 99 98 85 78 63 53 55 55 52 47 52 45 43 46 45 46 48 42 50 57 52 38 31 32 30 27 27 30 28 29 30 32
72 85 98 87 87 80 92 80 100 98 98 99 100 100 100 81 74 63 58 55 55 59 52 53 55 51 49 46 46 46 49 48 45 41 43 35 34 32 33 32 29 30 32 33 30
59 63 71 77 78 73 81 88 96 98 100 100 99 98 99 84 80 81 76 65 57 54 56 58 58 57 58 54 51 46 46 42 42 45 44 33 30 29 31 31 32 33 35 35 34
52 63 67 67 64 67 80 93 96 99 98 98 87 98 97 88 76 73 74 65 54 54 57 58 58 62 59 55 53 52 46 39 35 35 43 42 32 32 34 33 33 36 39 36 33
52 62 94 99 90 87 89 92 91 95 83 86 81 81 84 87 80 74 74 74 65 62 63 60 66 66 65 61 57 49 46 42 40 39 39 39 35 30 29 32 33 33 36 35 33
46 68 77 84 82 86 88 90 83 83 74 68 76 77 89 82 78 84 68 68 70 69 64 59 66 70 62 57 54 51 44 41 40 45 48 43 35 32 32 34 38 39 42 43 43
39 59 72 72 90 90 95 87 79 68 62 56 64 69 66 64 64 64 69 74 70 67 58 55 61 61 55 54 59 53 45 43 49 55 49 44 37 28 34 41 38 42 42 45 45
26 54 59 68 67 64 63 66 61 65 66 64 68 71 64 69 61 60 58 55 56 51 48 46 58 54 52 49 44 35 28 26 28 21 50 20 41 26 29 32 45 50 51 52 54
20 38 56 54 47 52 50 47 51 54 52 59 60 58 56 56 62 54 48 47 44 43 42 40 51 43 28 27 38 37 24 35 36 32 46 49 43 34 46 52 53 53 52 50 49
21 27 30 24 30 27 27 29 36 38 40 46 51 50 46 42 44 45 46 45 41 36 38 41 41 48 46 44 51 48 38 40 39 39 40 43 41 47 51 52 54 48 51 53 55

GFSSW_700_rhum_003.txt.gz
RH
28 22 30 42 35 41 47 74 71 56 47 48 53 53 48 42 37 27 21 55 84 82 73 70 68 65 62 66 65 68 62 41 16 27 34 43 40 42 42 41 40 36 36 37 40
32 39 34 29 38 56 66 77 77 68 56 49 50 51 49 45 39 34 26 27 67 98 85 77 73 68 68 71 72 68 63 49 17 34 34 41 45 44 42 40 39 38 37 37 38
41 37 44 53 68 74 90 78 54 45 39 38 49 57 47 44 41 36 32 36 100 100 98 91 86 86 72 72 72 68 57 45 17 29 42 47 38 44 42 40 39 41 39 40 39
54 65 72 63 73 82 70 75 63 57 44 36 51 53 52 51 37 26 32 29 51 100 97 97 86 81 76 68 71 74 64 46 21 33 42 44 34 39 39 36 39 42 42 41 39
72 65 68 70 63 70 71 75 68 60 49 42 46 54 68 58 35 39 23 30 82 98 96 98 93 86 77 67 75 70 58 53 39 23 38 42 33 29 31 32 41 41 42 41 40
60 71 76 81 76 75 56 59 57 67 65 58 47 51 65 51 46 65 30 31 85 98 99 93 92 86 79 78 78 71 63 57 47 42 43 44 30 29 17 20 36 39 41 40 41
80 66 76 80 76 78 74 76 68 69 64 60 56 62 60 48 54 98 67 30 60 88 100 98 86 92 86 85 78 65 57 48 32 32 41 45 41 18 23 24 36 36 34 38 39
76 78 82 89 73 58 75 78 75 66 64 70 78 65 70 52 60 99 99 59 38 100 75 72 87 98 89 83 64 60 54 37 13 27 32 42 32 16 33 28 25 34 33 31 37
89 78 89 69 55 52 72 69 70 82 85 82 86 78 70 63 60 97 100 83 35 97 96 100 99 99 90 80 64 52 40 31 34 39 41 43 37 31 37 36 35 33 30 33 36
99 91 99 100 99 82 73 91 98 98 94 75 67 74 79 74 62 100 83 92 33 85 98 99 100 91 95 89 65 40 47 42 34 35 40 41 39 23 31 31 31 30 29 26 26
98 98 96 98 95 98 94 98 99 97 94 60 40 46 66 75 84 85 88 98 61 62 99 97 99 95 85 80 60 44 45 38 34 32 38 40 35 30 33 34 29 23 19 21 18
99 98 99 98 96 96 98 98 97 81 73 53 48 56 75 95 92 84 99 99 99 94 99 97 97 95 82 67 33 44 47 35 34 36 35 32 29 36 37 34 29 31 28 22 20
100 100 98 97 100 100 98 95 82 82 90 84 73 52 97 99 94 99 100 97 97 99 91 87 90 89 53 48 52 53 45 43 43 43 38 32 36 36 33 27 24 24 23 22 22
100 91 91 86 97 96 95 100 99 99 99 99 95 97 96 99 96 99 99 98 99 89 93 90 83 48 47 56 54 51 43 42 42 41 41 42 40 34 32 32 30 26 23 23 25
100 98 97 100 95 96 98 99 99 100 98 97 99 98 98 100 96 100 100 99 97 90 96 85 70 47 59 55 47 44 44 41 41 41 42 37 36 33 35 35 30 28 24 26 29
100 100 96 99 99 99 100 99 99 100 99 99 99 99 91 99 100 94 93 99 100 99 68 48 50 56 51 47 44 51 51 46 46 44 49 31 35 34 33 30 29 28 26 28 28
100 100 99 99 100 100 100 100 100 98 99 99 99 100 93 100 100 100 97 99 87 74 52 45 55 50 44 50 45 48 48 49 54 56 58 34 34 29 30 30 28 30 29 28 30
100 100 100 99 100 100 100 100 98 99 99 99 99 99 98 99 99 97 78 75 64 49 51 50 52 49 51 50 40 44 48 52 64 63 49 33 31 25 26 28 30 35 36 32 30
72 85 89 93 88 98 100 99 100 99 98 98 99 100 100 99 96 80 62 48 52 48 50 48 48 49 50 48 47 48 47 46 48 47 46 39 38 34 30 31 34 32 35 31 32
53 59 67 75 75 80 92 99 100 100 100 100 99 99 100 87 76 67 64 55 55 52 56 49 52 50 49 48 48 47 46 46 47 48 48 39 33 33 33 32 36 36 32 32 32
44 61 96 71 81 76 77 98 100 100 100 99 91 95 82 81 74 74 74 60 59 53 61 56 51 58 60 53 52 48 45 42 39 37 52 53 38 34 33 33 33 34 33 34 38
48 67 100 98 89 81 80 98 99 99 98 100 77 74 76 77 76 71 68 60 59 59 61 61 61 62 61 59 57 54 51 46 40 43 40 40 36 34 33 34 35 37 38 42 42
54 79 86 94 85 77 82 89 88 87 95 97 99 79 84 84 76 71 68 59 59 57 58 63 66 71 66 64 63 54 49 47 44 45 44 47 38 32 36 40 43 42 41 42 44
45 81 85 76 89 69 80 88 78 72 74 80 86 91 84 73 72 73 69 73 67 62 59 55 63 54 56 50 51 54 48 45 43 44 40 35 33 34 35 39 36 43 45 43 51
37 67 74 86 89 89 82 79 65 71 77 77 84 81 77 72 63 64 69 71 70 59 51 43 58 50 46 45 43 39 34 33 31 30 39 23 25 18 20 24 34 44 49 55 58
37 49 58 53 52 55 56 57 59 60 62 72 69 63 60 62 62 59 61 58 49 41 42 36 43 42 34 25 20 17 17 18 18 19 21 21 29 37 41 44 50 53 54 55 56
31 33 43 33 39 42 45 48 53 53 63 65 61 58 57 54 56 52 50 42 37 39 37 34 30 28 32 39 39 40 36 41 42 44 45 44 44 45 48 50 53 55 58 60 59

GFSSW_700_rhum_009.txt.gz
RH
34 25 23 30 32 36 74 78 92 92 86 73 73 79 76 68 54 38 27 19 40 62 80 76 71 66 62 62 59 61 66 58 53 30 18 31 44 46 41 45 44 43 38 36 37
44 31 29 35 36 30 30 32 40 44 54 62 55 71 75 69 64 51 38 26 22 60 71 80 75 72 67 63 69 66 62 59 57 42 25 25 35 44 45 44 43 43 42 41 40
48 49 34 40 35 32 30 32 31 29 45 49 52 81 95 85 69 52 46 34 20 32 57 81 88 80 73 69 73 70 58 58 61 54 39 18 30 33 41 44 44 42 42 39 38
58 58 35 47 48 52 53 47 57 59 68 70 69 67 84 91 81 65 54 45 26 22 39 72 93 87 78 71 75 77 61 57 59 61 43 19 23 29 34 37 41 39 38 39 37
63 67 43 44 56 57 54 51 70 73 75 72 68 77 88 87 67 70 56 50 37 26 31 63 93 89 83 75 77 80 66 59 66 62 47 27 16 25 25 31 35 39 38 37 36
68 80 73 64 55 61 62 63 64 71 86 91 84 82 92 76 58 68 61 52 45 28 44 62 88 85 87 87 79 76 73 69 66 59 54 35 19 20 13 16 16 31 36 35 38
65 81 77 66 67 60 69 71 64 60 75 96 76 80 83 51 56 71 60 52 48 33 40 53 84 97 91 88 83 80 83 77 58 56 57 46 24 11 16 15 15 21 30 29 34
80 73 78 80 70 92 86 72 74 72 65 90 89 83 82 61 53 69 64 50 49 39 60 80 98 90 90 91 85 88 88 81 53 49 29 21 13 21 26 25 23 20 22 28 32
94 85 97 95 75 83 77 77 73 76 67 91 89 86 73 65 52 84 87 48 48 38 72 83 100 97 91 89 91 88 78 69 59 34 32 20 11 23 32 36 34 25 25 32 33
94 98 89 100 98 83 47 60 74 83 87 88 90 98 92 56 48 97 92 49 45 41 89 98 100 92 99 90 92 89 75 68 59 36 40 40 29 32 33 35 38 38 37 35 33
99 97 93 96 100 99 69 94 90 94 84 69 83 76 67 62 53 86 100 56 46 83 99 99 99 77 68 96 75 84 70 64 45 40 40 34 34 34 34 32 32 36 33 32 31
100 98 98 98 99 99 98 85 94 79 87 83 81 77 77 54 54 63 98 63 46 76 99 99 93 84 95 80 72 88 75 62 44 42 43 37 38 37 37 31 30 32 30 32 30
99 99 98 98 98 99 99 96 98 98 99 86 86 76 94 64 52 62 96 84 45 79 100 98 100 95 97 80 96 89 83 72 52 46 46 45 40 35 34 30 32 33 35 31 31
99 99 99 98 98 98 98 98 98 98 98 94 85 78 95 76 56 83 99 91 55 64 97 99 96 93 99 99 99 88 70 72 49 55 48 45 49 38 29 32 34 34 28 28 28
100 99 99 99 98 99 99 98 96 98 100 60 68 70 88 84 60 80 88 93 56 63 98 100 91 89 99 84 85 74 73 51 53 52 47 45 44 38 35 34 31 32 31 29 26
100 100 99 99 99 98 98 97 98 98 99 70 62 60 75 84 78 98 99 99 95 57 99 87 92 95 72 89 81 74 55 54 51 49 57 43 41 33 33 24 32 33 33 31 27
96 100 100 99 99 99 99 98 98 98 98 98 88 88 85 92 85 97 98 98 94 97 97 99 89 95 96 96 82 56 59 57 60 62 66 38 45 27 26 24 29 30 32 31 29
68 84 93 100 99 99 98 99 98 98 98 99 97 100 95 89 78 88 100 100 99 81 91 91 96 95 98 89 60 57 56 52 64 72 56 44 40 27 29 27 29 32 36 36 34
58 58 76 100 99 99 99 98 99 98 96 98 99 97 95 92 95 100 100 100 100 82 73 72 82 90 61 64 57 58 52 51 52 56 60 43 36 31 31 28 25 31 34 38 40
45 60 81 100 100 99 99 99 99 98 94 99 99 99 100 99 99 100 100 100 96 75 71 72 65 88 56 55 55 51 47 51 51 62 60 48 41 36 34 34 32 30 32 40 44
50 65 86 96 100 100 99 100 99 99 97 92 98 100 97 98 98 99 100 98 95 76 66 60 56 63 60 54 55 51 49 48 48 51 57 60 40 36 33 32 32 33 37 44 40
57 75 98 100 100 100 100 100 89 94 98 97 94 98 100 95 100 99 92 91 80 77 66 56 50 56 54 51 53 52 49 48 44 46 44 45 39 35 33 32 34 40 45 42 42
84 94 99 99 100 100 100 98 99 99 100 100 87 87 88 82 95 95 76 75 74 65 66 53 49 62 63 56 54 52 51 49 48 45 45 49 38 33 31 30 34 44 44 48 50
89 91 92 95 94 100 99 100 100 100 99 99 92 87 94 95 87 83 79 63 61 60 71 58 58 47 55 53 52 54 50 50 51 51 48 45 40 38 36 36 42 46 48 48 44
59 87 89 87 87 100 96 99 99 99 99 100 99 80 88 86 75 71 70 65 64 57 67 68 60 57 51 51 48 46 44 48 54 52 50 45 42 41 44 48 46 47 48 40 52
67 73 83 97 94 97 94 99 94 97 90 96 93 84 71 69 68 67 63 60 60 68 66 63 57 53 54 51 51 56 57 57 55 53 51 50 48 43 29 38 44 47 52 55 55
50 73 86 93 90 81 74 88 98 95 97 98 100 95 84 60 52 62 66 68 63 65 64 61 56 54 48 47 42 34 38 46 50 48 46 47 36 36 47 50 51 50 50 52 60

GFSSW_700_rhum_012.txt.gz
RH
53 54 54 42 31 28 25 27 74 82 75 96 78 86 87 75 69 73 54 39 21 31 81 87 77 71 66 62 60 60 63 57 56 54 40 24 35 46 45 42 42 44 43 41 38
57 54 54 45 44 32 31 31 31 46 91 98 93 89 87 81 72 68 62 52 30 22 44 90 83 76 71 67 64 63 61 55 55 59 59 33 26 40 44 44 44 44 44 42 42
57 54 53 55 45 34 36 31 26 25 30 34 57 64 71 76 72 54 71 62 42 23 27 73 94 89 78 73 67 68 66 53 54 60 63 38 20 27 42 45 46 44 44 43 41
56 54 56 58 42 37 40 42 40 33 32 36 42 36 51 67 90 70 65 66 53 31 25 49 96 93 84 77 71 71 64 58 54 59 62 54 39 18 28 38 44 45 44 42 38
61 58 57 57 50 33 44 46 42 48 63 56 68 80 84 80 65 83 74 64 59 37 36 48 76 95 85 77 75 74 66 61 60 60 58 62 47 36 19 27 33 36 37 38 37
72 73 71 64 63 50 46 54 47 42 63 66 72 80 84 86 70 86 85 70 63 46 32 75 57 72 92 89 80 76 70 63 65 57 61 60 53 59 14 14 22 25 24 27 35
83 83 82 68 75 62 61 55 62 57 54 60 84 86 79 56 86 72 80 70 66 52 33 67 43 81 96 92 87 85 79 78 63 54 53 60 49 26 20 15 14 16 14 15 30
88 98 91 87 82 78 70 79 85 69 61 59 74 91 63 69 84 67 79 76 65 54 39 52 69 94 95 94 89 90 90 86 59 55 58 54 34 16 24 12 18 26 18 21 29
100 99 98 94 88 89 79 99 82 83 76 76 82 86 80 64 68 58 78 74 66 53 40 71 97 98 95 96 94 86 90 85 68 60 49 39 26 21 20 24 30 37 32 26 32
100 100 98 97 88 99 96 62 80 90 82 84 88 98 72 65 66 64 81 79 70 52 46 99 96 89 100 99 90 81 86 85 64 61 46 39 33 26 36 37 38 38 38 36 32
97 100 100 98 96 96 99 91 73 88 82 70 68 72 75 66 71 63 90 82 76 55 97 92 99 99 78 68 70 77 80 77 65 57 46 39 36 28 31 36 33 34 34 37 35
100 100 99 99 98 98 99 99 90 93 88 76 78 67 81 82 73 64 94 100 79 56 99 100 98 91 80 73 87 81 92 83 66 60 48 44 38 32 31 31 29 30 33 32 33
100 100 99 98 98 98 99 100 97 97 97 81 64 64 75 96 74 63 93 100 91 64 99 100 92 95 95 88 92 87 94 81 70 62 56 44 36 27 28 29 28 30 33 35 36
100 100 99 98 98 98 97 99 98 98 98 84 81 68 91 97 74 69 89 96 80 62 97 100 100 98 92 81 77 97 68 79 77 82 54 49 54 38 24 27 30 35 35 35 33
87 100 99 98 98 98 99 98 97 98 96 79 72 81 79 82 67 63 95 96 78 54 94 97 98 100 98 80 78 85 72 85 85 59 54 51 50 37 28 23 27 28 35 33 33
41 98 100 98 98 99 98 98 98 98 95 86 83 82 91 84 72 52 82 90 99 52 88 99 97 96 99 97 90 86 97 71 60 54 61 46 48 35 25 32 32 32 35 36 36
22 54 88 99 98 98 98 98 98 98 97 85 82 87 89 82 97 63 80 93 99 74 96 99 96 99 90 95 100 100 96 64 65 66 70 42 45 31 20 29 30 33 35 36 37
25 36 56 77 99 99 99 98 100 89 93 90 68 68 76 82 98 92 99 98 99 70 83 97 96 100 97 97 94 98 89 56 68 74 60 47 45 23 25 25 26 28 36 37 39
31 41 56 98 99 98 99 99 86 99 98 98 91 68 65 76 86 94 96 99 99 83 68 86 86 86 86 70 90 94 89 57 56 63 66 51 39 31 29 31 28 30 33 37 40
35 41 68 100 100 98 99 98 99 100 100 97 97 94 94 70 99 92 99 97 100 92 59 77 82 78 65 92 92 74 60 60 55 64 68 55 44 38 37 36 35 27 32 38 42
42 65 76 100 99 99 98 97 99 100 90 92 88 89 81 94 99 95 89 99 100 96 67 67 66 90 73 77 91 71 58 55 51 52 61 63 39 36 35 33 33 32 37 42 46
61 77 89 100 99 98 99 99 99 98 93 98 99 100 88 83 99 95 92 98 92 83 68 66 59 72 69 55 59 56 55 52 49 53 51 50 45 37 35 33 34 37 44 48 50
74 93 100 100 100 100 100 98 97 99 99 100 100 96 83 87 85 84 98 100 98 86 72 65 57 70 74 68 56 56 56 52 48 45 43 50 42 37 32 32 31 38 48 47 48
97 93 94 99 100 100 100 99 99 100 100 100 97 98 92 83 86 99 100 97 81 77 71 61 55 56 66 65 62 55 53 53 50 50 49 47 44 41 40 38 36 41 45 45 49
89 68 87 94 95 99 100 100 100 100 100 96 98 93 90 89 87 97 96 92 84 88 80 64 56 50 52 53 52 53 50 50 52 49 50 48 48 47 46 44 42 42 43 48 51
38 43 76 84 99 100 100 100 100 100 99 94 87 98 85 70 73 85 79 81 85 84 82 75 60 58 56 50 55 53 49 46 44 48 50 52 52 46 42 46 38 40 44 46 52
34 52 69 92 98 100 94 99 100 99 100 89 87 98 98 91 72 75 66 68 70 65 75 79 62 58 57 59 59 58 53 53 54 53 52 55 51 53 52 39 45 51 52 52 52

GFSSW_700_rhum_015.txt.gz
RH
50 52 54 54 51 50 43 32 29 27 98 71 85 90 88 87 81 76 58 63 58 40 25 72 89 77 71 64 61 60 60 55 53 55 56 40 28 34 46 40 44 43 44 43 42
56 58 56 50 45 46 46 43 34 29 30 32 84 80 79 79 87 70 67 68 68 52 32 35 100 89 78 70 68 66 62 56 53 55 60 56 34 31 42 43 45 43 43 43 42
59 55 51 49 48 48 45 36 32 32 33 33 33 46 78 95 84 70 71 66 68 65 42 23 82 100 85 78 73 69 64 56 50 57 60 59 46 28 36 42 45 46 44 44 44
67 61 60 58 57 49 42 34 33 32 30 28 25 39 56 54 63 55 56 60 56 70 49 26 41 99 97 83 76 72 69 59 50 58 61 58 55 33 25 36 40 45 46 45 44
64 64 67 68 66 60 51 38 35 39 38 38 43 44 47 51 32 60 74 53 44 71 57 30 45 96 95 84 81 77 73 63 55 60 60 59 54 58 32 25 29 36 42 44 44
61 65 74 75 74 66 60 51 38 43 42 41 67 70 71 58 60 75 64 72 73 72 63 37 76 100 99 96 87 77 77 69 65 62 62 58 52 57 27 30 24 20 28 32 35
75 79 77 85 84 76 70 60 49 44 47 44 54 75 70 56 81 80 78 73 98 80 66 41 58 98 99 99 93 89 87 74 67 60 57 54 47 46 44 32 18 16 16 21 26
76 85 100 100 100 99 87 74 64 66 62 63 62 73 67 51 67 66 74 70 100 84 62 45 93 99 99 96 92 94 94 88 67 63 53 57 40 43 27 13 18 17 20 18 14
86 91 98 100 100 100 99 90 91 91 82 72 76 74 63 57 62 70 80 71 98 85 60 78 100 99 99 92 93 88 86 85 73 56 59 60 43 40 30 32 30 40 38 27 22
80 87 97 100 100 100 98 100 99 90 88 84 80 88 74 64 58 67 77 76 97 96 65 93 100 99 93 89 93 83 84 91 77 62 64 58 46 38 31 36 39 40 39 37 33
73 90 98 100 99 99 98 99 99 90 61 70 68 69 81 68 72 71 71 71 95 98 65 88 100 99 89 87 79 80 80 67 56 68 72 58 46 38 29 31 34 37 36 36 38
65 100 97 99 99 98 98 99 99 96 88 84 91 77 76 73 80 70 75 65 94 98 78 99 99 99 84 77 84 85 80 79 69 68 74 64 47 38 33 26 31 35 33 32 33
44 97 97 99 98 99 96 98 98 98 98 94 88 79 74 74 79 81 70 65 96 99 76 99 96 95 98 79 91 89 80 77 80 76 73 70 50 36 30 25 22 27 34 30 32
16 68 87 92 98 99 99 98 98 98 97 90 85 73 73 93 81 84 70 77 98 93 72 100 100 96 95 92 80 84 86 76 83 90 83 70 57 42 34 24 20 25 36 31 35
23 16 55 87 99 98 98 98 98 98 97 93 88 85 64 77 87 80 69 95 96 89 82 98 100 98 99 86 78 97 85 84 88 90 81 63 54 45 35 26 26 32 39 35 36
26 23 25 46 80 99 98 98 98 98 95 97 93 87 76 82 96 80 72 98 98 97 88 100 100 98 89 83 87 89 90 98 92 83 61 55 52 38 20 34 28 34 34 36 33
24 24 29 44 76 98 98 98 98 98 93 98 93 84 80 73 97 90 78 97 98 98 97 99 99 100 100 100 100 96 95 98 82 64 64 50 51 33 25 28 30 34 32 35 36
20 23 38 56 81 97 98 99 98 93 91 94 85 87 84 86 92 83 78 98 99 84 85 99 100 98 100 100 99 100 81 72 70 71 58 54 50 25 32 30 34 30 37 37 38
18 27 43 62 83 98 98 98 89 93 98 95 80 95 90 92 86 82 82 98 97 78 62 95 96 98 90 88 94 100 99 74 61 66 64 52 44 37 37 34 32 31 32 36 39
17 34 56 84 100 98 98 97 97 98 98 98 78 94 92 89 95 98 77 85 96 84 62 70 83 82 100 97 99 91 87 94 65 65 69 58 50 42 39 36 36 33 32 36 40
20 49 84 100 99 99 98 97 96 99 99 95 80 73 60 75 84 85 78 99 98 92 77 68 68 85 88 98 89 99 90 97 62 56 61 58 39 38 37 35 34 33 34 37 41
30 66 82 100 98 98 97 96 99 100 99 99 82 62 50 57 73 99 76 92 82 85 86 73 62 81 84 88 91 86 73 77 56 59 54 53 45 36 32 35 32 34 35 41 48
53 94 100 100 98 99 98 99 99 99 99 99 99 84 56 52 99 93 69 75 94 88 78 75 63 86 93 73 63 80 84 75 61 54 48 52 43 40 37 33 33 34 35 43 50
75 97 100 99 100 99 99 99 99 99 99 100 97 96 73 66 90 75 93 99 93 84 75 67 60 61 72 69 64 64 73 73 59 55 51 48 43 38 38 40 41 39 40 48 52
66 91 85 81 93 100 99 99 99 99 100 100 100 94 83 81 87 76 99 99 100 85 79 81 70 59 58 57 56 54 54 60 57 56 53 51 47 40 42 47 46 43 43 47 52
42 76 69 59 78 99 100 99 99 100 99 99 98 94 90 67 78 78 71 92 92 95 97 85 73 65 54 54 60 59 62 57 56 54 54 53 49 41 43 50 49 46 46 48 53
22 30 48 62 99 100 100 99 100 100 100 95 82 90 99 86 80 73 69 84 92 95 95 87 68 62 61 60 62 67 55 57 57 54 51 47 27 40 49 48 48 50 41 43 49

GFSSW_700_rhum_018.txt.gz
RH
44 48 51 52 54 52 49 46 46 43 68 100 68 99 88 88 84 76 60 57 65 62 54 31 47 86 78 69 64 57 65 57 55 52 54 55 35 29 41 43 41 42 44 43 42
45 52 54 51 49 45 42 42 41 40 34 65 58 73 91 78 92 83 73 72 66 69 61 53 27 97 89 76 70 64 70 61 64 54 48 57 54 36 36 41 43 43 44 43 42
51 54 59 57 56 54 50 44 43 41 38 34 31 30 34 38 73 66 62 70 79 73 68 65 35 62 98 84 80 73 73 71 54 53 52 52 56 52 36 38 40 43 45 43 43
49 56 57 59 61 61 60 50 40 34 30 29 29 29 29 30 48 58 46 54 60 73 65 72 49 49 93 98 94 82 68 74 56 56 57 52 52 52 47 34 38 38 44 45 44
51 60 62 61 65 67 66 56 47 37 34 34 34 31 27 25 28 31 40 34 35 55 65 68 60 52 66 100 100 82 81 72 59 58 59 56 50 54 50 28 30 32 36 44 45
43 49 67 73 74 74 72 64 58 46 40 40 38 37 35 43 30 30 35 44 53 44 47 58 68 71 91 92 99 90 86 79 67 63 64 58 49 58 43 48 48 32 28 36 42
34 47 68 70 78 86 87 79 69 56 44 44 52 57 51 37 46 50 50 50 52 56 51 55 68 78 81 86 97 94 96 89 70 68 67 59 48 47 44 49 37 34 22 23 29
26 40 72 83 90 98 99 94 83 77 62 53 77 77 53 40 54 52 70 65 60 55 67 79 64 98 91 98 97 97 98 87 74 84 65 66 59 56 50 32 23 19 18 19 18
17 31 78 82 82 97 95 97 94 96 83 77 76 84 65 45 42 51 63 61 57 67 84 86 66 99 100 91 96 100 85 85 71 82 75 75 57 55 40 35 30 33 28 27 20
16 25 75 90 98 100 99 98 99 100 100 100 95 85 61 51 52 52 63 66 68 74 85 92 94 98 94 91 95 86 84 64 72 68 58 66 48 54 49 35 36 38 37 35 32
18 19 77 95 92 100 98 99 100 99 94 84 77 69 66 64 60 61 64 75 81 77 89 93 99 99 98 98 88 76 67 71 73 70 68 67 63 63 49 38 32 33 35 36 34
22 17 51 88 87 100 99 98 99 98 97 97 91 85 80 84 71 74 75 75 78 68 97 100 97 97 100 98 84 77 75 70 69 71 75 68 64 65 47 39 31 32 32 34 34
28 22 20 78 82 96 99 98 98 98 99 97 97 97 95 88 73 90 74 68 68 88 97 93 97 96 96 98 90 89 77 71 69 77 80 76 58 50 40 36 33 27 30 33 34
58 29 26 19 29 87 99 98 98 98 98 89 84 92 93 94 78 69 85 72 91 90 98 100 96 99 100 97 86 87 79 79 85 90 70 69 50 51 42 31 31 28 26 27 33
75 65 36 28 31 56 95 98 98 98 95 91 94 97 84 84 85 63 88 79 86 95 97 92 100 100 100 90 94 75 84 86 90 90 86 69 62 45 37 36 28 25 26 30 36
74 78 41 38 42 62 95 98 98 98 92 94 97 96 86 67 78 96 84 80 93 99 97 82 98 99 98 100 93 97 89 92 95 88 66 58 54 39 34 33 30 31 31 40 36
72 79 32 38 58 85 98 98 98 97 93 98 96 95 82 78 89 98 83 91 97 98 98 93 99 100 99 100 96 93 84 97 92 82 54 52 54 40 33 31 29 34 30 35 36
75 86 28 34 60 94 98 98 98 95 94 97 97 89 98 95 90 97 100 100 97 100 100 96 99 100 99 99 97 90 81 60 60 56 47 56 47 36 32 33 26 29 35 34 36
81 88 24 51 75 95 98 98 97 96 97 97 99 97 100 98 83 99 100 99 93 98 96 98 99 100 100 99 96 100 93 73 57 59 45 44 46 39 40 38 32 35 31 36 38
87 91 27 76 96 99 98 98 98 97 98 98 97 98 94 94 96 99 100 87 82 97 97 91 100 100 100 98 99 86 94 87 65 53 51 42 45 37 38 34 35 35 30 36 39
98 71 38 98 100 98 97 96 98 97 98 96 96 91 84 92 92 98 94 96 71 82 87 98 89 99 100 99 97 99 100 96 70 58 41 38 35 39 35 28 28 35 32 35 38
100 47 73 95 100 99 98 96 97 99 100 99 98 77 80 87 88 92 92 87 67 74 93 83 68 74 97 99 88 76 82 95 72 58 55 46 36 39 36 32 33 34 35 38 41
96 63 95 100 99 99 98 98 98 99 98 98 92 83 53 79 78 97 96 70 68 75 92 80 70 73 79 89 96 91 94 90 72 56 52 46 40 39 36 34 36 36 36 38 40
82 96 98 100 100 99 98 98 99 99 100 99 98 100 63 66 62 75 98 64 78 77 72 76 68 55 56 55 66 80 82 77 76 66 54 50 44 41 40 35 37 39 40 39 42
86 83 92 99 93 99 99 98 99 99 99 99 99 93 77 64 89 98 99 73 78 71 82 83 69 67 62 63 58 55 53 56 74 66 59 51 54 49 48 47 40 44 45 44 45
99 50 83 87 79 93 99 98 99 100 99 99 99 100 86 68 94 86 88 70 68 78 79 84 76 68 63 61 63 63 58 57 57 66 64 57 54 54 53 49 42 46 48 47 48
99 48 67 72 75 94 100 100 100 100 99 100 93 99 99 76 61 72 59 79 83 74 75 94 86 73 62 63 59 65 62 60 57 57 57 57 49 55 54 48 48 48 49 47 48

GFSSW_700_rhum_021.txt.gz
RH
33 38 44 50 50 50 51 51 51 44 34 56 64 70 94 98 99 92 67 47 51 54 56 57 44 24 67 73 72 63 65 56 49 47 43 50 52 47 34 36 41 37 42 48 44
28 43 48 54 56 52 50 46 44 45 44 42 66 52 98 96 86 94 57 71 67 53 55 62 59 29 55 79 90 83 68 56 50 48 48 50 59 61 34 45 50 48 43 46 44
31 41 51 56 56 59 58 56 53 47 42 39 37 37 88 71 53 61 66 64 73 67 45 55 62 48 76 97 94 88 73 61 56 55 59 58 61 59 57 29 45 50 48 52 50
30 39 50 59 58 61 62 60 56 53 44 39 36 36 34 35 63 58 34 30 41 57 63 48 62 59 60 81 95 85 76 70 61 66 68 57 58 64 64 53 58 55 48 42 44
22 35 42 53 70 76 70 65 63 56 48 37 32 32 32 34 29 32 31 26 34 42 59 58 54 66 56 93 96 97 77 72 70 68 73 59 49 44 48 56 46 45 38 38 40
15 26 36 66 76 84 84 74 69 64 56 44 36 36 36 40 31 37 24 26 24 27 27 51 68 63 95 92 93 92 83 77 71 71 72 72 55 60 52 46 59 56 47 34 34
14 17 28 68 79 76 80 75 77 76 65 52 42 44 46 34 38 37 32 28 27 29 49 38 80 98 95 98 88 98 88 80 75 73 72 73 68 63 38 50 55 45 37 31 30
22 15 18 60 81 81 86 88 80 83 72 60 49 76 74 42 41 35 38 45 48 40 39 54 51 85 98 99 99 93 100 91 79 70 70 77 64 59 51 52 47 41 20 28 25
43 17 15 40 85 93 100 99 95 94 84 71 64 76 85 50 51 49 52 54 62 62 61 67 94 86 78 91 99 97 87 91 88 67 66 71 64 56 52 53 47 41 39 27 24
49 33 17 19 79 92 100 100 100 100 96 86 88 92 73 58 46 44 50 54 59 59 63 74 80 88 85 99 96 90 88 84 78 62 69 67 64 60 56 50 50 44 38 38 34
50 52 23 17 50 88 100 98 99 100 99 81 88 76 77 68 57 57 54 53 62 96 94 92 89 98 63 93 92 82 80 75 61 55 58 58 62 54 50 51 51 48 41 41 36
52 59 35 22 22 78 100 93 98 99 100 94 99 85 97 87 75 69 65 65 82 97 100 100 97 93 54 86 99 79 76 64 53 58 65 61 55 52 52 53 55 49 43 44 33
56 64 52 29 25 27 59 81 99 100 100 98 95 95 99 98 93 84 85 74 96 98 97 96 66 63 94 97 100 100 84 57 55 60 68 64 59 56 56 57 52 46 41 42 36
60 69 73 56 39 43 55 93 99 98 98 95 88 93 98 98 92 87 96 88 100 96 95 99 99 98 99 99 97 98 72 65 60 70 59 66 44 39 40 46 41 37 36 35 35
67 75 86 84 65 56 45 98 99 98 95 99 98 86 88 97 94 75 58 88 95 98 88 90 75 96 100 95 100 82 74 71 70 66 73 75 64 43 42 40 43 33 33 34 32
78 86 91 95 72 72 64 100 98 98 92 93 94 93 95 86 86 88 90 85 97 99 98 88 80 99 85 98 96 91 80 81 74 74 74 61 55 37 39 39 38 37 32 33 32
91 95 98 100 69 85 91 97 98 97 93 98 94 95 90 98 96 99 99 98 93 95 97 88 94 99 99 99 100 99 97 95 87 80 51 45 48 36 33 29 29 32 35 32 39
97 100 100 100 77 90 99 100 98 96 94 97 96 96 97 100 97 97 92 98 89 89 98 97 98 98 96 100 98 100 92 54 64 54 41 51 45 38 40 39 29 29 35 40 41
100 100 100 100 83 97 100 99 96 97 95 96 98 98 99 94 94 96 94 96 96 93 98 98 92 99 100 100 99 98 73 66 49 45 37 46 44 40 31 37 33 32 31 34 38
100 100 100 100 73 100 100 98 98 97 98 98 97 89 90 87 92 98 92 89 92 92 96 99 88 97 99 100 97 85 74 71 55 48 44 36 34 36 40 38 35 36 36 34 37
100 99 98 100 100 100 98 98 98 97 98 98 96 98 74 72 79 94 94 90 81 91 98 99 98 99 100 100 97 96 86 79 57 49 37 37 31 39 36 29 28 35 37 37 36
100 100 99 86 100 98 98 97 96 97 98 98 98 95 70 61 69 84 80 77 86 87 97 99 99 99 100 100 99 86 89 77 57 54 45 40 37 38 36 32 31 33 36 34 35
100 100 100 90 100 99 99 98 98 98 98 99 98 93 71 63 69 93 93 76 93 90 91 91 92 99 99 99 98 100 97 89 71 61 47 38 39 38 34 34 35 36 36 36 38
100 99 99 100 98 100 99 98 98 98 99 100 97 94 75 66 67 80 96 93 91 82 99 99 82 61 60 70 82 90 88 86 74 61 52 46 42 37 36 34 35 35 37 37 37
99 98 98 96 93 98 99 99 99 99 100 99 98 92 79 63 66 75 88 91 70 89 90 95 70 60 52 57 65 75 82 86 82 70 57 48 47 42 44 46 45 47 43 40 43
100 100 98 99 100 100 97 98 98 98 99 99 99 82 82 57 64 81 88 88 94 92 95 99 71 67 62 60 59 55 61 68 70 67 59 52 49 50 49 49 48 50 43 42 43
100 99 100 94 91 86 95 98 99 100 99 99 99 93 84 59 62 95 94 91 96 86 82 99 86 69 58 62 65 63 58 60 61 62 58 57 54 55 53 52 53 52 47 45 48

GFSSW_700_rhum_024.txt.gz
RH
12 18 30 40 45 48 48 49 51 53 51 44 41 81 80 80 64 62 72 74 63 51 48 50 55 49 27 32 70 80 85 74 62 55 49 42 46 47 45 26 39 38 40 46 46
12 18 34 43 51 51 53 51 49 48 46 46 44 41 46 71 80 58 60 64 73 70 42 44 60 58 46 33 69 79 89 62 58 53 48 46 50 50 59 46 27 51 48 44 45
14 17 36 48 53 54 53 55 54 55 54 51 46 42 40 60 56 57 56 46 68 65 70 50 57 64 58 49 95 77 78 68 59 54 50 50 50 54 59 60 31 44 53 47 50
20 15 30 41 44 54 63 64 63 61 60 57 51 45 41 37 58 51 40 31 36 56 70 68 58 66 67 86 95 98 82 79 58 61 58 57 54 53 58 58 63 53 60 53 50
33 16 19 33 40 57 64 62 60 65 65 63 54 47 39 36 32 41 39 33 35 36 46 60 66 67 76 89 86 96 93 83 76 63 63 66 63 55 58 48 50 44 39 46 43
37 25 16 24 32 58 71 60 60 69 67 63 60 52 42 40 38 36 35 30 33 29 29 51 63 73 90 91 94 96 85 88 81 70 66 66 68 70 44 56 36 46 58 56 52
36 39 19 17 26 58 73 68 68 69 73 74 68 61 50 45 49 42 52 32 28 27 31 36 55 100 100 88 93 92 96 91 73 75 72 70 67 70 49 54 32 46 54 45 43
32 43 33 17 19 46 78 82 70 79 86 80 80 71 59 49 46 40 42 38 31 29 28 53 97 99 98 100 84 98 91 82 66 79 70 75 71 62 66 56 40 53 46 41 39
27 42 47 25 17 24 74 89 73 79 95 95 88 84 67 53 50 52 51 42 41 43 45 43 53 86 90 99 98 84 91 81 84 79 77 69 68 55 58 51 54 53 48 41 35
31 38 51 44 23 20 43 80 80 76 98 100 97 92 74 58 54 48 50 51 49 58 72 69 72 86 75 100 94 95 95 84 81 69 77 71 66 63 56 55 53 49 46 40 38
36 34 52 58 34 23 23 41 65 68 84 93 99 93 90 77 68 56 53 50 58 70 100 100 92 93 64 85 41 91 88 84 74 76 77 65 58 62 62 54 57 50 50 42 40
38 39 51 67 50 31 24 26 47 57 95 98 88 98 96 98 90 81 67 61 69 99 96 97 94 40 61 75 80 98 95 96 86 67 72 61 60 62 60 56 52 47 50 47 42
31 45 51 72 66 45 35 32 29 78 100 98 95 94 93 100 97 99 96 73 69 94 99 90 52 81 92 93 98 98 99 82 82 69 64 66 59 60 56 51 50 50 52 51 43
41 48 49 74 69 66 59 57 47 99 98 95 88 94 95 99 99 93 98 97 97 96 93 95 68 83 87 89 92 95 66 95 88 76 72 66 62 45 39 38 39 48 54 50 43
79 65 49 84 83 90 86 56 94 98 97 97 98 78 78 87 87 92 82 99 96 89 95 92 85 77 99 82 77 80 67 97 72 100 73 78 67 60 42 42 42 50 48 50 43
99 93 77 98 99 97 84 68 94 98 93 93 88 77 85 84 94 97 90 91 97 98 97 83 89 97 74 57 60 79 98 99 93 93 88 67 65 52 41 42 43 44 44 43 40
100 100 97 100 100 98 82 84 99 99 88 98 88 93 95 97 100 99 91 92 98 98 96 91 89 74 90 95 76 98 100 98 100 99 89 56 62 53 38 41 40 42 42 40 37
100 100 100 100 99 99 88 97 100 81 85 94 95 93 99 95 98 89 100 97 96 88 100 100 74 64 86 95 86 88 100 94 97 91 59 49 56 46 44 40 36 33 34 38 40
100 100 100 100 99 99 95 99 92 93 92 97 97 98 98 97 93 87 88 93 90 90 99 93 98 98 88 90 98 97 99 88 50 40 51 50 46 41 40 42 40 36 30 33 35
99 100 99 100 99 99 98 91 96 95 97 98 97 95 98 95 87 95 98 80 80 90 93 96 98 95 91 100 97 91 80 80 64 59 63 52 45 38 35 31 37 35 29 31 36
99 100 98 99 99 98 98 100 98 98 98 98 98 98 92 90 84 92 97 78 87 94 90 94 97 95 98 99 94 99 100 81 60 49 61 58 43 38 38 36 34 38 35 36 34
99 100 93 99 98 98 98 99 97 98 97 97 98 97 99 76 77 82 90 72 86 89 93 92 98 99 99 93 95 100 84 74 52 58 48 39 45 40 33 30 27 36 38 41 40
99 99 100 99 98 97 97 100 98 98 98 98 98 93 86 81 70 71 78 81 79 85 71 98 99 99 100 100 100 100 83 72 68 60 51 48 47 39 34 33 34 36 38 39 38
99 99 99 98 98 99 99 98 98 98 98 98 100 99 94 79 62 78 75 75 80 83 86 99 98 99 100 95 94 97 90 72 78 66 53 46 44 39 35 34 35 34 33 32 36
99 99 97 97 96 98 100 98 98 98 99 99 98 98 92 77 62 68 78 97 86 85 98 100 100 98 79 74 77 88 82 77 74 67 61 52 43 39 35 33 39 42 46 44 35
99 100 99 98 97 99 100 98 98 98 99 98 98 81 77 74 62 62 88 89 86 75 93 85 95 82 60 74 71 70 76 64 65 67 62 57 49 46 46 46 47 46 50 45 41
98 98 99 98 98 90 79 98 97 98 98 97 99 100 84 82 56 88 74 77 98 74 73 94 84 72 66 56 59 62 61 65 64 66 56 69 53 50 51 51 50 50 51 49 46

GFSSW_700_rhum_030.txt.gz
RH
28 31 20 14 15 21 29 42 47 49 48 45 46 44 45 47 42 35 40 65 58 50 51 47 38 35 38 40 39 48 70 56 49 45 29 32 49 48 50 47 45 41 45 46 47
28 31 28 16 17 23 34 44 52 52 50 48 46 47 48 45 43 36 50 67 53 45 44 51 56 48 40 42 44 46 61 52 34 38 30 34 49 54 54 50 48 45 39 46 49
25 30 33 23 16 25 36 43 50 54 53 53 51 52 50 48 45 40 42 42 44 37 42 45 56 63 50 48 48 44 42 43 35 36 36 35 45 56 58 54 51 48 44 53 52
23 27 34 34 20 19 30 40 50 57 61 60 59 60 57 54 45 45 42 39 37 41 42 44 57 60 58 46 47 47 40 42 37 40 41 43 46 61 58 62 57 53 46 56 48
22 23 28 39 30 18 21 33 46 60 60 57 56 59 58 54 52 48 43 41 42 37 31 29 50 60 65 57 44 59 47 42 40 41 59 48 53 60 59 60 65 60 54 48 50
23 26 25 31 40 28 19 24 35 58 59 52 52 52 47 51 54 52 46 42 41 39 39 34 27 49 64 67 64 54 68 61 54 46 49 58 48 57 56 59 63 65 57 50 42
28 24 29 29 36 40 26 20 25 50 65 61 54 47 39 63 58 60 56 48 46 43 39 35 34 43 70 71 75 70 66 68 62 62 82 84 56 44 56 59 65 58 51 43 40
26 24 29 33 34 41 39 24 20 27 46 60 60 45 31 42 61 56 58 55 51 48 43 42 37 33 45 64 78 78 80 82 62 72 69 88 68 54 51 63 65 60 43 40 39
19 25 28 34 37 41 47 38 24 20 29 40 38 28 26 33 56 54 54 54 50 47 44 62 56 42 51 90 95 92 92 85 84 66 86 72 66 68 57 61 64 60 48 46 50
15 25 51 37 42 42 49 50 38 27 27 32 30 37 43 52 65 66 55 55 56 53 50 44 86 98 66 78 90 93 85 78 76 70 66 76 75 73 64 64 60 59 50 58 57
28 18 67 63 45 47 52 54 43 41 37 35 36 33 31 34 55 82 69 62 58 70 57 53 68 73 60 42 61 76 89 87 81 88 82 89 76 80 79 68 62 51 47 52 58
85 53 45 83 81 50 49 56 57 48 43 40 39 36 39 71 79 76 84 83 71 60 68 84 99 87 43 46 52 70 87 78 86 76 91 94 85 79 61 65 63 52 53 61 57
96 79 83 100 99 54 54 69 60 55 54 53 49 45 47 81 100 100 99 92 95 91 72 71 65 55 51 54 66 57 78 88 92 60 71 90 86 71 46 56 61 55 53 59 56
98 86 78 100 99 70 59 71 67 66 74 64 50 57 61 70 99 95 100 100 100 90 82 93 78 70 76 77 75 72 58 75 80 92 94 86 82 69 59 55 63 47 53 54 59
98 93 92 99 100 84 77 76 81 83 84 65 66 64 60 67 80 82 95 100 99 99 92 93 82 75 74 68 79 72 70 77 87 89 88 76 91 80 69 64 48 47 47 59 59
98 98 93 99 88 99 94 98 96 95 91 66 64 61 67 66 90 96 99 98 99 99 98 96 99 98 76 72 88 89 94 95 91 85 97 67 82 65 58 54 45 47 46 52 58
98 98 98 92 99 94 96 98 97 97 65 80 65 68 77 77 84 100 98 98 98 99 97 97 98 96 97 93 91 95 98 96 98 97 82 58 74 59 51 40 41 39 44 46 58
98 98 94 84 93 87 96 98 97 69 69 70 68 80 79 88 88 91 99 99 97 97 97 96 85 64 80 78 82 81 89 93 93 99 62 66 87 61 34 32 53 53 39 43 46
96 97 98 99 98 91 96 99 75 71 67 62 87 100 100 99 98 96 98 88 80 99 98 89 89 57 63 64 74 88 98 57 96 71 95 56 45 37 33 44 42 47 40 43 39
82 98 98 83 99 84 99 97 77 79 73 73 69 80 99 90 98 99 89 55 77 70 74 83 95 74 89 97 93 86 80 92 97 98 98 83 65 37 17 34 42 43 39 43 43
98 98 93 97 99 100 98 100 86 86 84 86 80 92 91 96 98 92 75 56 62 63 74 83 98 93 97 93 89 99 97 94 75 74 95 98 76 49 31 37 45 43 42 40 37
100 98 98 98 99 99 98 98 81 89 92 96 95 92 93 97 98 100 77 58 81 92 95 91 98 98 90 84 98 99 90 88 82 67 74 99 69 49 29 38 44 42 42 40 39
98 98 99 98 98 98 100 99 92 98 99 97 97 95 96 99 98 88 80 60 70 72 96 95 98 97 97 98 99 97 88 62 81 64 74 90 67 47 43 48 44 43 41 41 44
98 98 98 98 99 94 98 95 99 99 99 96 97 98 99 97 99 87 86 73 75 71 91 99 98 95 98 97 94 98 91 98 89 94 74 95 82 53 42 42 40 41 42 43 44
98 98 97 96 98 98 94 98 99 100 100 98 97 96 98 96 96 96 66 74 79 93 98 99 98 97 95 98 99 98 98 99 100 86 81 68 96 47 38 36 33 38 46 48 46
98 96 88 82 98 93 100 99 100 100 99 99 97 98 100 98 85 72 69 75 81 93 99 98 98 98 99 99 99 99 99 99 100 92 98 89 58 43 40 39 37 37 38 38 37
97 85 94 95 94 99 96 92 87 99 99 95 93 99 100 94 86 67 88 78 84 85 99 99 98 99 98 100 99 99 96 100 98 100 86 61 47 39 38 42 46 47 48 48 46

GFSSW_700_rhum_033.txt.gz
RH
22 22 31 31 17 17 22 30 35 46 48 48 46 45 45 51 37 36 39 56 57 51 47 43 42 33 33 39 38 38 60 43 37 39 29 27 32 46 47 49 49 46 43 44 46
24 22 26 36 24 17 22 32 41 52 54 51 49 48 50 48 45 40 60 61 55 52 51 46 43 50 42 34 48 45 46 36 36 39 35 36 40 47 49 51 51 48 48 43 47
29 23 22 30 36 20 19 31 38 49 57 53 52 52 51 50 46 45 48 44 44 41 44 45 44 47 56 46 48 49 39 44 39 39 45 39 40 41 49 53 57 55 53 50 43
32 27 24 22 33 32 19 29 36 43 58 60 60 59 57 56 47 46 44 41 40 40 38 39 41 45 53 58 50 58 49 47 38 42 48 44 36 40 45 54 59 62 59 55 52
24 32 25 26 26 36 28 21 32 42 63 66 62 58 56 54 56 53 51 50 44 39 36 34 40 49 56 59 53 56 49 54 53 45 42 50 44 42 42 56 62 63 63 60 55
12 25 32 26 28 35 38 25 25 33 53 66 60 52 47 52 50 48 48 51 49 46 42 38 35 42 59 70 66 54 50 52 60 54 46 46 46 50 37 45 61 62 63 62 58
13 14 28 27 30 33 41 37 24 27 40 60 67 60 47 56 46 44 47 52 52 50 46 41 38 40 45 49 74 66 57 54 53 46 55 47 37 32 40 40 56 60 62 63 59
33 14 18 28 28 34 37 44 32 26 30 40 46 40 43 39 33 32 45 56 61 56 52 47 44 40 43 60 69 72 75 60 38 46 53 61 32 37 34 36 45 54 55 59 53
91 43 15 25 27 35 39 44 42 31 27 31 34 30 28 27 34 37 48 60 64 59 54 52 52 52 60 71 80 84 87 73 68 51 55 62 45 43 41 45 35 39 47 54 46
100 88 40 93 53 38 42 46 46 42 32 37 34 35 32 36 39 57 58 54 60 60 56 52 64 81 82 92 90 79 96 99 83 67 69 62 59 66 63 63 52 44 41 47 40
100 100 88 86 100 72 45 50 44 41 44 37 40 38 33 34 32 32 47 62 60 61 58 60 64 67 55 48 52 66 88 95 91 86 69 60 81 62 58 77 65 50 52 50 46
99 99 98 75 97 100 69 53 50 49 45 44 41 39 39 38 38 39 52 75 72 62 63 76 66 61 53 55 63 79 82 85 84 87 82 64 57 52 61 47 61 47 45 48 46
95 99 98 95 73 99 95 68 71 62 58 50 48 46 48 54 60 56 63 74 86 92 84 74 69 58 64 60 75 76 72 88 69 54 56 72 46 32 31 36 33 41 39 41 44
70 98 99 97 90 97 99 78 82 70 70 58 53 62 52 63 83 62 77 93 99 92 94 100 91 77 72 71 76 95 69 72 65 88 95 75 77 42 32 22 31 32 30 38 45
26 93 98 95 91 99 79 100 81 76 98 61 67 59 68 80 77 76 83 100 100 100 98 92 82 71 75 72 69 91 83 86 86 84 86 71 88 59 43 20 19 37 32 27 35
38 82 98 98 97 87 100 97 84 95 95 74 75 77 73 80 90 73 82 100 99 100 98 98 100 97 84 80 80 83 97 95 98 96 96 78 86 55 38 18 16 26 34 33 36
78 71 98 98 93 99 99 94 98 98 65 72 63 64 66 80 98 99 94 100 100 99 100 99 96 100 99 88 81 92 98 96 98 97 85 58 71 56 24 19 12 16 41 42 50
99 96 93 98 96 99 98 92 96 68 69 70 68 69 71 78 82 90 99 99 100 100 96 90 92 66 82 88 79 74 80 93 95 89 77 63 70 44 29 15 28 21 40 43 47
98 98 95 98 97 98 97 100 75 66 64 62 72 81 100 94 99 100 100 96 88 78 98 91 96 68 60 60 86 98 100 68 93 94 97 68 50 36 30 22 14 30 49 46 45
96 94 98 98 98 99 99 96 80 68 64 67 63 72 99 98 99 100 97 70 66 70 79 90 96 70 67 78 88 98 85 96 98 93 93 74 73 46 27 18 13 13 40 46 43
90 97 98 97 98 99 100 99 80 73 74 75 79 86 88 97 95 93 83 61 57 53 78 83 100 90 91 88 86 98 98 94 80 78 96 99 55 40 42 24 12 17 36 44 44
97 94 95 99 97 98 100 95 84 76 82 78 78 91 97 98 98 98 91 74 58 76 82 79 97 98 90 90 97 97 92 96 80 84 72 91 69 38 61 40 23 14 43 44 41
97 98 82 98 96 96 99 93 89 88 89 92 84 91 97 98 97 96 84 67 82 67 74 84 97 96 93 97 98 97 98 98 93 69 69 68 48 27 58 53 39 39 50 47 41
98 97 98 98 99 96 82 98 99 98 94 99 90 98 98 97 98 96 90 81 68 81 85 88 98 95 93 90 98 98 100 99 97 83 73 68 58 32 48 77 55 45 44 47 44
88 97 96 97 97 94 94 94 99 93 97 97 90 83 98 98 97 100 83 84 77 78 95 97 97 98 96 97 98 99 96 94 98 74 78 75 80 36 55 73 72 60 47 46 47
95 98 95 94 85 99 98 95 86 97 98 94 89 91 100 99 99 92 81 80 70 90 95 99 98 98 97 97 100 98 100 96 95 82 84 90 72 56 71 76 56 55 49 49 45
95 98 99 100 98 99 87 94 96 99 96 96 99 100 90 94 94 95 96 97 91 99 99 99 98 98 96 99 99 98 96 95 88 78 73 94 67 72 58 54 50 48 47 45 45

GFSSW_700_rhum_036.txt.gz
RH
28 28 25 22 24 33 19 17 30 38 42 44 44 45 44 95 66 32 33 50 44 43 38 37 32 28 27 35 38 40 54 38 34 35 31 27 30 34 42 47 44 43 45 45 43
27 30 31 25 24 29 29 17 24 41 52 57 57 53 53 56 90 44 59 54 47 45 46 43 45 45 43 38 44 46 49 36 33 34 34 34 42 44 41 49 49 50 47 46 45
14 28 34 29 26 28 32 23 21 42 53 60 60 56 54 54 51 44 49 51 46 59 51 52 51 53 50 53 52 52 46 35 37 39 37 36 37 44 50 51 53 53 53 52 52
13 50 29 35 27 27 34 34 20 32 47 58 61 61 59 58 51 48 46 43 42 44 49 51 51 54 56 49 50 56 48 42 40 47 48 41 34 35 41 46 53 61 63 61 57
63 49 70 30 33 28 31 37 30 22 40 60 67 65 60 61 61 56 55 54 49 42 39 41 45 49 55 53 50 61 50 52 50 47 42 42 38 34 32 36 43 56 63 61 59
90 73 84 56 34 30 32 35 36 25 30 43 62 63 55 56 57 54 54 53 54 51 48 45 41 44 45 47 60 64 55 47 47 50 48 43 35 40 24 31 37 45 63 63 60
100 92 88 95 23 33 31 35 39 32 27 33 48 62 57 62 50 47 48 51 52 53 51 62 51 43 42 40 50 58 55 54 47 37 41 39 35 30 27 26 31 40 55 64 62
99 99 98 91 95 32 33 36 38 40 31 32 40 40 45 62 54 44 41 47 52 59 56 52 48 46 47 45 56 66 68 51 41 40 41 50 34 30 36 28 26 31 40 59 60
99 99 99 94 72 82 38 44 40 44 38 32 34 29 29 31 31 27 28 31 49 64 63 58 55 54 59 56 52 58 67 63 60 62 62 61 56 37 34 30 29 28 30 44 60
83 99 100 99 85 88 78 60 45 47 43 35 35 35 39 42 38 38 48 50 52 64 65 60 63 80 83 81 77 62 72 63 53 50 53 57 66 40 38 51 35 32 33 31 41
24 99 99 99 96 89 99 77 60 48 47 40 40 43 44 48 46 46 48 46 48 58 60 62 66 74 54 57 57 61 74 90 81 78 80 57 49 33 32 41 33 28 29 35 32
5 98 99 99 98 96 95 97 61 60 49 46 42 41 40 39 42 42 42 43 52 54 62 68 64 60 66 65 66 66 75 82 78 50 47 46 31 28 26 29 29 31 27 26 38
9 20 84 98 99 99 83 100 73 84 72 54 49 42 43 45 48 52 54 55 67 79 73 66 62 66 68 66 73 74 82 81 72 53 47 55 34 27 21 19 20 22 25 23 26
70 20 38 97 98 98 93 99 98 100 76 56 44 47 43 55 57 50 60 78 89 84 91 92 87 84 88 88 73 75 77 72 80 96 97 62 73 48 35 23 17 15 17 21 23
93 46 49 69 98 98 89 98 100 100 96 57 69 66 65 67 67 60 72 98 99 99 95 81 83 78 86 84 89 96 91 87 96 97 98 93 93 53 44 31 20 16 12 16 20
95 82 24 100 98 97 99 94 99 85 94 71 75 87 92 100 86 81 82 99 100 100 99 96 96 97 95 89 88 90 100 100 98 97 97 79 89 57 50 35 24 19 14 13 18
79 70 60 74 98 97 97 98 96 94 66 74 85 94 100 100 100 99 91 100 98 99 100 100 97 100 98 98 91 99 100 96 98 96 83 65 79 55 42 37 34 21 15 14 20
72 64 70 99 97 98 97 98 89 72 70 69 69 83 98 98 94 98 100 99 99 100 98 93 87 75 84 76 91 86 92 84 92 93 82 74 83 57 38 39 26 25 22 22 23
71 83 83 98 98 98 98 99 73 62 58 59 77 86 87 84 82 94 99 97 99 100 99 91 95 72 58 57 69 98 100 87 88 74 92 74 63 54 47 40 26 27 23 18 50
87 91 96 58 93 98 98 93 75 64 58 61 53 56 68 89 90 99 100 77 84 73 98 98 93 66 64 66 69 71 94 98 98 95 93 79 75 52 44 37 38 28 22 28 37
90 95 98 73 97 98 98 95 79 68 66 63 61 67 73 89 100 100 87 71 66 56 65 97 100 84 87 75 55 90 97 98 96 91 92 89 50 43 62 66 61 30 23 19 26
99 94 100 94 97 97 98 93 74 74 77 76 70 72 79 84 98 98 98 81 69 67 70 73 100 99 81 68 78 96 97 95 97 93 83 75 59 42 53 45 52 60 20 15 17
96 92 94 98 94 98 98 93 90 77 77 76 77 81 84 91 94 98 100 82 88 87 76 77 98 98 80 84 96 97 92 96 96 96 86 80 57 38 25 41 50 74 50 24 30
96 98 97 98 97 95 98 94 87 86 87 81 84 87 93 100 93 91 93 90 100 98 98 93 96 94 89 77 95 98 96 96 98 97 84 79 62 46 36 45 38 52 70 60 63
89 95 96 96 97 98 98 82 83 90 79 85 79 78 93 99 98 89 87 93 98 99 100 99 97 92 86 93 99 99 98 98 97 75 97 72 71 60 43 32 44 57 72 65 65
94 98 99 97 99 97 94 91 78 75 74 76 72 79 100 98 90 92 99 100 93 97 98 99 97 97 92 96 99 99 100 99 98 98 100 91 73 55 41 60 78 84 64 63 62
98 97 98 96 99 97 90 82 76 90 83 82 89 100 99 90 94 98 99 98 100 100 100 99 98 98 94 91 99 99 99 98 100 97 78 92 58 95 90 84 77 66 59 57 56

GFSSW_700_rhum_039.txt.gz
RH
28 31 34 34 28 25 25 32 24 17 26 36 42 44 44 49 67 30 29 52 44 40 36 29 23 20 27 32 31 38 50 36 32 34 34 32 33 31 35 40 45 40 44 45 45
69 74 26 37 34 28 26 30 31 19 25 36 47 53 51 51 61 40 68 58 56 48 43 41 44 41 33 28 39 48 44 30 26 30 36 37 35 38 38 36 45 43 44 44 45
81 58 86 49 39 32 26 30 35 22 24 42 54 59 60 57 56 51 69 54 55 88 64 47 47 56 50 47 42 47 34 29 28 30 32 29 29 33 37 40 39 49 49 47 47
95 84 59 88 47 38 30 29 36 29 24 37 47 57 60 60 50 50 50 50 60 82 74 56 51 58 52 48 50 53 39 38 36 42 45 35 31 28 31 30 44 52 54 54 51
99 99 87 76 88 44 38 30 34 36 30 33 46 56 63 64 60 59 53 51 48 44 45 52 60 55 52 46 50 51 38 45 42 40 40 42 32 29 27 25 35 53 59 61 59
99 74 100 90 77 84 42 34 32 40 33 37 40 50 61 66 63 63 61 59 59 57 50 44 42 48 46 46 55 55 44 39 39 38 43 44 34 40 22 22 27 35 50 58 65
5 56 99 100 88 86 77 39 36 41 39 34 33 34 57 69 59 56 52 51 52 53 55 53 51 50 48 48 52 54 52 44 36 35 44 40 35 30 26 30 26 25 33 42 58
3 23 76 99 99 87 88 49 44 46 41 39 34 30 38 61 66 64 52 50 53 57 58 57 70 63 52 48 52 63 66 52 42 36 35 40 35 27 24 26 27 26 25 32 39
3 3 26 92 99 97 92 90 60 54 47 43 39 32 32 28 35 43 50 41 50 55 63 64 62 58 57 54 54 54 56 54 49 50 48 51 48 37 28 27 27 24 24 24 31
4 4 5 61 98 99 97 98 95 65 54 47 40 38 38 37 33 35 35 35 40 58 71 69 67 68 68 64 66 58 65 64 64 54 47 43 37 30 29 31 29 31 26 25 24
13 6 7 100 99 99 99 100 98 73 58 42 41 48 37 39 39 42 42 49 57 68 71 72 72 60 49 61 68 74 75 74 72 54 52 38 34 32 30 26 25 26 24 23 28
99 70 7 94 98 99 99 100 86 74 64 52 48 42 42 42 43 47 50 54 49 48 62 70 61 54 64 67 68 70 74 78 64 56 57 51 34 34 29 26 24 22 22 22 23
95 95 58 6 99 98 98 99 92 87 90 66 51 45 43 42 46 45 48 52 55 62 61 63 63 64 66 72 79 76 74 84 78 66 63 59 43 35 31 29 27 25 21 19 19
93 93 92 18 36 99 98 98 88 99 94 70 52 46 48 47 44 47 54 63 73 72 81 84 75 76 83 92 86 90 85 78 82 94 97 76 71 55 45 36 34 32 23 20 18
84 87 92 82 58 97 96 99 99 97 82 55 61 59 54 55 58 49 60 77 88 88 83 75 84 85 90 78 91 96 94 88 92 97 99 99 99 55 56 41 34 29 28 23 20
93 90 61 89 86 82 98 98 98 96 96 70 71 90 92 88 98 81 72 98 97 100 100 96 96 98 86 89 92 95 95 98 94 96 95 79 93 50 41 18 24 23 24 25 22
95 86 62 73 63 78 96 98 96 87 64 77 78 100 100 99 99 100 99 100 99 99 98 99 93 99 99 97 98 97 97 93 93 97 79 56 81 52 24 30 34 37 26 26 26
94 82 67 55 60 97 97 98 96 72 62 74 81 99 98 100 99 98 98 99 100 99 97 89 83 71 59 64 96 99 98 81 93 87 74 68 76 59 28 40 34 41 35 35 30
80 70 59 56 73 89 98 98 82 63 51 55 100 98 100 100 97 100 97 98 100 94 94 95 96 74 60 66 86 95 98 71 84 80 90 63 53 47 32 34 36 38 39 32 26
89 75 94 73 84 94 98 97 85 65 50 58 72 89 96 95 87 93 85 80 86 79 99 93 98 80 80 76 65 80 86 98 99 95 91 69 66 56 36 33 35 41 43 49 23
95 93 97 79 94 97 98 96 75 64 53 63 62 65 74 71 84 86 85 73 67 59 87 99 99 80 88 66 48 81 100 99 96 96 88 70 50 44 39 36 57 50 46 63 27
100 98 95 93 100 97 97 97 81 59 55 64 64 68 69 81 86 98 92 77 76 69 72 81 100 97 65 55 72 82 87 92 97 94 96 86 67 49 43 42 58 61 46 53 38
98 97 100 71 97 83 88 97 86 68 58 63 67 71 78 80 89 99 100 86 94 92 89 84 98 94 74 70 71 98 76 94 98 98 95 94 60 49 49 46 46 40 46 55 54
93 98 98 78 76 87 86 98 91 78 71 72 73 70 81 90 98 100 98 96 100 99 100 100 99 91 88 64 72 98 98 98 97 97 85 88 71 56 55 49 42 51 61 67 71
98 98 96 90 70 57 89 93 88 90 85 78 77 72 82 97 98 98 99 98 88 93 96 94 97 91 88 85 93 98 98 99 98 89 96 63 80 68 73 68 59 56 85 82 85
97 99 100 94 97 96 98 99 85 84 74 74 72 70 80 98 98 98 99 97 96 93 90 95 96 96 97 75 96 99 99 99 99 100 99 94 88 80 72 59 81 98 99 83 78
96 95 98 96 100 98 95 89 84 91 83 81 77 89 89 97 100 100 100 100 86 94 95 94 99 99 94 72 83 88 98 99 100 100 99 98 74 84 74 85 100 92 83 84 66

GFSSW_700_rhum_042.txt.gz
RH
86 64 64 63 44 34 30 26 29 31 21 22 31 39 42 47 40 40 31 38 17 13 13 12 24 31 32 32 28 29 60 46 48 47 47 43 28 29 30 33 34 39 40 34 40
70 94 78 61 74 50 34 28 29 34 25 23 30 38 48 51 66 64 72 73 40 32 28 24 40 35 22 30 41 42 68 53 56 56 51 50 29 34 28 30 34 39 42 40 43
29 83 92 86 73 77 44 36 29 34 31 23 38 46 57 60 56 46 68 71 65 76 55 46 59 66 46 33 33 52 69 63 42 29 26 31 26 31 30 34 31 48 43 42 45
16 81 84 91 87 86 71 46 32 34 36 25 40 48 60 64 55 44 56 72 69 77 77 75 64 74 66 60 48 44 30 43 42 35 31 30 37 28 27 26 53 36 45 44 45
3 8 99 98 99 88 88 71 42 38 37 31 38 51 57 61 58 53 52 53 53 63 84 87 87 78 72 67 56 55 47 42 44 38 37 38 29 30 34 21 26 38 47 49 48
2 3 25 100 96 98 87 95 69 42 41 36 34 50 64 70 65 60 59 55 53 52 48 52 95 92 78 67 67 52 43 39 35 34 37 35 30 46 23 19 24 26 38 50 53
2 2 3 30 81 99 94 93 78 52 47 40 36 40 53 70 63 62 64 64 64 64 60 52 48 54 56 58 52 47 43 43 34 33 36 36 32 27 23 25 24 25 25 36 54
2 2 3 3 11 84 100 98 94 74 54 45 40 36 40 58 71 62 56 56 59 80 86 65 56 61 56 54 50 48 48 61 42 35 36 40 42 49 29 24 24 24 27 26 31
3 3 4 3 4 67 99 100 99 93 55 69 44 39 39 36 63 73 66 60 60 61 63 75 80 69 65 55 74 72 62 76 61 40 43 44 62 54 32 31 28 26 26 27 27
18 14 20 4 5 39 96 99 99 100 79 91 55 45 42 40 40 47 53 60 53 57 61 62 65 67 56 79 60 62 80 77 72 69 45 46 61 46 36 33 32 32 28 23 25
47 88 99 59 5 25 94 98 99 100 88 56 45 48 38 39 47 45 45 44 46 58 65 64 75 52 57 61 84 69 87 88 82 55 52 39 41 49 34 30 30 27 26 24 23
60 93 96 99 36 91 99 98 97 96 83 52 56 52 48 49 52 52 53 52 57 69 76 72 64 52 58 71 78 98 92 83 82 56 64 71 29 39 31 27 27 29 28 25 23
80 89 91 99 93 48 98 96 99 99 96 65 54 52 51 57 60 57 56 63 66 60 50 59 67 55 62 71 83 96 93 86 84 85 85 73 49 36 43 28 25 24 25 26 24
88 88 69 89 92 68 93 98 98 99 98 84 56 48 51 49 54 54 62 71 62 58 63 81 84 72 82 86 76 91 95 81 97 95 80 92 55 47 38 26 22 17 21 24 25
79 94 96 72 87 77 90 98 98 98 96 76 76 65 56 56 53 51 59 72 75 64 64 69 76 81 95 66 93 96 98 100 100 100 99 84 97 36 34 22 17 28 29 38 23
77 92 90 66 80 78 78 96 98 98 86 79 87 71 66 63 65 67 67 83 95 95 96 99 88 95 91 87 93 96 97 99 100 100 88 60 78 32 24 25 31 28 22 27 25
80 93 92 90 75 80 90 97 97 95 77 91 98 95 95 96 95 87 89 95 92 99 98 98 96 87 96 100 98 100 94 79 83 92 64 52 56 44 33 34 27 25 19 14 18
94 89 87 69 91 83 88 98 97 94 95 88 98 99 99 94 100 98 96 99 96 98 99 94 83 85 78 89 96 97 97 67 69 54 33 61 56 35 33 34 33 30 31 20 24
98 91 68 62 82 76 94 97 97 76 59 96 99 100 98 99 88 99 99 98 98 97 90 99 98 74 71 67 92 99 99 80 87 75 68 46 40 39 40 42 44 42 33 40 34
90 90 72 62 65 82 99 93 94 69 53 74 98 99 99 98 98 99 100 80 99 98 97 97 93 70 72 77 75 97 96 94 96 81 65 44 42 42 42 46 41 49 35 32 40
97 91 93 79 90 96 96 93 91 74 63 69 64 91 100 98 98 94 96 75 76 66 98 99 95 93 74 62 62 89 100 99 87 91 68 67 45 43 44 41 45 40 45 50 51
93 96 84 94 98 95 92 97 83 90 70 64 64 59 71 73 90 90 90 77 74 71 90 87 96 99 91 69 74 86 91 98 96 87 96 90 70 58 56 64 53 47 56 55 50
94 99 78 100 91 98 91 98 89 77 77 67 68 62 69 75 87 92 86 82 84 78 81 94 97 96 77 84 76 79 64 87 96 98 94 89 66 56 71 58 55 51 46 47 44
95 96 97 97 86 91 98 96 95 90 78 65 62 68 70 83 79 99 99 96 87 94 99 95 99 89 77 51 68 86 94 98 98 97 81 87 76 67 66 76 68 60 54 51 55
97 98 77 95 94 83 92 89 96 95 81 74 72 69 74 82 88 92 98 100 98 96 95 98 96 99 69 60 71 89 99 96 98 97 98 73 78 73 77 84 75 72 75 57 86
98 98 97 75 93 90 82 72 81 86 78 70 64 72 74 78 76 78 88 100 98 98 100 100 99 95 63 66 86 100 98 99 100 99 99 100 97 90 81 76 73 84 85 100 87
98 98 98 95 100 99 64 65 91 80 86 75 79 84 78 88 90 96 98 97 96 98 99 100 100 99 98 94 98 96 98 99 99 98 99 91 78 91 99 94 92 99 100 97 93

GFSSW_700_rhum_045.txt.gz
RH
16 63 90 90 86 68 41 33 30 26 29 30 22 27 34 40 40 22 15 30 29 18 16 15 18 25 29 28 29 36 64 48 42 32 31 35 43 46 44 42 42 41 40 43 42
2 6 42 67 87 89 79 45 36 28 27 33 22 25 37 49 52 44 44 56 35 21 16 18 21 20 29 35 41 75 60 47 36 33 36 44 48 44 48 37 40 47 47 37 39
1 2 3 8 89 88 88 89 49 37 29 33 27 28 44 56 54 48 66 74 62 66 46 44 79 36 30 27 71 90 68 51 49 54 58 60 54 56 55 52 43 43 47 44 40
1 1 2 3 70 90 90 90 84 48 33 32 32 34 58 69 68 44 49 61 67 86 84 69 75 82 55 61 71 83 74 68 65 81 51 42 69 67 59 37 49 52 52 61 42
2 1 1 2 25 54 94 92 96 80 40 35 37 37 60 69 70 54 53 54 72 84 89 96 92 98 96 89 88 93 70 72 73 73 70 48 34 69 75 42 26 57 63 53 43
2 1 1 2 4 82 94 98 96 94 66 39 40 42 60 67 62 63 56 56 66 83 83 91 97 99 100 97 96 89 83 82 80 56 63 46 30 57 28 17 23 22 30 34 43
7 3 1 2 2 13 93 100 96 99 96 48 43 44 66 80 70 64 62 57 55 54 83 76 99 100 100 88 90 68 75 70 45 46 64 54 42 28 19 21 20 19 21 22 31
44 15 3 2 3 3 55 92 99 99 98 71 47 47 56 58 75 70 70 66 64 62 62 68 85 97 94 97 66 54 78 69 58 56 62 65 52 47 51 50 41 25 24 24 21
81 51 19 9 6 3 4 46 96 99 98 96 51 48 58 46 62 75 67 68 68 67 73 91 81 90 90 80 76 78 60 57 52 66 67 64 62 52 54 39 46 47 34 30 25
76 68 46 47 76 21 4 8 86 99 99 99 91 62 50 46 46 75 80 74 66 63 73 95 99 94 80 86 56 53 60 57 51 58 69 64 64 55 59 41 32 38 48 36 41
74 72 67 62 94 87 42 96 91 98 98 93 63 46 54 42 48 51 79 80 76 75 69 64 91 82 78 75 69 69 68 61 60 63 64 61 57 52 41 29 24 24 24 24 24
76 69 78 88 82 92 95 100 98 98 99 98 88 52 46 46 56 54 56 78 71 93 100 81 60 79 84 84 84 83 75 65 62 64 64 60 36 41 21 15 16 16 16 17 20
81 77 90 88 90 96 78 100 97 98 98 99 86 57 53 55 68 52 53 80 92 98 100 98 84 62 91 94 85 82 76 70 66 67 70 66 47 23 32 22 17 15 15 20 24
70 68 83 88 72 82 76 85 96 97 98 99 96 69 56 63 76 65 70 82 100 99 100 97 91 65 64 81 88 79 75 79 79 81 65 74 59 43 26 31 36 28 22 29 25
59 88 92 84 77 83 80 79 97 98 97 96 85 89 61 55 87 74 82 82 99 92 92 90 74 100 96 85 92 89 94 89 87 89 95 76 76 41 31 27 29 34 37 35 38
90 95 99 83 92 84 78 95 97 97 97 99 97 78 76 96 78 80 92 84 100 100 98 96 97 95 96 90 97 96 96 96 94 95 90 63 59 36 23 21 23 24 31 34 28
73 88 92 96 91 91 81 93 96 96 98 99 99 93 94 100 100 92 100 99 92 99 100 99 99 88 84 99 98 99 95 80 88 91 65 39 38 41 28 27 32 34 32 32 22
96 97 94 83 92 81 84 88 97 96 99 100 100 99 100 99 99 100 100 99 99 95 93 94 90 98 98 97 97 100 98 67 68 49 37 39 43 34 30 31 34 37 38 37 37
96 90 82 83 74 76 91 98 96 96 100 98 100 100 100 99 94 99 99 100 97 100 98 81 90 85 98 97 98 100 98 69 84 70 63 42 30 30 32 34 36 39 40 40 53
95 91 91 62 66 85 86 92 96 99 87 99 98 94 100 100 99 98 94 97 100 100 97 93 97 87 98 94 88 96 85 88 95 81 60 33 33 34 35 37 40 42 45 46 62
94 94 96 71 74 93 92 97 97 98 99 95 96 94 95 98 95 99 98 90 99 99 100 100 96 98 91 73 88 96 100 93 78 78 59 57 40 37 42 46 46 48 46 51 69
98 96 100 73 72 100 85 97 97 97 77 85 100 94 94 96 99 94 91 93 88 88 100 100 98 100 93 84 81 86 92 92 92 67 82 79 65 48 53 53 56 56 64 71 68
98 86 86 94 98 100 82 100 97 96 84 86 86 95 91 95 92 94 93 88 76 86 100 99 98 93 94 84 88 91 90 89 98 97 95 92 64 52 54 62 62 69 71 65 67
97 85 90 87 97 79 87 95 94 95 81 67 68 82 96 99 98 98 100 86 85 82 96 98 100 84 76 71 81 97 88 96 98 97 80 83 78 74 72 77 84 72 70 76 76
98 78 87 95 98 99 79 95 96 95 82 70 77 91 96 96 100 100 100 93 91 89 91 98 97 97 91 96 96 97 95 89 99 96 99 85 96 96 98 98 96 91 82 81 98
99 96 97 80 100 95 93 97 95 90 83 72 70 70 72 87 85 95 100 98 95 94 94 93 97 96 99 99 96 86 88 89 99 99 100 100 97 74 92 96 94 84 86 76 74
97 100 90 76 83 98 97 99 100 95 92 84 73 71 72 71 74 84 96 94 90 97 89 95 97 98 90 88 79 87 81 96 99 100 100 99 96 95 88 97 99 99 98 98 99

GFSSW_700_rhum_048.txt.gz
RH
2 1 1 3 24 56 74 79 57 37 32 26 28 28 26 29 34 34 21 15 22 18 33 25 24 27 28 25 24 33 76 70 58 47 40 31 28 36 38 36 38 38 38 44 51
2 2 1 1 2 19 57 81 84 67 40 32 30 31 24 30 37 29 34 23 20 30 28 21 21 27 37 35 33 46 58 65 46 43 41 35 33 36 41 40 37 42 40 42 44
4 4 3 2 1 1 8 81 87 86 69 40 31 34 27 30 38 29 46 39 47 56 35 27 35 58 32 49 53 42 40 43 32 46 43 41 43 45 47 46 44 38 44 47 36
6 5 4 2 2 1 2 74 82 88 87 56 36 35 31 37 58 49 43 74 69 82 71 59 45 97 84 92 73 70 78 44 46 56 59 49 45 54 53 43 46 47 44 47 49
7 6 5 4 2 1 1 40 84 92 96 87 54 35 35 41 59 43 58 56 80 84 88 89 74 87 94 92 88 84 75 64 62 62 76 72 58 46 51 60 25 39 47 53 59
8 8 6 7 4 2 1 20 50 92 100 98 73 42 40 45 59 47 66 55 60 82 91 99 99 98 96 88 88 86 86 76 60 74 64 65 48 43 31 17 31 28 50 49 54
25 14 22 22 8 2 2 2 22 96 99 100 90 63 41 47 60 45 66 60 61 67 93 97 100 100 92 95 94 90 80 74 50 42 59 46 50 38 21 22 23 24 22 29 29
55 95 77 52 27 6 4 2 12 99 100 99 98 91 42 40 54 58 61 66 60 67 88 98 91 89 99 98 98 80 74 78 37 42 44 68 58 42 49 42 24 20 19 18 17
74 90 87 74 55 38 22 7 4 70 97 98 99 93 52 34 52 69 74 71 65 61 67 80 99 99 96 98 82 86 72 65 56 57 58 66 62 48 58 52 52 42 29 24 20
97 76 80 69 62 60 75 79 7 27 98 98 98 99 63 34 42 56 76 72 80 85 89 94 94 94 90 83 77 65 68 57 53 60 58 58 69 52 50 47 54 42 35 33 27
85 84 79 69 81 77 83 92 33 30 93 97 98 99 57 34 40 45 78 75 88 94 100 100 100 95 80 78 64 72 67 63 53 55 58 59 58 38 29 30 22 23 23 20 19
88 85 80 75 89 88 88 84 99 89 82 98 98 100 78 42 42 48 77 94 99 97 100 94 90 81 81 76 75 73 76 73 63 56 61 55 32 23 14 12 13 12 12 12 13
84 88 82 88 85 89 94 85 92 97 97 97 98 100 49 48 44 43 59 96 87 98 100 98 79 61 84 86 79 77 81 75 67 66 59 54 30 17 28 18 15 13 14 17 17
80 82 76 96 94 94 94 94 72 96 96 97 98 98 61 68 59 56 65 89 98 97 94 95 92 84 73 87 83 81 74 75 75 78 70 70 79 19 16 17 23 16 14 14 16
89 89 73 90 87 86 94 97 95 91 96 98 98 98 78 58 67 68 75 100 94 91 92 90 92 94 79 73 88 82 83 74 86 86 89 62 70 24 23 22 23 27 30 16 16
57 74 87 88 81 92 91 98 98 89 95 98 98 98 87 98 96 68 96 96 98 93 97 94 93 71 90 82 90 90 85 78 87 90 94 61 57 37 26 25 24 23 23 23 9
68 90 99 95 87 96 86 91 92 96 98 98 98 99 91 99 94 77 99 92 86 97 98 93 94 87 80 96 93 96 94 90 99 99 90 41 63 44 23 25 22 23 23 27 24
76 95 87 82 91 91 100 88 97 94 98 98 98 100 100 96 97 99 100 99 93 80 82 89 90 95 83 92 96 90 87 81 85 86 68 51 45 36 28 27 27 31 32 34 36
87 86 76 67 77 75 76 92 73 98 95 98 98 99 100 95 97 95 99 99 99 81 88 87 94 93 99 98 97 98 98 79 86 65 74 51 33 30 29 29 33 33 37 40 34
83 93 71 74 85 81 82 69 71 98 97 95 97 95 98 94 92 89 92 89 94 92 94 86 86 89 98 99 98 88 81 92 86 94 85 49 38 34 36 39 41 42 42 42 44
95 96 76 79 88 95 96 83 84 97 97 98 82 97 92 94 91 93 88 96 96 98 92 97 94 92 98 95 90 96 93 88 82 78 90 86 48 38 41 42 42 43 50 52 49
81 97 91 81 99 94 86 68 98 98 99 98 90 86 90 91 98 88 80 95 90 98 98 98 95 94 89 84 77 98 79 94 84 73 79 86 73 52 45 48 51 58 63 62 60
69 97 95 85 73 92 88 95 97 98 98 96 94 89 90 84 91 96 90 91 100 98 94 96 98 91 90 90 90 89 88 88 86 79 83 90 66 49 53 63 78 91 85 80 67
77 95 93 95 88 94 95 98 97 97 100 97 92 88 91 90 86 97 90 89 84 98 95 97 98 85 92 88 91 90 79 77 91 98 84 85 78 69 83 97 80 93 93 88 74
67 73 86 99 92 87 92 97 96 93 96 100 95 88 93 92 94 94 98 83 85 90 96 98 93 94 83 67 82 90 82 86 99 83 98 73 92 98 92 86 90 93 97 96 95
61 96 82 91 97 94 96 97 96 87 96 85 93 95 92 90 88 92 97 93 81 90 98 98 93 96 78 68 76 74 79 80 86 99 99 100 89 85 98 100 100 96 100 99 97
96 94 82 86 95 96 98 95 93 85 81 100 79 77 84 78 72 90 92 90 100 86 91 93 88 95 86 82 86 85 80 83 90 92 98 99 90 94 97 100 100 96 98 95 100

GFSSW_700_rhum_051.txt.gz
RH
6 6 5 4 2 1 2 16 72 81 84 50 35 27 25 25 23 24 23 25 18 21 16 16 23 27 27 21 23 32 69 54 34 31 31 22 36 38 36 36 35 32 39 38 40
6 6 6 6 5 3 1 2 25 77 91 88 52 34 28 28 25 21 28 34 27 20 24 19 22 30 31 26 30 41 58 52 31 28 34 41 38 42 38 36 36 36 39 40 43
7 7 7 7 6 5 3 2 2 47 94 97 88 44 31 30 26 21 31 36 37 44 35 34 31 41 37 34 35 45 42 32 25 22 47 53 45 44 44 42 39 35 37 40 41
10 8 8 8 8 6 5 3 1 9 89 97 98 80 38 33 35 29 28 39 50 58 77 42 34 85 54 42 39 45 51 52 36 26 59 56 46 44 46 46 42 38 36 44 45
11 10 9 9 10 8 7 5 2 2 83 97 96 99 57 36 32 36 52 44 68 80 90 75 68 80 99 47 46 70 45 58 49 40 58 60 54 43 47 48 38 37 38 45 53
13 21 22 14 19 18 10 6 3 2 50 96 97 98 89 38 39 36 56 62 73 90 95 94 99 86 81 75 85 81 84 78 76 67 63 63 57 44 36 49 42 36 40 48 59
14 34 65 100 62 57 28 7 3 2 11 91 98 100 96 53 45 38 49 64 57 82 99 97 100 98 89 77 93 91 81 83 72 49 54 56 50 42 22 24 31 37 22 42 54
51 89 95 98 94 80 67 30 10 3 5 63 97 86 97 73 47 42 50 64 60 58 87 99 99 100 98 87 81 80 86 86 49 47 44 51 53 26 27 28 25 20 21 19 36
99 96 92 85 78 72 58 61 55 24 9 92 99 98 92 78 48 38 58 61 68 64 72 94 99 100 99 95 89 87 86 68 55 47 60 58 57 33 38 42 41 31 27 18 18
92 82 84 87 79 65 79 76 64 75 12 96 99 99 97 77 59 38 72 78 70 70 98 97 99 100 93 96 95 85 70 63 62 60 63 64 64 44 44 41 38 30 24 24 20
86 83 84 83 72 70 82 81 80 82 28 80 98 90 95 78 62 39 74 79 81 69 78 85 88 96 87 74 77 70 78 72 63 64 65 62 60 55 31 33 32 32 26 20 18
82 82 75 76 83 83 86 80 82 97 83 51 98 100 89 69 42 57 73 79 91 94 99 100 99 84 90 86 79 74 73 68 59 59 59 55 47 38 17 13 12 11 12 11 12
79 79 79 69 80 92 84 90 92 80 90 46 98 99 95 68 56 49 73 84 75 97 98 98 97 99 85 91 88 83 76 69 68 51 48 46 26 12 11 10 13 12 12 13 13
79 74 65 90 74 90 86 95 99 80 99 75 92 98 99 93 72 65 84 82 96 94 96 87 84 76 76 81 86 82 78 74 74 65 63 53 75 14 15 14 16 15 16 13 14
54 72 82 97 88 87 84 91 92 75 96 96 96 98 98 83 62 100 100 98 98 97 97 86 86 88 85 77 89 87 79 77 73 70 74 50 57 17 18 18 22 22 14 15 16
52 58 96 93 92 95 94 96 91 71 91 98 89 98 98 98 72 90 97 93 86 92 93 88 90 86 84 80 93 88 77 75 72 78 95 39 53 32 28 23 20 19 17 11 16
44 78 100 96 93 91 83 73 87 90 93 99 98 97 87 98 95 99 100 98 93 96 94 97 90 86 83 87 92 93 84 90 87 94 90 61 70 33 26 27 24 21 20 27 29
71 90 87 85 92 88 75 91 100 85 58 98 98 97 98 94 99 100 100 99 88 74 91 92 82 79 76 91 73 89 79 84 94 98 81 57 69 32 24 22 26 26 28 32 33
85 94 74 70 82 64 90 100 84 94 98 98 99 96 99 92 97 99 100 95 74 72 72 78 83 90 91 88 89 87 92 89 89 78 82 53 37 21 31 32 32 30 32 36 36
80 77 74 83 80 86 98 98 92 94 98 98 96 94 100 94 91 92 96 87 77 71 85 90 88 96 91 96 94 86 80 92 89 88 92 65 50 34 36 36 40 39 41 43 42
94 63 88 84 83 85 88 90 70 98 97 97 95 93 90 91 89 91 80 91 66 61 91 87 83 100 96 94 86 96 96 89 81 78 92 96 53 39 42 43 48 49 52 54 55
88 75 91 95 91 96 92 92 97 98 98 94 92 75 78 90 96 88 79 94 84 69 97 93 89 84 91 83 88 92 87 88 81 66 82 94 70 49 43 44 50 57 66 67 76
88 88 81 74 78 95 88 96 98 97 97 92 90 82 76 84 85 78 86 95 92 95 90 92 93 89 91 90 95 94 88 89 87 78 78 88 65 53 53 59 81 98 77 65 60
64 77 89 89 92 96 96 98 98 100 98 92 92 82 83 79 88 98 89 98 99 98 93 87 88 82 86 86 86 94 88 91 94 95 84 79 66 57 79 94 96 89 78 76 86
58 66 92 96 87 94 96 96 98 97 98 93 93 92 96 98 88 88 86 97 99 96 92 95 90 88 80 86 88 85 81 83 86 74 94 64 79 77 99 99 98 100 98 97 99
56 74 86 100 80 94 98 97 98 99 96 88 91 100 87 91 78 84 75 76 85 96 99 98 90 98 77 81 77 77 82 81 72 79 85 85 91 100 99 100 99 99 100 100 99
60 68 73 90 98 98 98 94 90 94 99 98 98 90 86 90 87 82 81 76 77 79 81 96 89 89 80 75 80 81 74 76 78 84 92 100 96 94 98 99 98 100 96 98 100

GFSSW_700_rhum_054.txt.gz
RH
11 11 8 6 6 6 5 4 2 6 64 83 93 65 38 29 26 25 20 24 23 17 17 21 20 25 26 24 29 35 46 37 28 25 16 18 36 42 38 32 34 35 34 30 30
11 12 13 10 8 7 7 6 3 2 13 70 98 93 58 35 28 22 24 28 32 26 21 24 22 26 27 26 31 33 40 29 24 23 24 18 24 35 37 40 37 35 33 32 30
11 13 14 14 11 9 8 7 4 2 2 45 99 96 94 52 32 23 24 27 32 36 24 63 37 38 39 31 37 36 35 23 26 21 22 28 32 39 45 39 39 38 36 35 36
12 14 15 14 13 11 10 9 7 4 2 10 73 100 95 90 40 27 26 24 32 43 65 50 51 38 45 45 36 36 35 33 20 24 27 33 41 47 49 45 40 39 40 45 42
14 15 18 16 15 16 16 14 11 7 3 2 69 100 87 89 46 34 50 42 35 62 84 53 40 35 35 43 46 49 43 36 27 26 37 44 61 42 43 48 44 39 39 39 40
15 16 17 46 100 78 30 42 16 13 6 3 73 99 99 78 72 36 46 68 48 70 83 83 59 49 61 43 48 67 49 49 49 35 32 45 54 58 30 45 48 47 41 38 38
18 31 80 100 96 98 92 77 67 22 8 3 68 100 99 84 76 44 42 67 76 79 84 92 93 89 80 65 67 69 90 77 53 39 46 40 32 41 37 33 42 46 47 44 40
89 100 96 86 80 78 81 75 66 48 14 5 58 99 99 77 98 55 40 57 66 83 99 100 100 98 92 80 78 94 87 87 75 48 42 44 29 29 28 29 33 34 39 39 40
95 91 88 82 80 81 77 66 70 59 48 21 30 100 95 85 95 72 48 52 68 64 95 100 96 100 99 100 85 84 86 84 61 57 54 53 48 29 26 33 33 22 20 20 20
81 77 78 77 73 76 74 72 78 66 58 48 18 100 98 80 86 80 54 67 66 72 81 98 100 100 100 100 95 80 75 69 74 60 65 57 61 51 50 44 37 32 24 21 17
77 79 69 70 74 78 80 73 76 78 84 57 34 95 90 90 99 84 63 82 78 79 87 90 99 99 93 90 90 86 78 78 65 69 66 61 71 47 36 40 36 30 23 23 23
75 70 73 81 91 77 91 86 95 94 92 66 99 99 99 94 86 73 82 88 78 89 100 99 97 89 86 88 82 91 92 72 65 68 72 60 54 39 32 32 24 21 18 12 15
75 77 63 60 75 81 86 88 94 96 87 63 89 92 97 100 77 55 85 92 82 86 78 89 83 86 88 85 88 86 82 78 74 65 63 60 52 33 12 11 10 10 11 12 11
50 60 64 71 82 83 87 89 98 93 98 62 85 97 98 98 83 62 98 88 99 98 98 99 90 97 94 82 85 89 83 79 76 67 62 44 60 16 16 14 12 15 15 13 14
47 46 54 77 96 86 93 87 97 92 99 90 72 97 98 97 73 99 100 100 100 99 97 98 97 95 89 84 90 85 78 80 76 78 76 52 62 18 15 14 17 19 19 19 18
38 54 97 99 95 97 83 95 94 84 91 98 88 97 98 91 82 99 100 97 97 93 99 86 89 86 72 73 86 86 81 78 76 74 83 52 57 24 25 20 19 19 19 14 13
57 99 97 88 88 93 81 85 97 93 95 97 95 98 99 100 97 94 95 98 96 98 98 98 90 86 83 83 88 90 82 86 88 96 78 64 77 28 30 29 28 24 23 23 24
91 98 85 70 93 88 77 97 100 96 94 98 98 98 99 96 98 99 92 100 89 85 94 99 98 88 82 83 75 91 82 71 79 98 87 65 68 33 28 22 27 29 29 30 31
93 84 80 76 100 80 85 87 97 96 97 98 98 98 98 100 98 98 96 97 94 74 67 90 88 92 82 74 78 89 94 80 88 90 89 59 44 24 34 31 33 32 31 31 32
80 64 69 69 69 76 91 96 95 96 97 99 97 95 98 96 94 92 95 98 90 73 66 72 86 90 86 96 92 86 79 88 88 75 84 63 53 27 36 40 40 40 40 40 38
67 55 68 66 77 77 90 95 92 99 97 97 93 97 91 96 92 95 89 84 80 78 85 82 76 99 92 94 88 94 96 86 76 72 91 96 43 35 41 43 45 48 53 57 54
55 57 75 72 81 92 96 96 97 98 97 99 91 87 86 81 91 86 82 87 72 76 82 85 89 92 94 87 90 91 88 81 75 72 91 96 54 48 46 52 55 59 61 61 65
66 67 71 84 91 91 95 97 99 98 87 91 81 75 74 68 81 76 74 86 79 71 87 83 87 86 92 94 94 94 86 97 87 79 87 86 53 50 54 76 95 97 81 74 74
54 63 59 71 84 96 96 98 100 93 84 73 74 73 74 71 75 86 81 89 86 78 93 82 83 80 77 81 82 93 79 82 96 92 86 73 50 55 76 85 96 99 100 100 100
50 55 61 65 76 96 98 99 100 98 92 77 85 77 78 87 82 90 88 91 96 96 88 87 88 87 83 94 93 92 83 83 90 77 91 56 61 70 84 94 93 97 97 96 99
57 68 68 80 95 80 84 82 90 94 87 95 94 95 98 86 82 88 82 87 92 93 90 94 91 92 74 74 75 80 80 80 81 80 84 72 77 83 99 98 98 87 98 97 94
51 63 77 86 97 97 89 96 94 96 98 95 98 92 86 82 83 83 79 81 80 80 90 98 93 91 72 85 79 84 68 69 70 67 79 87 86 98 97 98 98 98 98 99 98

GFSSW_700_rhum_057.txt.gz
RH
6 7 8 9 11 13 13 7 6 6 3 6 58 99 90 72 38 27 20 21 26 21 18 18 19 26 28 28 32 38 44 41 33 29 24 22 25 26 28 38 36 34 38 37 33
6 7 9 11 12 13 15 13 9 6 5 2 20 83 88 87 60 24 24 24 28 28 19 17 18 30 34 30 37 36 37 33 24 24 26 25 23 25 36 41 36 34 38 38 36
8 10 12 12 14 15 15 15 12 9 7 3 3 63 75 96 77 29 28 25 28 34 33 24 28 33 37 34 40 35 33 25 22 22 22 22 19 21 26 37 41 41 38 38 37
12 13 15 17 18 18 16 15 14 13 10 7 2 48 96 99 85 53 28 26 29 35 43 67 41 41 43 42 41 36 34 28 19 20 24 22 20 21 23 29 39 42 41 38 38
16 17 18 21 36 62 86 78 35 20 15 12 4 28 99 84 76 55 53 33 27 35 58 66 59 34 35 42 42 44 42 34 24 20 22 25 26 22 18 19 39 39 43 41 39
19 45 67 96 98 98 91 93 85 80 37 17 12 16 82 97 73 94 51 66 32 39 70 72 73 53 40 40 44 56 45 43 32 27 26 25 23 22 13 17 41 37 45 44 42
66 100 96 95 93 91 81 79 75 67 75 40 21 16 98 97 91 89 65 49 60 53 73 84 64 65 59 52 55 64 73 48 41 37 31 28 21 18 18 16 26 43 43 46 45
78 73 81 81 75 74 75 77 71 72 69 66 49 17 69 99 100 88 63 65 78 77 83 94 82 69 78 84 73 89 71 82 49 38 37 36 19 25 32 20 18 26 38 47 48
80 77 73 73 71 65 69 69 69 71 74 70 70 38 100 84 65 90 56 56 86 87 87 99 99 97 98 98 93 98 89 70 56 62 57 56 49 25 23 18 23 22 27 42 44
80 78 68 65 67 76 75 75 76 74 73 75 76 70 96 70 98 84 73 54 74 74 99 100 93 100 99 98 97 95 95 74 65 56 61 62 67 39 39 34 34 19 18 18 21
84 72 68 72 82 84 80 75 79 72 74 78 71 57 81 97 98 97 80 73 72 80 75 100 97 99 99 99 100 86 83 77 68 69 70 65 64 38 30 35 31 22 18 18 17
86 78 66 54 57 91 82 78 86 93 72 86 92 66 99 98 99 98 86 87 76 82 89 98 100 99 96 100 99 98 94 81 67 68 72 62 57 35 32 33 32 31 28 27 27
51 53 56 61 71 76 88 80 96 97 90 70 78 42 98 98 98 97 95 91 84 100 99 99 99 96 96 89 100 97 92 87 79 70 70 66 57 38 28 29 21 14 13 14 15
48 46 42 47 72 91 97 91 92 95 96 88 62 39 97 99 100 99 84 81 100 99 99 100 90 91 92 90 88 90 84 84 82 77 72 59 62 31 19 14 16 24 22 16 14
30 38 78 98 97 98 96 97 97 91 99 94 58 69 97 98 89 98 94 92 93 92 91 88 86 92 93 84 81 84 81 83 79 79 74 60 58 21 14 17 19 21 26 20 17
37 78 97 94 91 89 90 94 97 96 95 92 52 89 99 98 98 96 100 99 96 99 97 92 95 96 93 88 88 83 83 80 76 73 78 57 52 16 26 28 30 30 28 23 19
97 92 75 62 84 98 82 94 76 92 96 97 62 96 99 100 98 98 98 99 98 99 98 98 98 95 93 76 91 95 88 77 77 90 76 71 68 22 29 27 24 25 25 23 21
84 66 80 94 98 81 70 82 94 96 97 97 93 97 98 98 100 99 99 95 98 93 97 92 98 97 91 86 75 97 87 58 66 94 84 77 72 36 33 25 29 25 28 30 29
72 71 53 62 66 71 83 93 92 96 94 98 98 96 99 99 98 99 90 79 95 82 72 87 88 89 77 81 79 89 93 78 76 92 94 62 46 35 31 31 32 32 33 32 31
59 43 48 66 71 75 84 96 96 97 97 98 98 96 97 99 96 94 96 95 91 82 78 78 88 97 90 93 89 78 73 77 71 77 75 54 48 28 38 37 37 41 44 43 38
47 41 45 59 74 82 95 96 97 98 94 88 85 94 94 97 92 91 87 91 87 80 74 77 76 100 95 98 96 92 90 79 73 68 84 89 33 39 42 43 48 52 53 51 52
48 59 66 69 88 96 97 100 98 89 83 88 85 78 87 84 89 85 80 92 92 86 82 81 82 97 87 90 90 96 80 78 68 80 91 97 45 39 44 58 77 83 83 83 86
52 50 65 78 92 94 99 85 70 73 66 74 83 73 83 85 80 79 79 92 87 83 85 80 80 96 99 95 98 97 94 86 79 78 81 86 45 50 54 70 81 92 95 97 99
42 47 56 84 100 99 100 99 96 91 82 72 80 74 75 72 73 80 72 82 77 83 86 77 71 70 74 75 79 90 81 87 92 91 83 66 37 44 56 79 80 92 91 88 86
43 45 68 80 99 99 99 99 97 95 87 76 86 76 70 79 79 86 78 83 93 83 85 90 78 82 80 87 88 86 83 82 87 92 81 47 50 62 76 91 83 92 93 86 90
56 58 72 68 94 96 82 90 86 88 84 87 84 81 73 73 73 76 77 81 92 91 90 86 88 86 70 75 78 82 84 81 80 76 76 61 70 79 89 87 87 89 85 87 98
55 65 72 86 93 81 96 91 88 91 99 94 94 90 93 85 82 88 89 83 83 76 85 90 94 87 75 91 81 74 62 62 60 58 57 71 82 97 97 82 90 88 90 87 99

GFSSW_700_rhum_060.txt.gz
RH
9 8 7 8 9 10 11 12 12 14 12 7 4 13 51 98 86 65 25 24 24 24 22 22 23 36 34 35 44 49 45 40 35 33 32 29 29 28 28 27 33 38 39 38 35
9 9 10 11 12 14 16 16 16 15 15 11 8 5 44 65 79 65 46 32 27 28 24 21 22 52 41 37 48 51 44 40 35 34 32 31 32 28 27 24 29 38 35 36 36
11 11 13 15 18 22 22 20 23 21 17 16 12 6 12 91 45 15 78 37 29 28 28 22 25 48 42 41 46 45 40 37 35 29 29 30 28 27 27 26 29 39 36 34 39
14 17 19 28 33 45 46 77 94 88 41 20 16 12 10 97 76 68 59 51 32 28 35 30 23 45 72 51 46 41 42 42 33 29 28 26 26 24 23 20 31 39 40 37 38
20 22 30 68 98 71 95 91 92 90 99 91 29 26 8 99 42 82 62 48 34 28 28 44 41 54 82 51 50 46 42 40 30 28 30 26 22 22 17 16 21 36 42 42 42
31 78 59 70 71 72 78 82 80 79 76 92 97 44 13 72 53 100 72 72 42 29 31 48 86 47 66 52 48 51 44 42 29 24 24 25 22 19 11 12 16 26 41 47 48
100 79 80 78 71 63 67 67 70 73 78 80 86 91 31 31 72 70 88 74 73 35 30 38 74 80 59 59 57 70 69 46 34 28 31 28 21 13 11 12 13 16 34 52 60
95 89 88 83 79 74 59 60 62 65 65 70 85 86 63 28 51 88 95 90 73 51 47 55 77 84 89 71 63 62 73 73 37 31 33 36 24 23 17 17 12 12 15 38 54
96 92 92 80 76 77 77 79 71 70 70 80 95 93 80 43 54 97 100 87 77 79 73 90 90 92 87 93 93 99 83 72 67 39 38 35 35 32 26 26 20 15 14 18 29
95 93 93 88 82 88 84 82 72 70 71 74 89 96 68 42 66 99 93 73 100 88 99 98 99 98 96 99 96 94 96 70 46 35 47 47 54 36 32 29 21 15 11 12 14
99 98 83 70 64 54 67 79 71 70 80 76 71 62 88 50 67 96 93 63 98 100 93 90 99 98 80 99 94 76 77 72 56 62 63 60 64 38 30 30 24 19 14 14 12
54 38 48 51 52 55 68 81 77 90 76 93 80 66 95 100 85 84 96 72 74 93 96 98 99 99 94 100 100 93 92 85 78 75 74 65 61 44 25 27 28 31 27 25 25
30 29 31 34 38 62 87 98 91 88 96 80 76 78 94 99 98 99 99 85 70 80 95 99 98 95 99 100 99 99 92 84 82 80 75 66 55 34 27 33 32 30 30 33 26
77 77 72 68 85 97 94 96 95 98 95 88 70 82 96 98 98 98 89 96 81 87 97 98 91 99 87 99 99 99 88 85 81 87 78 65 67 33 28 25 19 30 28 25 22
94 85 84 81 86 96 97 83 100 97 97 98 98 86 99 98 94 99 92 100 84 98 98 99 97 100 99 94 98 91 86 84 81 82 77 69 58 28 19 25 24 25 26 31 23
72 67 67 62 81 79 70 77 88 89 92 99 91 93 97 98 99 98 99 100 99 92 93 97 99 100 100 99 99 85 85 82 76 69 75 63 54 21 35 36 34 34 32 30 25
47 45 44 53 66 67 68 71 81 95 97 93 83 86 98 100 98 99 97 98 96 97 98 99 99 99 98 100 99 95 87 74 68 84 77 73 68 24 37 36 35 32 29 26 24
45 42 37 39 54 61 75 90 96 97 97 100 58 91 98 98 99 100 99 98 96 90 92 93 100 99 99 94 86 98 91 62 61 88 72 75 70 40 34 35 30 30 27 27 28
59 63 62 64 63 88 92 96 97 97 100 80 90 98 96 99 95 97 94 100 98 85 76 84 94 100 90 94 83 90 92 77 68 89 92 62 48 45 37 34 33 37 36 34 34
59 58 68 85 96 99 98 96 97 100 89 84 98 95 98 96 94 98 97 96 90 92 82 80 87 100 92 97 90 74 79 79 66 81 71 49 40 31 44 41 45 42 39 38 38
60 69 82 84 96 100 99 100 99 93 95 93 90 99 99 89 94 90 89 87 82 86 82 71 70 99 97 99 93 88 85 72 63 62 78 78 31 34 46 55 46 50 52 50 47
58 77 98 84 97 100 100 100 90 92 74 93 85 80 93 85 93 82 75 80 90 86 73 70 79 95 95 93 90 93 77 70 62 80 80 91 42 41 50 53 54 69 76 77 77
46 67 94 75 88 97 88 78 74 68 65 68 72 69 78 76 87 73 73 78 87 77 80 73 87 93 95 92 97 99 94 89 75 64 71 72 40 46 46 51 64 78 81 94 88
41 63 95 99 98 81 91 90 81 70 68 70 74 77 74 72 69 76 76 83 88 88 86 77 71 69 74 74 81 93 88 92 86 85 78 58 40 49 52 63 76 78 89 89 82
50 68 83 93 99 100 86 92 78 73 78 80 82 80 72 73 75 74 74 76 83 89 89 79 72 72 76 81 86 82 81 84 88 82 77 55 46 60 75 82 83 81 93 87 89
57 70 84 93 87 87 86 94 88 86 78 92 85 80 74 68 73 65 68 76 69 84 90 89 76 82 76 78 83 80 84 88 82 79 76 64 60 82 87 92 82 88 92 90 92
55 72 77 82 82 75 84 93 95 86 89 84 82 84 86 89 81 80 85 82 84 78 93 87 81 84 77 90 84 75 67 68 67 62 62 66 75 88 83 84 81 83 90 96 99

GFSSW_700_rhum_063.txt.gz
RH
21 17 13 12 12 12 13 13 13 13 11 11 14 12 6 7 26 25 26 34 30 28 24 26 24 61 70 48 56 50 44 40 27 24 24 23 25 27 26 27 25 26 39 37 38
13 15 15 15 15 18 20 23 24 21 20 19 15 17 12 6 8 7 44 74 42 32 27 25 24 43 86 52 62 58 48 40 34 30 29 29 31 31 29 27 26 26 36 39 37
14 15 18 20 20 30 46 59 45 38 55 51 29 18 20 10 8 6 43 69 64 34 29 29 33 33 77 68 58 56 48 45 43 40 38 39 39 37 31 26 25 28 30 38 38
19 21 31 30 39 43 85 100 83 92 95 92 90 44 35 18 50 40 28 33 78 40 31 36 43 58 74 58 55 48 50 47 43 41 39 36 34 38 30 25 29 34 37 37 35
24 35 76 92 78 74 84 78 79 83 83 77 79 94 99 36 15 69 76 61 68 52 30 35 29 60 78 77 62 59 56 53 39 38 34 32 30 40 24 22 25 27 36 37 36
42 82 100 99 79 88 81 68 73 62 62 67 69 80 97 64 26 86 100 78 76 64 32 53 45 39 82 91 67 73 64 60 44 33 33 32 28 30 19 20 18 19 26 37 38
58 93 90 91 93 95 86 79 55 52 53 64 76 85 83 65 37 58 100 97 73 67 35 38 65 58 42 88 69 72 72 57 49 32 35 35 28 19 20 18 14 15 18 31 39
91 93 92 92 91 85 74 60 65 59 51 61 71 84 71 64 60 52 58 90 94 84 38 42 74 90 82 76 66 74 94 76 40 30 36 36 25 28 22 16 12 12 13 18 40
66 88 94 86 88 80 81 59 70 62 58 69 86 96 76 76 59 71 80 85 90 84 47 66 95 94 100 86 85 89 84 80 64 41 41 35 33 26 25 26 18 13 11 12 15
34 84 86 50 62 64 57 52 67 69 60 65 77 88 71 72 54 99 95 87 97 92 75 94 98 97 99 96 88 87 93 69 56 48 40 36 32 30 31 25 21 18 15 12 11
28 33 31 29 34 49 91 61 60 71 65 74 76 68 71 70 66 97 100 100 89 100 95 96 98 98 88 97 85 75 64 60 35 46 46 50 59 43 36 21 16 15 15 13 13
71 81 94 97 70 35 58 55 72 90 79 78 76 69 74 89 76 77 99 99 79 99 95 97 98 95 100 98 99 82 69 74 73 64 57 65 63 42 34 22 21 22 22 21 16
70 84 68 75 90 92 96 93 93 96 92 71 77 75 78 95 99 92 98 99 94 99 97 99 96 99 98 99 99 99 82 84 81 80 78 72 62 41 36 31 28 27 26 23 20
56 68 78 78 70 70 77 98 97 97 96 85 87 81 83 96 97 97 99 98 98 99 99 99 98 95 99 99 99 99 99 91 86 85 78 65 62 37 38 33 31 24 23 25 25
27 30 37 59 77 74 73 77 85 94 93 97 91 81 94 97 100 94 97 98 77 91 99 97 99 93 88 98 99 98 97 96 82 80 78 70 63 41 31 32 28 27 28 34 30
34 36 40 49 60 64 66 76 99 93 96 95 81 97 97 97 99 95 98 94 82 77 93 87 99 99 98 98 98 96 96 87 82 75 73 65 58 32 37 35 35 35 33 31 30
60 65 54 72 95 89 95 95 96 95 94 73 63 93 95 98 99 99 96 96 94 99 98 98 100 84 99 98 100 95 84 75 72 79 66 68 66 37 45 43 40 36 34 32 29
62 77 94 97 97 97 96 91 92 98 100 97 84 92 98 98 98 95 99 99 98 88 93 97 98 99 99 92 86 96 85 69 58 71 62 73 68 42 42 40 40 38 36 32 28
72 83 87 94 98 92 86 97 98 86 67 81 95 96 99 98 96 98 93 82 96 98 93 86 99 100 99 98 91 98 94 76 62 81 84 60 53 53 43 43 49 46 40 36 34
75 79 83 83 95 98 98 98 100 82 59 80 97 97 98 99 96 95 96 98 96 84 74 79 97 99 96 97 94 82 79 74 64 75 65 48 41 44 54 65 61 54 48 44 43
72 71 82 84 82 94 95 96 82 76 59 88 82 94 86 95 84 91 93 99 91 88 67 70 75 99 98 98 91 85 81 68 59 57 61 56 30 34 58 61 54 53 51 50 49
70 65 73 76 87 84 90 90 92 75 85 95 89 82 83 90 88 78 89 83 82 77 74 70 76 97 97 97 87 87 74 63 56 73 70 72 40 39 59 52 49 50 52 65 58
57 66 67 61 75 85 86 86 86 78 76 90 88 78 76 78 79 72 64 80 84 83 76 68 73 96 97 89 91 95 85 79 68 62 64 61 38 46 47 47 53 53 53 73 74
56 70 76 66 76 70 74 81 84 76 73 69 72 76 78 68 64 71 67 77 92 81 70 65 62 64 72 69 75 85 75 80 81 73 67 47 50 51 53 52 57 64 73 78 90
55 74 65 86 80 79 78 84 76 80 76 75 77 73 70 64 72 77 72 70 92 87 81 74 66 66 68 75 80 79 80 80 85 78 69 56 48 48 71 75 77 83 84 92 96
60 75 76 82 81 76 72 80 75 78 74 78 79 77 73 68 74 69 66 70 70 84 89 85 71 72 77 77 78 77 81 83 76 81 75 64 54 80 78 88 87 90 91 94 98
57 69 75 82 80 75 79 82 86 79 84 84 81 82 81 78 77 75 75 76 78 66 84 90 82 71 78 88 89 84 68 70 70 67 62 66 66 84 85 84 82 86 86 96 98

GFSSW_700_rhum_066.txt.gz
RH
19 17 17 16 17 18 19 20 21 21 20 18 13 12 13 14 11 13 14 10 60 40 28 25 28 39 84 60 58 38 60 49 56 60 50 50 30 25 25 27 25 24 28 36 35
19 17 18 20 25 26 42 47 52 52 49 39 27 21 18 17 14 12 12 21 65 58 30 27 27 36 78 76 67 57 59 47 46 54 47 32 26 24 24 26 25 25 23 31 36
19 22 24 24 31 49 53 68 97 98 95 94 90 64 31 22 16 13 15 19 57 82 38 31 30 40 76 86 71 62 68 58 52 42 31 33 32 28 29 28 29 27 25 26 37
24 22 25 53 87 100 100 90 67 95 94 91 92 93 90 68 44 51 27 16 82 93 58 34 32 52 68 85 83 63 59 72 60 45 40 36 43 39 35 45 30 26 26 26 38
17 31 28 51 100 98 86 93 88 75 92 86 80 76 85 90 35 53 63 37 55 83 80 38 34 46 72 96 98 70 94 62 62 52 50 46 47 52 39 35 29 29 30 30 34
19 40 35 80 84 87 88 94 89 85 90 65 77 68 74 78 49 95 98 90 56 36 98 50 43 45 94 99 98 94 99 73 64 54 55 44 42 42 35 32 28 28 28 32 36
25 29 56 90 94 93 88 83 68 54 53 58 61 76 72 41 57 74 99 100 100 51 80 59 55 58 86 100 95 100 85 92 64 52 49 44 36 29 35 31 25 23 22 25 32
43 54 59 63 87 85 84 79 75 65 64 64 66 69 53 49 62 64 96 97 100 100 100 61 57 79 91 100 98 99 99 96 56 41 46 43 25 39 30 24 23 22 19 18 20
57 61 65 69 50 42 70 77 56 54 67 64 70 71 57 60 64 57 57 98 99 99 94 55 82 96 82 94 100 100 74 77 82 36 55 39 44 55 31 20 20 16 15 13 13
40 78 97 94 96 66 33 70 63 53 55 67 68 71 62 61 61 58 46 97 99 99 86 64 96 99 97 95 75 76 75 78 71 52 47 68 56 45 29 22 20 19 16 12 11
40 97 82 78 86 87 97 50 69 66 57 78 76 79 69 62 64 64 62 100 100 99 99 79 95 99 99 88 71 62 80 77 79 64 50 68 74 44 38 32 24 20 18 17 16
29 47 67 72 75 72 91 78 82 84 76 86 86 74 78 69 76 87 86 99 92 99 97 90 90 91 99 89 98 85 80 74 61 82 55 74 70 49 37 25 19 15 14 12 12
31 27 34 50 57 63 63 99 97 96 91 79 82 71 69 78 90 98 98 99 90 98 95 94 99 95 99 99 92 91 70 71 75 72 74 63 58 47 41 33 26 22 18 15 14
41 43 52 76 51 49 53 76 98 92 97 93 91 72 66 81 93 98 97 99 100 99 100 100 95 92 96 99 99 94 88 90 79 81 66 73 39 51 48 42 37 33 30 28 23
63 76 74 92 88 88 82 71 88 98 88 96 87 85 72 86 97 98 99 100 100 98 97 98 93 98 98 98 99 99 100 95 90 86 75 69 56 54 41 35 36 34 29 26 26
66 80 97 99 95 92 95 95 96 91 90 86 95 99 77 91 69 97 99 88 94 96 98 97 98 99 96 99 100 99 100 99 88 77 78 66 62 44 44 42 36 38 38 36 34
75 85 92 91 98 95 95 92 97 90 85 78 84 91 96 93 99 96 100 88 94 96 98 98 99 98 99 99 99 98 98 96 87 81 57 59 68 47 42 40 41 40 39 37 34
82 85 83 63 64 67 54 59 82 99 96 93 83 85 98 94 93 99 98 85 89 73 95 97 98 100 98 94 92 99 88 63 60 59 44 67 55 47 46 47 45 43 39 35 33
78 76 70 57 58 50 45 57 98 75 75 96 97 97 99 71 97 83 87 89 86 80 85 90 98 98 98 96 90 90 96 65 51 67 56 46 53 52 45 49 48 43 39 36 32
69 75 67 48 51 58 54 70 74 75 74 94 99 99 100 99 91 98 94 91 91 87 75 88 97 100 99 98 95 91 80 71 61 67 51 40 43 44 57 60 56 57 53 49 47
60 62 74 60 50 53 64 93 81 84 90 100 91 100 99 91 86 82 87 96 82 74 71 69 77 100 97 96 88 80 86 64 63 56 40 30 25 46 58 66 67 60 55 52 52
60 58 67 67 65 74 95 96 99 96 96 93 91 86 77 76 78 74 87 85 87 81 71 60 90 98 95 89 83 83 74 64 69 76 66 67 37 47 65 63 54 54 54 53 56
52 62 58 67 64 66 80 87 95 90 80 77 83 82 78 76 73 71 74 82 78 74 70 65 72 95 96 94 93 92 78 69 58 56 67 51 40 57 62 58 55 54 52 54 67
50 62 65 59 62 62 61 70 78 80 80 78 80 79 78 70 70 68 69 80 81 79 68 61 62 64 65 66 71 80 70 69 71 67 68 60 53 51 56 59 60 63 68 74 80
49 57 59 70 66 64 64 69 70 77 78 77 80 76 74 66 61 69 68 72 89 80 72 67 60 62 66 68 75 76 73 72 76 71 61 58 47 57 56 60 75 78 79 85 90
55 59 65 73 77 75 77 77 73 70 68 73 72 72 69 66 72 75 66 66 79 85 79 72 67 68 74 79 80 80 79 80 81 85 71 62 47 51 78 80 83 82 84 87 90
56 59 66 66 77 75 75 80 77 75 79 76 74 73 74 75 72 75 74 74 69 65 78 77 72 67 83 79 82 75 66 66 68 64 64 66 56 78 88 83 78 81 83 88 96

GFSSW_700_rhum_069.txt.gz
RH
32 25 22 23 23 25 31 36 38 39 72 68 31 20 15 13 10 12 11 13 11 55 43 30 25 32 58 74 65 74 68 58 52 47 43 42 49 53 49 42 38 37 34 45 42
47 43 32 36 38 33 38 49 57 63 76 78 73 68 32 21 16 11 13 14 15 58 56 33 28 41 59 73 69 79 67 50 51 50 46 50 50 53 46 34 37 34 33 30 37
54 31 30 27 48 62 87 88 92 87 84 99 94 97 93 50 31 18 14 13 16 47 76 36 92 72 58 85 77 59 67 58 43 43 51 55 54 46 44 38 33 36 37 23 26
48 41 46 59 35 52 90 96 86 88 90 89 94 86 93 97 66 59 33 20 17 36 68 56 50 83 63 75 96 82 54 64 56 54 49 51 46 43 46 38 40 38 41 27 22
38 48 46 42 76 88 93 86 83 87 90 82 93 95 95 93 43 56 73 42 16 40 72 89 41 98 98 94 99 99 77 80 76 82 58 55 48 49 51 50 47 36 29 27 24
35 65 52 76 89 74 83 84 85 89 82 87 92 85 84 56 62 64 98 72 27 55 78 99 75 78 99 92 96 99 95 94 89 85 66 58 64 66 52 58 46 36 30 25 24
22 34 58 61 56 66 70 79 80 87 74 64 61 76 68 48 53 64 80 100 91 46 73 98 100 92 100 94 97 95 98 94 91 84 77 65 65 44 52 48 53 34 29 26 26
23 26 43 73 81 83 74 48 76 73 73 76 73 80 59 51 52 45 54 97 100 100 98 100 100 99 96 99 99 95 92 89 96 91 84 60 40 52 45 40 35 45 44 26 25
22 25 79 88 89 86 83 71 48 71 61 74 77 82 70 50 41 49 46 84 99 96 96 86 99 69 97 99 99 97 92 76 68 81 84 52 42 43 46 48 31 42 45 36 23
25 29 98 89 73 84 82 90 92 69 62 63 73 82 63 66 48 54 46 64 99 99 99 78 98 82 97 95 99 81 78 59 61 78 79 70 55 58 59 45 26 47 48 41 18
40 38 50 50 70 72 73 79 95 70 78 75 89 89 90 63 48 53 52 96 95 98 100 99 99 80 78 68 80 57 59 53 55 66 76 67 60 62 62 36 27 24 39 46 17
53 65 82 81 70 56 64 80 93 90 97 81 79 75 74 73 51 49 78 60 98 93 99 98 83 92 96 99 83 78 53 51 58 65 66 66 63 60 68 63 29 22 39 43 39
51 66 90 93 90 91 57 76 100 97 94 78 79 79 75 72 61 67 84 90 92 98 98 91 87 98 92 99 99 90 64 53 60 76 85 67 62 64 66 51 32 19 15 15 14
56 81 96 92 90 94 71 64 75 72 92 99 96 89 74 72 82 75 97 94 98 98 95 88 93 96 100 98 99 92 64 56 62 76 54 63 31 45 52 38 22 21 20 17 16
77 86 100 78 85 82 75 67 66 74 76 94 96 89 83 80 85 89 80 98 97 97 99 99 86 99 94 97 97 99 86 71 75 66 67 74 58 48 50 52 45 45 34 30 27
78 93 81 57 63 71 66 78 80 93 82 96 100 93 82 91 97 92 83 98 96 97 99 93 99 94 99 98 98 92 95 90 88 82 81 56 52 50 51 54 62 50 37 32 29
68 82 64 44 53 56 55 64 90 87 84 89 86 93 97 97 97 94 97 97 96 98 97 100 100 100 98 100 99 99 98 98 98 94 58 61 62 42 45 55 57 62 43 38 36
59 65 52 44 44 58 59 58 84 86 70 74 93 100 94 95 97 99 98 98 96 91 95 97 98 98 98 98 98 99 98 97 72 62 47 68 58 47 50 44 65 46 41 41 39
54 59 45 55 40 48 55 73 91 89 91 87 91 98 96 97 93 74 71 76 88 97 94 96 97 98 98 98 98 99 97 73 61 56 43 44 47 52 48 49 45 45 42 39 37
54 63 53 40 46 46 50 89 83 73 97 98 99 88 98 90 88 84 89 76 81 73 73 84 94 98 97 98 92 98 96 76 68 61 47 35 35 38 49 49 47 44 42 39 38
50 57 71 64 58 55 76 100 100 98 91 95 96 89 84 80 76 80 88 84 77 74 69 76 85 98 95 98 93 88 90 72 67 56 42 32 26 44 42 63 61 51 52 54 52
43 58 64 68 60 59 76 92 91 92 92 96 94 86 82 78 78 83 88 90 70 75 80 73 96 96 98 87 87 92 82 70 73 70 60 66 42 55 65 75 65 62 56 53 53
44 60 60 62 64 64 68 79 83 76 77 84 95 94 86 84 79 84 80 83 81 74 83 65 86 95 94 86 79 82 81 79 67 55 64 48 44 58 71 66 58 54 52 51 51
42 52 63 65 62 63 65 73 76 72 75 72 78 74 81 78 73 70 63 74 71 70 68 63 76 75 66 74 80 82 79 72 67 68 60 55 48 53 67 65 60 56 48 54 61
44 58 60 64 67 70 77 95 97 81 74 69 79 83 81 78 79 71 64 64 71 77 70 67 63 57 61 63 72 69 69 70 65 67 61 55 51 54 62 65 71 55 65 76 82
44 65 65 63 70 74 77 75 90 72 70 76 81 70 82 83 71 89 67 86 86 82 80 68 65 57 61 64 65 66 72 73 68 75 77 70 60 65 64 62 72 81 80 80 83
41 56 65 64 69 72 68 71 74 73 77 73 71 76 66 67 69 72 75 72 70 82 89 86 72 66 84 70 86 84 63 78 74 61 75 80 58 70 67 82 80 80 76 79 83

GFSSW_700_rhum_072.txt.gz
RH
52 64 72 48 54 55 90 88 80 84 87 74 83 96 71 33 16 11 11 11 12 13 44 58 32 27 52 67 76 66 98 94 78 70 52 44 45 45 46 42 35 35 35 53 45
28 47 35 64 40 42 46 46 98 99 97 98 99 99 94 71 36 18 18 13 12 19 45 65 39 28 50 59 99 92 82 72 59 62 55 45 52 54 50 46 40 40 37 36 47
28 29 34 50 46 54 71 77 78 91 74 74 79 76 78 96 80 56 27 20 15 16 49 59 68 36 43 74 89 94 65 38 41 55 51 56 59 53 52 49 41 40 37 34 38
25 21 33 58 40 67 85 87 82 75 71 72 76 80 77 94 80 76 60 26 18 16 48 79 62 98 68 72 73 83 58 63 52 58 49 56 55 50 45 44 38 36 35 35 29
24 16 17 19 30 56 72 72 67 67 68 69 72 84 93 97 71 100 98 76 30 15 46 83 68 98 82 84 92 95 77 74 60 82 56 51 50 53 48 42 44 37 35 41 34
24 17 21 20 32 59 73 71 72 67 63 72 76 92 96 92 90 98 95 93 47 16 48 71 80 62 99 92 92 91 92 83 68 89 70 61 55 49 37 50 48 43 41 38 35
21 21 27 27 72 85 86 84 86 60 59 67 76 78 82 74 96 84 67 99 90 41 27 74 95 91 99 88 87 88 90 83 86 84 84 65 58 43 39 53 56 48 42 37 34
24 36 42 45 80 79 89 94 92 54 57 61 74 75 68 71 67 51 46 70 99 99 29 71 99 88 86 91 87 97 97 98 94 77 89 72 53 54 49 54 56 56 44 37 32
30 46 53 69 86 73 92 84 92 89 58 58 66 74 67 56 55 44 39 46 98 100 98 94 99 89 90 92 94 84 96 85 88 78 86 81 55 56 53 47 47 45 44 49 42
33 47 63 85 87 81 70 58 74 96 61 66 67 76 70 71 56 39 36 46 56 99 99 99 98 95 89 94 96 76 89 75 68 76 77 69 57 64 58 50 43 36 36 38 43
42 57 76 88 79 82 78 59 85 84 94 68 69 78 94 80 55 55 61 58 67 95 99 100 99 97 69 64 84 92 79 71 65 60 74 80 73 53 58 48 43 33 40 47 39
62 72 77 74 75 83 73 70 89 89 97 89 88 81 84 94 64 59 69 68 57 86 97 99 94 75 95 85 92 88 82 75 57 64 74 75 75 71 57 50 46 34 25 38 48
65 66 50 49 68 88 67 70 81 90 86 85 83 83 97 82 58 67 84 74 49 93 97 96 91 97 95 92 95 92 80 73 56 84 76 66 67 67 58 57 56 32 23 20 26
60 58 33 37 48 68 61 60 64 70 98 95 97 89 83 76 67 69 54 72 64 85 100 100 93 92 94 87 91 80 64 77 63 73 71 62 57 42 55 57 51 34 17 16 18
57 45 28 32 41 54 62 61 61 80 91 91 80 73 83 74 84 55 51 90 92 84 98 99 96 94 86 88 98 96 75 83 95 72 62 67 61 38 42 56 46 29 29 22 16
54 44 31 42 30 43 71 76 80 90 95 97 97 96 97 100 97 74 94 96 97 95 95 97 98 98 94 88 98 96 82 95 98 75 85 66 59 52 51 50 48 44 35 28 26
52 41 32 46 39 44 64 79 91 92 90 93 96 99 87 100 79 68 93 97 98 98 97 100 100 100 98 100 99 98 99 99 98 98 85 58 64 43 45 47 47 46 44 40 36
47 46 42 36 43 44 54 85 88 96 97 99 91 89 85 88 60 79 96 100 99 96 98 96 100 100 100 99 97 88 94 97 89 90 68 61 62 49 47 48 55 61 56 43 38
46 49 39 37 43 46 46 89 100 99 95 76 63 91 96 90 95 96 98 98 96 98 87 89 100 98 99 99 99 98 99 91 76 51 63 59 55 55 47 48 51 51 43 44 43
41 49 48 49 50 51 51 100 100 92 95 91 89 85 88 92 93 91 77 99 83 78 84 83 94 100 98 97 99 98 99 98 83 82 71 48 46 44 48 53 47 47 42 43 41
38 47 55 56 58 45 65 91 99 99 92 81 80 85 73 72 75 81 80 88 80 73 83 86 88 98 98 97 95 97 98 90 82 59 80 65 41 42 36 40 44 44 46 41 39
40 49 54 54 52 61 83 84 80 95 94 94 86 80 78 77 82 80 89 74 74 80 80 83 81 96 100 91 94 97 98 81 71 72 53 58 52 54 46 50 60 58 46 50 52
41 48 50 59 55 55 74 81 77 81 83 93 94 88 81 78 78 87 72 73 74 75 81 73 83 92 94 82 78 81 79 80 71 66 60 78 55 60 68 76 70 61 61 56 54
38 50 54 53 59 60 68 99 99 75 75 80 83 82 77 78 71 72 66 76 75 72 68 66 79 84 81 82 77 73 74 78 72 53 62 48 50 66 71 66 62 62 57 51 47
36 53 59 61 64 87 98 96 100 85 76 72 86 81 80 76 78 75 60 61 63 68 68 69 67 56 68 58 61 57 65 77 68 62 59 53 52 53 68 64 62 68 54 49 60
28 55 60 65 64 79 73 100 98 95 76 96 96 84 88 79 75 87 67 76 87 66 74 65 68 54 52 49 55 54 64 70 76 63 58 63 57 56 56 65 67 62 51 76 79
17 27 46 71 68 85 78 70 83 97 96 79 73 93 81 64 65 70 74 75 73 73 81 77 70 58 83 66 71 76 55 57 63 55 52 57 54 63 65 65 63 65 82 82 79

GFSSW_700_rhum_075.txt.gz
RH
37 19 26 23 27 33 33 27 28 30 55 40 57 87 91 84 62 85 36 12 11 21 30 46 41 30 32 43 56 60 91 91 93 71 60 68 71 68 63 40 36 37 36 39 51
16 18 13 15 31 29 24 31 45 57 58 53 47 57 86 93 86 68 72 49 13 16 39 54 51 32 39 50 70 79 80 65 53 55 68 77 86 73 66 48 36 40 39 36 57
15 17 15 23 23 20 20 26 57 73 74 72 64 60 75 68 68 55 85 80 30 13 29 56 74 36 45 73 96 91 62 47 57 54 79 76 81 73 73 54 41 45 43 38 46
16 20 22 29 32 29 27 34 46 65 66 64 72 70 69 86 70 58 70 76 67 21 16 59 68 51 41 66 82 90 62 53 56 71 74 63 59 78 79 55 47 46 42 39 35
17 21 28 40 45 47 79 89 84 70 80 63 61 71 74 90 59 91 99 82 89 27 16 60 79 72 55 67 80 80 86 79 60 72 67 60 55 60 65 47 47 42 40 38 36
16 22 36 47 56 93 97 98 97 89 79 63 66 76 80 76 83 92 94 98 99 66 18 71 96 79 83 62 69 77 84 83 74 81 56 66 55 61 55 46 43 42 46 38 36
18 30 44 55 81 100 96 95 96 96 90 57 75 74 79 84 92 84 98 91 99 98 22 69 99 99 91 78 69 88 84 79 84 77 75 64 60 50 55 52 48 41 51 49 43
36 53 66 69 84 92 89 85 96 95 89 55 72 78 71 77 78 68 60 77 93 79 59 72 99 95 86 90 89 97 94 95 80 90 83 70 56 47 48 49 49 46 41 50 45
58 61 61 48 46 79 80 71 62 76 95 62 77 67 60 65 59 57 53 52 70 98 98 86 100 98 80 99 85 96 94 77 90 88 81 71 63 56 51 46 50 55 48 45 48
52 53 42 33 40 70 57 44 66 68 94 60 73 60 65 78 61 49 47 41 46 95 97 72 96 99 93 98 93 81 96 94 80 78 74 72 64 61 65 50 46 51 54 50 44
47 39 29 32 36 43 42 39 56 69 94 78 62 66 59 84 72 63 52 68 76 76 98 74 100 97 76 75 87 84 86 86 75 74 75 71 67 53 56 62 57 43 39 41 42
40 25 26 30 39 39 35 31 52 63 84 79 74 76 82 75 67 58 78 84 98 57 97 71 98 98 91 82 89 81 81 76 69 68 71 70 60 57 62 47 55 53 45 43 32
35 24 34 28 38 44 34 38 41 46 62 76 82 76 72 73 69 66 73 90 75 55 94 98 99 99 92 82 80 84 95 80 71 68 74 80 77 76 58 56 49 45 43 39 30
35 24 37 29 38 48 55 48 54 60 72 87 86 86 82 73 70 53 59 63 60 53 77 98 97 96 99 94 86 86 89 86 96 84 94 83 73 60 48 44 54 49 39 36 30
36 28 37 38 33 47 58 69 76 74 94 96 79 74 73 81 71 50 52 50 80 51 89 86 91 98 93 88 92 96 99 97 96 96 87 73 70 52 40 46 29 33 35 24 23
42 33 34 42 43 43 57 61 82 81 94 97 98 96 91 89 96 59 57 92 96 75 89 99 85 93 98 95 95 80 73 87 100 99 98 72 68 37 27 28 39 44 43 41 23
42 41 36 39 43 46 47 54 70 90 93 98 100 99 99 98 91 86 89 96 93 98 98 99 100 99 94 99 98 91 90 99 98 98 91 63 72 37 41 30 36 40 48 40 30
39 50 51 44 47 46 50 49 74 95 93 93 97 98 85 87 82 91 94 95 97 98 97 97 98 98 91 88 98 98 98 95 92 95 79 67 70 59 42 48 50 51 51 45 35
35 47 45 49 52 46 36 62 99 100 93 85 88 98 92 77 92 98 98 98 98 82 87 84 98 98 98 97 86 100 100 94 90 64 65 63 64 59 52 48 46 48 47 49 45
34 40 47 50 56 51 42 86 91 90 88 84 93 94 97 94 98 97 95 97 88 82 87 86 98 94 99 100 100 95 97 98 97 95 84 66 58 52 55 54 48 45 46 48 43
32 38 46 48 51 52 63 77 88 92 88 90 88 86 82 84 83 88 89 90 95 95 84 84 83 100 100 99 98 99 100 97 92 95 86 78 48 48 46 44 48 53 55 48 47
32 38 43 49 53 57 89 87 74 86 90 90 80 83 80 79 80 79 88 86 93 87 82 88 86 99 96 99 100 100 98 94 83 96 60 62 54 38 43 46 54 60 61 49 46
25 39 47 45 50 61 95 98 98 89 83 88 86 81 80 73 73 74 75 82 80 67 73 76 87 96 98 96 98 99 95 91 90 68 58 69 58 48 42 53 61 59 52 49 56
17 36 43 52 55 95 100 100 94 100 85 91 83 82 78 74 72 64 68 73 74 69 66 68 74 77 73 72 73 85 85 92 82 62 65 51 56 60 61 55 70 75 67 66 59
45 20 36 51 59 94 100 98 97 94 98 93 95 89 81 78 78 72 63 75 72 68 64 61 59 73 72 61 58 60 68 74 75 66 54 52 54 48 56 64 71 66 62 58 52
36 44 27 25 50 68 100 100 99 97 93 87 94 87 79 79 78 74 69 76 70 62 65 64 59 56 53 53 52 50 54 63 71 71 60 56 54 51 55 69 67 63 55 53 51
3 8 32 41 22 45 75 99 98 98 97 98 83 79 84 76 69 70 81 79 84 70 71 71 61 56 80 72 68 72 51 51 52 47 55 60 55 53 66 69 64 63 58 58 79

GFSSW_700_rhum_078.txt.gz
RH
16 14 18 19 26 31 33 27 24 22 19 20 26 49 52 80 80 76 87 75 17 17 18 43 46 35 34 49 68 62 88 98 80 72 46 51 71 75 72 54 43 39 36 38 44
12 15 21 24 32 40 41 40 34 36 45 48 44 44 50 53 64 70 78 95 76 25 24 24 53 47 38 56 91 85 89 64 52 61 54 66 74 85 79 64 57 39 37 41 55
13 16 19 28 40 48 54 64 81 90 81 71 69 75 71 69 40 30 67 86 94 68 24 37 56 62 38 52 80 84 52 47 61 77 82 92 88 89 90 72 61 45 39 48 62
13 17 27 42 50 55 83 96 97 99 92 87 81 66 73 63 68 60 80 68 83 80 25 57 70 79 62 91 63 65 52 64 72 89 99 94 78 89 98 70 61 57 40 44 44
23 36 46 45 33 42 90 87 96 93 97 82 84 86 59 63 56 88 100 99 61 93 35 36 76 95 59 96 81 63 72 71 73 86 70 88 86 88 82 84 69 55 57 42 44
41 40 37 28 28 44 77 75 84 93 97 94 80 83 74 64 66 81 91 98 95 94 75 33 65 98 78 61 94 92 94 88 86 77 70 80 78 90 89 97 80 64 54 48 40
39 32 22 23 28 34 51 78 64 88 97 96 84 84 73 87 80 79 79 90 99 100 80 51 84 98 97 51 67 95 84 94 85 80 74 61 68 84 80 96 80 71 55 45 42
32 21 20 26 26 29 36 41 66 63 89 96 71 80 89 81 86 93 87 90 95 99 91 42 90 99 100 87 56 88 93 87 81 88 82 72 54 61 67 83 74 64 61 65 50
23 18 23 28 27 24 34 38 51 75 86 77 68 66 72 80 74 74 71 58 88 96 99 42 100 97 99 99 88 76 83 90 72 75 72 72 58 51 56 84 63 61 51 49 49
21 22 26 31 30 24 27 43 52 60 78 78 68 57 78 82 70 55 66 58 67 87 98 56 99 98 97 99 92 95 97 87 83 83 92 86 74 65 54 54 59 63 57 50 47
23 24 30 34 32 29 26 31 45 57 72 62 63 67 73 70 68 69 63 60 57 76 97 86 98 98 79 93 94 91 93 76 80 83 88 88 81 66 58 48 44 43 48 56 48
25 22 32 29 41 41 34 36 30 42 58 66 66 63 66 72 82 74 74 89 71 66 97 67 91 99 93 89 95 78 87 78 80 74 81 72 60 56 49 48 51 46 44 49 57
27 27 35 40 46 50 55 46 44 45 62 72 65 76 79 72 74 91 78 85 64 56 94 83 63 98 99 99 96 93 76 70 65 71 83 76 77 68 47 46 51 52 47 44 46
32 31 34 39 50 50 59 67 52 55 65 88 79 77 76 70 64 65 70 60 62 60 58 96 72 82 94 96 97 100 93 88 77 81 81 82 85 54 46 48 52 42 52 43 49
32 37 39 41 45 49 54 63 67 75 88 97 92 50 70 71 60 46 46 50 51 69 63 93 90 86 96 96 88 91 87 97 89 87 88 87 82 69 53 47 34 26 35 52 48
31 39 40 43 41 46 50 56 70 75 90 97 97 94 68 58 71 62 49 46 72 93 69 97 83 99 97 100 94 84 78 88 95 93 98 77 88 60 47 36 30 32 27 38 46
30 40 46 41 37 37 45 50 67 89 94 97 98 98 98 92 95 71 45 76 91 96 91 96 98 91 90 97 99 99 90 98 99 98 93 72 79 64 43 36 33 30 26 32 32
31 38 46 42 41 36 48 44 68 93 100 100 98 97 95 95 95 96 77 97 92 97 100 98 98 98 98 97 97 100 91 81 90 96 82 72 80 64 46 37 40 28 42 34 47
30 35 41 44 48 45 45 54 100 100 95 98 100 100 93 97 96 97 95 95 88 91 98 96 99 100 100 99 87 99 96 84 83 74 76 69 66 57 42 40 40 45 55 57 54
27 34 35 39 48 49 50 73 91 97 88 84 90 89 98 99 99 98 98 98 100 97 98 84 96 99 100 97 94 98 91 99 99 96 89 68 66 52 42 41 40 37 49 53 55
17 31 37 39 44 48 54 81 85 88 84 82 81 82 83 90 91 96 94 99 97 92 81 66 76 100 95 92 93 98 100 97 91 91 94 87 57 48 47 47 42 42 43 48 51
29 26 30 39 42 46 62 89 87 86 87 89 82 84 81 78 76 81 92 98 98 96 90 89 88 99 100 97 100 98 100 100 87 96 77 66 54 40 46 52 51 49 52 53 56
15 25 30 33 30 37 67 84 96 99 94 90 87 86 82 74 73 74 87 93 96 98 92 95 98 96 99 100 100 100 93 92 89 82 83 77 57 41 35 43 54 59 61 61 57
6 9 13 26 32 36 40 76 93 97 89 86 88 83 80 79 67 72 79 78 75 74 81 79 81 72 73 69 84 98 90 94 90 87 66 63 52 47 36 38 55 70 72 62 56
5 5 6 19 29 31 37 50 82 93 96 93 94 89 82 81 77 64 69 75 75 70 68 66 64 75 72 76 76 75 75 90 96 82 67 59 48 38 46 40 48 54 57 59 64
5 5 5 9 21 35 38 46 57 96 99 87 94 90 77 85 78 71 64 67 61 58 65 62 56 57 56 54 51 52 64 80 82 85 80 61 51 47 45 58 66 66 68 67 62
5 5 4 6 11 28 46 50 61 81 88 96 91 88 78 82 78 74 72 78 78 74 66 70 62 51 57 69 69 63 35 44 55 69 71 70 56 49 45 56 70 66 62 59 56

GFSSW_700_rhum_081.txt.gz
RH
10 11 15 18 26 35 34 37 47 53 47 34 26 31 40 51 85 98 98 77 92 21 17 36 39 45 37 39 64 63 95 99 90 82 64 68 57 49 51 56 49 61 48 42 34
16 17 23 32 33 26 31 38 76 99 98 91 67 54 68 64 55 75 89 100 94 88 19 22 38 59 38 48 73 83 78 78 70 78 59 66 57 55 58 70 58 49 48 48 39
26 32 34 30 18 22 26 53 77 94 97 97 88 73 79 94 77 49 55 93 92 97 45 72 81 82 49 60 68 74 65 76 85 80 70 73 66 58 77 71 67 81 61 63 47
30 27 23 17 21 18 22 80 70 73 95 96 95 91 67 66 73 75 81 74 80 88 91 85 64 100 54 56 72 88 86 71 93 94 78 83 67 58 71 64 70 81 80 82 59
24 21 16 20 19 14 17 34 55 72 86 97 97 93 86 61 60 72 99 86 80 88 85 60 73 100 80 49 76 85 100 98 100 98 74 74 71 67 63 71 68 68 90 83 68
22 17 23 24 18 15 17 26 38 61 86 98 97 90 80 73 64 64 70 98 97 86 99 66 82 98 93 55 82 90 99 97 95 91 79 71 78 69 73 80 85 65 81 72 66
22 19 27 26 20 18 18 24 30 54 79 89 95 88 74 79 75 80 71 76 97 80 99 79 77 99 94 75 67 90 98 99 91 83 85 82 85 60 80 89 99 68 67 69 78
22 21 30 29 24 22 20 19 32 55 74 89 78 72 77 79 90 99 88 91 86 99 98 86 45 97 100 93 67 97 100 94 92 85 77 80 66 63 83 90 98 73 74 70 71
23 22 31 29 34 32 24 23 36 55 72 71 73 66 75 74 78 80 70 66 70 97 98 72 40 82 97 98 70 96 94 100 96 92 82 78 70 55 83 87 86 81 85 88 86
25 24 34 36 41 43 32 27 39 49 72 63 68 68 75 83 77 67 65 69 80 93 97 83 58 95 98 98 95 68 95 99 88 91 96 82 76 59 65 80 79 85 70 82 71
26 27 34 40 46 51 47 33 42 52 65 57 61 62 85 87 92 80 68 64 70 87 96 91 80 98 98 91 80 52 67 86 81 78 92 94 88 71 76 81 78 82 81 77 66
29 27 35 40 45 53 60 45 39 56 57 63 59 60 65 81 100 98 65 76 74 74 95 95 67 90 98 100 88 77 52 69 70 81 81 89 91 84 79 74 80 77 68 72 79
29 33 39 41 45 53 61 60 48 50 70 68 64 70 74 76 99 98 78 80 80 67 92 84 77 85 98 98 90 85 68 66 66 74 88 87 87 76 61 53 64 58 56 53 52
28 34 36 36 39 44 52 58 50 56 76 94 68 69 64 62 72 78 75 56 60 84 87 84 90 96 98 97 89 96 77 72 69 77 82 79 91 60 60 55 49 43 47 46 47
28 36 36 37 35 41 43 53 61 69 89 96 95 44 49 61 56 60 64 55 54 67 80 95 77 84 98 87 96 95 80 84 84 82 79 78 86 68 54 40 39 33 31 39 50
26 32 36 39 36 36 43 50 66 70 90 95 96 94 48 46 48 43 68 55 62 74 55 87 96 88 95 97 99 97 99 99 96 94 91 80 80 70 48 33 32 30 32 33 48
26 31 35 38 37 36 42 52 60 91 95 98 98 98 95 65 62 37 38 46 67 86 80 96 97 79 74 98 98 99 94 98 98 99 92 76 79 69 51 44 41 40 36 30 36
24 30 33 36 38 38 38 47 62 87 96 95 99 97 97 92 92 75 54 55 77 100 80 96 96 89 81 94 98 99 89 79 90 92 91 75 92 62 45 39 40 31 31 33 32
21 28 34 35 36 42 39 43 96 99 93 91 98 98 97 96 95 100 73 80 86 92 96 94 97 85 98 90 97 100 95 84 84 81 79 68 62 51 44 38 36 32 29 28 30
26 27 28 33 37 44 44 54 81 83 75 83 90 88 93 99 97 96 96 91 78 86 98 94 98 99 94 99 98 91 93 91 89 98 91 70 64 52 39 36 39 33 32 35 40
4 11 31 30 34 35 42 54 68 75 80 81 88 86 87 93 98 99 99 100 98 97 93 87 81 100 77 97 97 97 100 91 85 92 93 91 54 44 42 40 45 37 41 39 46
3 4 12 12 36 34 39 49 58 64 73 85 86 84 83 82 87 93 98 100 97 95 90 90 82 100 100 99 93 84 78 86 92 98 96 76 63 45 37 43 49 52 48 48 56
3 3 4 6 10 17 35 45 57 49 62 76 87 87 84 81 81 84 93 99 100 99 97 87 84 96 98 94 96 96 92 84 86 96 91 78 60 43 44 34 38 48 53 54 57
4 4 4 6 9 19 52 60 67 77 72 68 79 83 85 81 77 77 96 96 97 92 95 82 84 76 76 69 79 92 91 100 98 92 86 79 66 50 56 47 35 40 53 62 61
6 5 5 6 10 23 54 66 88 94 90 97 91 89 80 80 79 76 85 84 88 94 93 85 88 83 70 72 74 74 66 84 93 88 89 78 70 56 54 45 45 43 60 73 71
7 4 4 5 12 30 61 88 96 99 98 96 97 91 90 83 82 82 69 81 77 77 74 72 62 78 73 72 78 80 83 86 85 87 87 77 68 61 48 51 50 49 67 70 60
8 6 5 5 12 27 47 64 84 94 93 97 98 92 88 83 80 75 81 79 76 78 68 70 68 60 56 62 64 59 44 56 62 69 84 92 63 66 51 57 51 54 60 62 64

GFSSW_700_rhum_084.txt.gz
RH
21 18 19 17 16 20 17 14 16 80 98 93 80 77 54 95 79 95 99 100 95 67 69 23 45 59 36 36 75 69 100 98 85 73 47 44 50 47 44 43 56 50 57 50 52
20 18 16 20 23 19 15 15 32 83 81 92 93 84 87 79 83 62 73 99 98 92 92 60 32 62 53 45 70 85 84 90 81 81 70 53 55 49 46 42 52 56 45 44 48
18 18 17 25 22 19 20 18 18 48 62 75 82 93 89 83 84 82 61 43 85 97 98 75 71 82 65 55 66 80 75 86 83 81 87 72 67 62 55 49 51 70 58 56 62
18 18 22 26 24 21 23 15 19 26 53 72 79 93 92 88 71 76 82 79 55 73 97 79 98 92 73 60 59 81 91 87 93 81 77 84 77 65 63 50 52 68 76 55 64
18 20 25 25 28 28 26 15 16 24 44 76 78 79 92 88 76 63 79 92 82 89 98 92 96 100 85 66 53 78 100 89 87 81 77 85 70 75 62 54 56 72 89 67 68
19 20 27 26 31 35 27 17 18 26 48 77 78 83 85 83 73 65 53 93 90 98 97 97 83 100 98 83 61 73 99 87 92 82 80 81 67 73 59 58 67 73 79 93 70
22 22 29 30 35 40 29 20 20 36 60 70 87 92 76 75 81 77 69 87 95 100 98 98 71 87 99 86 63 86 80 81 86 94 94 98 83 57 52 62 59 86 79 84 75
24 24 30 36 39 43 34 24 26 31 62 69 72 65 73 81 89 83 84 88 90 96 100 98 84 88 98 94 69 82 84 85 91 94 96 86 56 51 51 51 52 86 96 82 77
26 26 31 38 41 45 41 29 31 31 56 55 62 57 72 78 86 83 73 69 65 78 97 98 88 91 88 99 72 92 96 88 91 99 93 89 77 57 57 54 47 65 80 81 76
28 28 34 39 41 46 46 35 36 38 49 56 60 56 69 83 73 68 71 65 62 62 97 98 87 86 98 98 88 99 100 90 94 84 100 86 78 62 57 56 63 63 86 84 81
30 28 35 40 42 50 49 41 40 47 43 46 53 54 61 76 71 76 70 65 86 75 98 97 97 70 92 97 88 71 98 91 99 94 99 97 87 80 69 66 74 84 92 87 97
29 29 33 38 40 43 48 51 44 46 59 59 58 59 57 76 76 75 66 92 82 89 88 97 85 48 68 97 99 74 87 88 79 92 94 91 81 77 78 73 67 67 65 87 94
27 31 32 35 38 41 45 54 49 52 64 84 67 66 71 81 87 63 65 86 84 75 94 97 90 51 99 94 99 88 54 74 67 92 87 86 90 68 78 86 80 79 70 69 76
26 32 32 35 38 43 48 57 58 59 71 96 87 67 68 75 73 60 55 66 78 86 84 97 85 81 93 98 100 89 67 54 60 77 96 90 82 70 66 76 78 75 56 53 61
24 31 32 35 40 46 49 57 68 71 84 96 96 88 56 67 59 56 50 63 64 77 98 96 89 66 87 93 99 78 78 66 74 84 82 87 93 68 58 56 59 63 70 70 71
21 27 30 33 40 42 48 50 72 75 86 90 93 94 53 55 54 47 45 52 73 84 91 88 82 86 96 97 96 84 94 88 82 85 89 79 78 64 52 34 39 49 49 58 64
21 24 24 30 36 44 41 49 64 85 87 100 98 94 96 61 57 46 42 38 61 61 71 97 81 85 96 98 98 100 91 99 99 97 86 69 79 68 47 39 38 37 38 43 43
16 25 27 23 32 38 43 48 65 68 84 96 98 97 96 87 84 85 40 40 76 96 97 92 98 92 89 98 98 99 78 73 90 92 91 83 93 55 37 37 35 39 40 39 34
3 8 23 22 30 33 48 52 51 74 80 90 92 99 98 96 98 77 82 52 72 93 100 86 98 98 85 77 98 98 97 86 80 83 82 72 70 40 42 38 35 33 33 32 33
2 2 4 6 16 33 42 52 60 74 80 84 88 89 98 100 97 95 83 79 79 84 100 93 96 92 80 85 95 100 82 87 88 94 92 72 63 44 31 30 33 34 35 32 30
3 3 4 5 8 20 34 46 62 87 92 97 91 89 92 98 98 97 95 91 79 75 100 93 88 99 84 98 98 100 89 87 80 87 91 91 54 41 40 39 37 40 38 38 39
5 4 4 4 8 9 19 38 66 87 98 99 96 95 91 94 94 98 98 97 93 78 90 95 88 97 96 89 98 92 82 77 72 95 98 80 62 46 41 40 39 41 43 45 47
6 5 5 4 7 7 7 26 66 97 99 91 97 98 96 92 93 94 100 96 97 93 87 90 95 99 100 99 99 95 86 78 83 82 95 88 63 43 42 48 48 41 47 45 48
7 7 6 6 8 12 24 22 65 67 91 99 96 94 92 89 88 92 98 100 98 97 96 89 90 80 77 69 68 85 83 89 85 86 81 79 65 56 48 40 48 40 46 54 54
7 8 9 10 9 12 27 41 66 82 82 95 93 99 93 88 87 88 98 97 95 99 98 98 91 78 78 69 70 66 55 59 77 73 74 66 70 48 50 55 53 44 45 59 65
7 9 13 19 16 24 36 87 90 87 91 91 100 99 97 96 99 96 93 98 96 97 96 90 72 81 87 81 79 84 81 79 76 65 78 75 76 67 68 60 48 51 47 60 73
7 9 19 42 51 49 64 65 66 63 37 88 100 97 98 97 97 93 91 84 93 95 90 82 80 77 69 69 69 58 52 63 66 66 65 84 39 61 66 62 56 55 46 58 71

GFSSW_700_rhum_087.txt.gz
RH
14 17 17 22 20 22 21 22 21 14 16 48 71 83 77 86 82 80 71 91 96 72 18 34 60 53 56 35 42 63 100 96 74 71 57 62 62 60 53 46 47 49 43 50 42
15 17 19 23 21 25 26 24 17 14 16 30 56 77 94 80 82 84 70 57 94 89 62 77 92 92 62 44 52 64 89 84 81 78 76 61 49 51 55 57 50 50 45 52 44
16 18 20 24 23 27 26 22 17 14 18 30 61 74 86 82 77 75 72 64 41 97 95 47 78 82 60 72 56 71 57 80 93 92 90 63 52 52 50 59 50 47 52 52 50
19 19 21 26 25 30 26 22 19 16 20 36 61 69 82 78 81 68 84 90 67 53 97 97 93 96 76 81 62 68 61 68 94 92 78 80 64 53 55 57 56 50 58 49 50
21 20 22 28 29 30 28 23 22 19 20 49 58 72 83 77 78 68 62 68 84 56 86 88 97 96 90 80 74 66 78 92 89 93 89 67 54 61 55 53 58 53 53 66 66
20 21 24 31 33 34 32 27 26 23 19 52 67 71 77 85 70 70 63 56 92 80 79 100 94 91 97 82 78 68 80 81 87 88 100 63 64 65 50 54 54 54 56 60 75
21 22 26 32 35 35 36 30 29 28 24 60 64 80 81 65 67 65 59 71 70 100 90 98 98 94 88 86 74 76 85 90 90 90 93 72 66 46 48 51 59 54 57 66 84
21 24 28 33 33 39 41 34 32 35 30 53 51 68 60 61 69 75 78 83 81 85 96 97 98 86 98 98 82 80 76 94 88 87 84 74 54 48 44 47 48 56 60 71 77
20 25 28 30 32 39 44 40 35 42 34 48 58 56 65 72 69 70 65 58 56 65 80 84 99 94 98 98 96 77 97 84 90 86 83 92 83 67 60 53 46 50 62 73 77
17 26 28 30 31 36 42 44 40 44 49 49 48 59 70 79 73 62 59 60 54 45 52 83 98 94 96 98 96 90 99 97 76 77 96 95 94 59 47 50 46 46 55 80 76
17 27 29 31 33 36 40 45 46 46 58 63 47 51 56 65 59 72 64 60 60 80 96 96 97 94 83 94 96 63 93 83 85 85 88 92 95 57 49 54 40 48 46 52 67
16 26 30 31 35 38 41 46 53 52 55 78 59 52 56 59 66 62 65 71 72 92 91 95 92 86 77 96 94 75 76 85 87 80 90 90 96 62 47 43 42 41 54 60 69
18 24 29 30 34 41 44 48 59 58 58 80 86 57 63 71 68 65 66 62 78 92 94 92 99 99 95 96 98 90 70 79 74 95 95 88 90 82 76 61 51 44 58 72 73
18 20 23 28 32 41 46 46 60 68 69 81 96 74 49 60 67 61 61 63 65 97 89 91 98 98 97 97 98 100 78 74 76 89 90 94 82 65 66 65 55 45 47 55 73
20 21 24 25 30 36 42 48 62 73 89 88 94 92 49 46 50 49 51 55 71 94 89 95 96 96 88 94 96 98 76 80 72 89 91 95 88 59 52 61 74 58 51 52 65
5 14 22 20 28 31 40 50 62 80 80 91 98 96 89 42 41 46 42 46 73 96 99 97 92 83 84 72 94 97 86 86 77 93 93 81 90 63 58 42 43 51 46 49 51
3 4 7 5 15 26 34 49 63 76 71 97 100 100 97 90 43 39 46 48 65 76 100 87 87 76 72 70 95 98 91 94 90 91 86 75 86 62 45 43 39 39 45 50 52
3 3 4 4 4 12 23 39 62 60 83 90 99 100 98 96 75 62 45 36 52 73 97 99 95 75 75 78 97 98 78 69 91 90 88 88 92 52 30 32 44 39 36 38 43
4 4 4 4 4 7 14 30 54 79 91 100 99 100 95 96 97 87 66 46 45 70 100 99 96 83 82 96 98 99 83 74 76 86 76 71 69 37 43 33 32 34 40 40 41
5 5 5 4 4 5 11 20 63 97 99 99 99 99 98 99 96 96 92 84 63 74 100 100 98 95 95 96 96 99 91 77 76 91 84 74 62 38 36 39 40 40 39 37 36
6 6 6 6 5 5 14 40 50 66 92 98 94 98 99 100 100 97 97 99 78 83 92 100 99 96 96 94 93 98 100 86 74 90 78 75 50 43 44 43 38 38 34 37 36
6 6 7 8 8 13 23 30 33 84 89 87 89 100 98 95 92 99 98 97 76 72 91 100 98 99 94 86 90 100 98 84 67 94 84 73 53 50 44 45 45 44 41 38 36
8 6 9 10 13 20 18 17 71 58 51 95 88 90 98 99 96 100 98 97 97 73 94 91 94 96 97 90 84 99 98 93 76 72 79 77 56 38 42 40 46 46 45 44 41
8 8 11 14 21 23 26 42 69 64 81 96 96 83 98 100 96 98 97 94 99 100 98 90 95 82 73 60 58 68 80 80 82 84 77 76 54 45 38 40 40 40 42 43 46
9 9 11 16 28 37 41 53 45 53 55 86 96 99 97 98 95 97 97 98 98 98 98 97 96 88 73 70 70 65 62 71 79 74 76 65 57 39 44 51 46 38 44 42 45
9 9 9 17 37 41 53 59 68 66 72 57 68 98 96 98 98 98 97 97 98 98 97 97 89 94 86 80 74 74 71 70 68 71 82 76 56 42 57 62 61 50 51 50 51
9 8 6 21 36 44 64 76 86 90 75 78 77 64 86 98 99 91 96 98 94 96 95 93 95 86 85 80 74 56 52 56 58 61 63 70 44 56 62 67 65 56 54 49 55

GFSSW_700_rhum_090.txt.gz
RH
12 12 15 18 22 21 20 21 20 19 18 13 18 32 61 91 81 82 62 82 85 98 56 22 43 67 66 63 60 80 99 87 61 61 58 71 57 50 40 45 46 49 41 42 44
14 14 16 19 24 22 21 21 22 22 20 14 19 36 62 79 86 81 73 65 63 99 92 39 43 71 72 49 70 57 97 76 69 69 70 70 75 70 60 48 46 48 47 42 48
13 14 17 20 26 25 22 22 24 25 22 14 27 49 61 85 80 77 68 79 53 91 97 74 36 75 72 75 84 45 76 83 79 87 95 81 75 71 62 71 55 52 48 48 49
12 16 19 22 26 26 24 25 26 28 26 16 30 49 62 82 97 67 64 83 81 66 94 91 63 98 99 84 86 45 49 90 100 89 93 87 76 62 66 68 63 57 52 49 58
11 17 20 23 25 26 29 29 28 31 29 19 35 56 69 81 90 80 63 62 78 63 93 98 84 94 96 95 86 35 89 99 95 94 92 98 76 73 65 56 49 56 54 49 50
10 18 20 24 26 27 31 31 31 34 34 23 40 58 70 80 76 72 67 59 55 80 67 99 86 74 87 96 93 73 94 98 100 100 83 68 80 80 62 65 50 62 58 55 53
10 20 22 24 28 31 30 32 36 36 42 31 38 52 69 67 60 56 59 53 59 66 87 100 98 97 98 91 92 100 91 87 98 91 81 67 84 44 77 68 51 57 61 55 55
10 19 22 26 28 32 32 36 42 38 48 42 35 50 54 56 57 68 72 72 65 66 96 84 99 99 98 98 95 100 93 85 95 96 87 85 70 84 88 69 48 53 62 56 57
10 18 24 26 30 32 34 37 45 42 48 56 46 52 54 54 58 64 62 57 62 71 77 96 96 100 100 98 95 99 76 69 85 82 92 72 69 79 72 50 45 54 58 58 55
12 16 22 26 30 32 38 39 46 46 48 60 59 55 54 48 58 59 65 60 72 75 60 72 97 98 100 98 96 86 70 66 73 92 99 89 77 82 50 45 46 42 48 55 49
15 17 19 24 28 30 38 42 47 50 54 57 73 50 53 48 51 53 65 68 82 92 99 100 96 97 72 85 97 66 68 65 67 90 98 84 81 85 71 63 54 50 42 48 62
17 17 19 23 27 28 34 41 50 58 58 58 85 65 54 54 55 54 58 80 82 92 93 99 89 91 100 87 98 97 64 76 68 82 85 80 84 86 86 60 46 39 42 42 54
12 13 18 22 22 24 29 40 50 66 64 61 92 92 65 54 65 60 61 73 75 82 97 99 98 92 93 96 98 96 67 65 79 90 97 86 86 82 78 50 42 38 35 42 47
3 6 6 6 14 18 24 38 49 67 67 70 96 93 76 51 61 54 60 71 73 90 98 99 79 78 90 95 94 98 76 82 81 82 76 85 51 63 75 57 33 31 33 38 45
2 3 4 5 6 11 23 28 53 70 84 84 98 94 95 45 47 47 50 58 82 97 97 100 77 99 93 93 93 98 93 82 72 76 82 94 78 50 54 74 75 44 34 40 44
3 4 4 5 6 6 12 19 48 74 80 87 96 98 97 78 40 47 43 45 51 96 98 98 98 99 98 99 96 97 90 82 78 89 84 58 71 43 56 51 40 37 37 35 46
3 4 4 4 6 4 6 18 51 76 65 89 98 98 100 96 69 40 41 40 48 96 97 100 94 97 99 89 96 98 98 96 94 86 58 60 77 50 52 38 31 30 31 35 38
5 5 5 5 5 4 5 26 64 78 74 99 96 98 99 97 94 65 46 30 28 78 90 94 93 94 92 89 89 98 95 61 58 55 44 90 68 51 30 34 42 38 34 37 40
6 6 6 6 5 6 8 36 72 70 76 99 100 100 99 98 97 93 81 37 24 64 98 99 100 88 82 72 87 99 98 72 76 72 55 56 56 46 33 29 29 37 33 33 32
7 8 6 8 8 10 19 58 63 47 78 96 98 95 97 98 97 96 92 66 41 54 96 98 96 99 89 84 96 97 100 83 75 76 54 60 53 27 40 45 42 37 36 39 39
8 8 7 10 10 16 42 46 27 98 96 100 99 100 99 99 100 97 96 80 59 72 89 97 97 99 98 93 92 93 99 88 78 85 47 53 42 46 46 44 40 36 33 35 35
7 8 9 12 14 27 28 37 64 80 57 78 94 98 95 98 100 98 97 96 70 76 83 99 97 96 95 88 81 80 99 90 76 86 66 68 46 50 46 42 41 41 40 35 37
6 9 10 12 23 33 31 33 57 63 80 92 98 98 96 98 100 96 98 89 66 80 94 94 97 97 96 96 99 94 92 88 79 64 66 52 45 50 47 44 44 44 44 44 41
7 10 8 13 30 36 49 55 50 57 91 84 92 96 97 99 100 98 98 98 99 82 99 98 92 83 70 70 67 61 60 69 81 73 73 64 49 43 42 48 42 36 36 40 42
9 9 4 13 27 39 52 60 65 55 62 52 83 77 91 95 98 98 98 98 98 84 98 96 95 83 76 73 78 70 71 81 84 83 75 64 50 40 46 45 43 42 36 36 40
12 8 4 13 27 40 51 62 46 51 52 56 41 43 85 90 96 98 94 98 97 98 98 94 95 90 84 79 77 75 75 75 83 83 76 67 49 41 45 44 49 58 50 45 44
15 8 4 14 28 39 50 66 62 66 71 63 36 27 56 87 97 88 82 87 98 97 93 87 86 87 86 76 68 60 59 65 68 66 64 64 45 59 56 62 64 62 52 52 51

GFSSW_700_rhum_093.txt.gz
RH
8 12 13 15 17 20 21 21 21 22 24 27 19 14 28 43 64 80 78 95 89 86 92 93 23 58 78 71 48 97 100 90 56 47 41 51 50 54 55 61 46 48 60 48 30
8 13 14 16 18 21 24 24 23 25 26 30 20 16 35 50 61 79 85 74 69 81 84 96 36 42 76 74 81 92 98 85 63 48 42 48 60 65 64 63 46 46 49 45 45
9 12 15 18 20 23 23 26 27 28 29 33 22 17 37 48 69 93 67 71 77 66 85 97 72 58 71 97 98 97 94 86 65 58 59 74 70 70 66 59 57 49 48 49 50
11 11 15 18 21 25 24 26 30 31 31 36 24 21 41 58 97 65 56 59 86 78 76 96 89 55 71 99 92 96 47 80 82 78 82 88 88 65 71 63 63 67 48 47 60
12 10 16 19 21 25 27 28 32 33 34 41 28 24 50 72 92 68 66 58 77 79 88 96 97 88 80 94 93 90 80 73 92 95 78 80 88 76 65 71 71 71 51 49 47
12 9 15 19 23 25 28 30 34 38 36 45 36 27 56 88 68 62 57 56 56 68 84 98 98 97 89 88 98 80 88 89 80 80 99 96 84 72 74 68 78 80 59 56 49
10 10 13 21 23 26 32 34 36 41 39 47 47 32 42 58 50 49 51 46 49 49 81 80 98 98 83 96 93 98 97 96 91 80 96 94 79 69 72 82 86 81 61 50 55
12 13 14 19 22 26 33 39 41 46 43 48 55 42 60 50 52 55 64 58 55 53 56 77 88 98 94 79 93 89 100 78 79 82 75 88 66 63 70 73 86 74 72 63 56
13 14 14 17 21 27 34 42 44 50 47 48 60 52 100 46 55 53 58 56 50 62 68 82 84 97 93 79 89 97 96 68 67 68 75 82 67 51 65 72 78 73 72 72 82
10 10 12 16 20 23 30 40 48 52 50 53 62 70 81 72 50 59 58 57 56 60 65 77 88 97 98 98 97 96 92 62 56 85 87 80 69 58 69 73 70 70 66 70 76
4 6 6 7 11 14 25 37 44 50 60 59 59 89 69 51 53 56 64 63 61 74 80 77 100 85 79 78 91 97 77 53 48 66 72 76 67 58 75 78 73 63 63 65 72
2 4 4 4 6 7 16 33 51 55 66 62 60 89 84 55 68 69 60 69 89 99 88 92 86 90 95 100 93 99 99 66 47 78 77 77 71 62 69 76 72 65 59 61 69
2 3 4 4 6 6 10 24 45 65 73 60 69 95 95 61 91 100 67 99 95 93 92 93 94 99 95 99 96 97 94 69 52 84 86 83 68 64 65 70 73 70 64 61 59
2 3 4 4 11 6 9 17 42 64 74 82 88 96 96 54 84 68 61 81 99 98 93 83 94 98 97 98 87 98 84 86 67 83 63 76 56 55 62 67 68 71 68 68 64
4 3 4 4 6 6 9 18 36 64 88 76 91 89 96 90 59 54 48 77 83 97 97 97 83 97 99 94 88 91 83 77 83 72 66 70 58 41 48 59 62 64 63 63 66
5 5 5 5 5 4 7 13 37 86 90 74 88 94 97 96 80 54 46 52 58 78 92 98 94 97 98 100 96 93 91 93 89 78 85 58 53 34 51 51 54 58 59 56 31
5 7 7 5 6 6 8 15 67 90 61 88 89 93 99 97 96 61 92 80 75 95 94 97 100 97 97 91 95 97 99 97 95 95 54 47 58 40 42 48 50 56 57 58 46
5 8 7 6 7 8 12 30 95 86 52 81 82 96 97 97 96 84 100 40 35 95 98 88 95 98 96 97 96 96 98 85 73 70 48 61 47 44 46 48 43 47 54 58 65
6 6 7 6 8 11 19 88 90 83 84 77 80 98 97 97 94 97 84 96 64 72 97 88 100 94 93 95 95 96 98 96 73 45 44 49 45 47 41 30 37 37 33 37 41
5 6 8 8 9 17 27 80 59 99 85 86 92 95 98 97 95 96 100 92 28 75 99 98 96 100 83 90 93 97 97 85 76 64 54 42 32 36 46 54 37 31 38 31 31
6 8 8 9 11 19 65 40 57 100 82 81 100 96 96 98 99 96 99 92 79 61 91 94 97 99 92 79 89 97 96 94 80 74 43 51 36 51 55 54 47 35 25 32 34
8 10 7 8 13 25 54 41 74 80 90 99 98 99 89 97 99 98 94 100 64 65 89 97 98 99 95 96 98 96 86 86 68 68 66 68 48 55 46 43 40 38 34 33 34
10 11 6 10 17 26 37 63 66 49 55 72 78 84 99 94 99 98 94 94 89 84 98 97 96 97 97 96 94 92 77 98 77 63 64 60 49 53 47 46 45 44 45 42 37
13 10 6 11 17 28 32 57 79 59 60 51 67 82 91 94 97 99 96 87 98 98 90 94 96 97 83 85 82 94 78 87 82 68 57 58 53 49 46 46 45 40 36 34 42
14 8 4 14 20 25 35 60 56 51 50 42 65 62 78 84 94 100 98 94 78 74 98 93 98 96 88 73 83 71 89 90 67 60 70 64 53 53 52 62 49 40 34 29 30
17 7 4 10 19 23 38 58 64 67 49 45 40 51 67 84 88 95 92 94 98 86 93 95 98 95 89 71 64 67 61 59 62 68 81 66 49 53 52 50 45 43 37 37 35
17 12 3 10 18 25 37 52 58 54 58 32 30 36 71 80 79 82 88 88 97 98 98 99 100 95 89 79 85 83 75 68 72 71 76 85 60 81 73 62 59 52 54 50 45

GFSSW_700_rhum_096.txt.gz
RH
9 9 9 12 13 14 17 18 22 24 26 26 29 33 20 22 40 50 75 75 62 69 98 94 73 24 68 78 90 94 100 98 75 67 50 46 51 48 42 46 47 56 59 55 44
11 10 9 14 13 14 18 19 23 26 29 30 32 34 17 30 42 58 75 73 66 60 98 95 88 35 49 86 76 99 97 81 62 60 51 47 52 52 50 56 47 54 65 46 37
13 12 8 13 14 15 19 20 25 29 32 32 36 36 18 37 53 97 65 70 64 65 62 86 98 74 46 86 91 82 82 84 72 57 73 64 58 52 53 63 51 47 58 46 43
15 12 8 12 16 17 20 21 26 30 34 35 40 37 22 43 95 68 56 49 54 70 63 65 98 96 62 87 81 87 47 90 81 81 97 87 75 66 58 58 58 48 49 46 52
13 10 10 12 16 16 19 22 29 35 38 38 43 39 28 52 97 58 61 58 57 63 75 64 94 98 74 67 87 83 80 66 89 89 98 94 86 100 70 63 61 62 46 48 52
11 11 12 13 14 16 19 23 30 38 41 42 46 46 37 81 80 64 54 49 54 53 74 81 99 98 94 86 87 96 93 91 78 81 91 100 96 99 97 85 71 74 58 51 48
12 13 10 10 12 14 16 20 30 40 46 46 47 52 44 68 52 48 43 41 45 50 49 77 94 96 98 83 80 98 86 97 91 85 85 94 100 99 81 94 76 79 72 64 47
10 9 8 6 4 8 9 15 27 34 48 48 49 60 70 59 45 45 48 73 58 50 50 50 75 91 98 96 73 98 99 98 89 89 92 100 92 100 88 88 86 84 78 75 51
6 5 5 4 3 4 7 11 24 27 48 52 54 65 99 63 44 47 46 67 72 51 58 62 75 92 98 98 96 98 94 76 85 85 90 91 84 71 82 84 75 77 75 75 70
2 3 4 4 4 4 7 8 22 28 47 54 61 68 94 98 52 45 53 47 48 53 62 68 83 96 96 98 96 92 92 84 73 72 83 72 69 59 56 52 64 76 73 72 73
3 3 3 3 4 4 8 8 18 48 49 68 72 65 88 91 50 47 47 56 54 67 87 79 78 94 86 97 95 95 90 73 62 63 62 77 79 56 63 57 57 72 66 70 71
3 3 3 3 4 6 7 10 15 32 55 64 69 65 85 84 63 78 59 55 88 84 85 78 79 82 95 95 97 98 94 80 67 57 74 63 60 57 62 79 69 69 68 65 67
4 4 4 4 4 7 6 9 12 40 65 69 78 91 96 88 65 99 84 88 83 89 97 90 93 97 98 94 98 97 96 90 75 61 81 72 77 74 59 67 65 66 65 61 61
4 4 6 6 8 6 8 10 12 38 73 86 90 95 96 90 66 61 64 65 87 84 79 77 73 96 97 96 93 97 85 90 94 66 98 96 86 74 68 74 70 67 67 61 60
4 5 8 6 5 7 9 10 15 56 94 77 96 70 93 96 79 70 45 51 55 98 96 93 96 98 99 86 94 93 90 84 93 79 77 82 75 71 64 63 64 66 68 64 62
4 8 7 6 6 6 9 13 36 93 89 85 76 86 100 97 96 66 37 42 55 72 93 96 92 98 91 96 96 93 98 87 99 91 98 81 66 44 48 52 50 60 64 64 55
4 7 6 7 6 8 13 18 89 84 63 83 94 99 98 97 97 81 82 61 81 97 96 99 96 91 88 82 92 98 98 99 98 98 88 62 63 39 32 46 50 52 60 54 57
3 9 8 6 6 10 16 51 86 90 55 84 90 95 98 96 97 96 98 52 32 84 96 90 98 96 100 91 84 88 99 98 86 90 62 59 85 46 46 46 48 52 56 59 59
4 11 10 6 6 12 18 81 81 75 99 95 72 91 100 97 96 98 92 80 70 73 98 91 94 97 98 97 96 96 97 97 97 55 64 51 44 46 44 45 43 52 56 59 62
4 14 12 5 8 15 19 88 50 90 92 82 87 95 97 100 97 96 95 67 64 84 100 95 98 99 85 85 91 87 88 90 95 96 91 49 42 38 33 43 37 42 49 57 61
5 15 14 6 9 14 37 43 60 92 86 95 91 96 93 99 99 95 91 73 78 72 99 93 90 100 90 69 72 78 96 88 94 71 83 70 48 46 53 56 52 44 32 36 38
7 16 12 6 12 21 41 53 74 59 80 99 90 89 94 92 99 98 96 89 94 67 92 97 98 98 87 85 94 75 76 93 88 69 76 81 60 54 47 44 43 38 32 33 31
9 18 10 6 13 21 34 58 55 46 60 63 77 95 96 98 99 97 99 70 75 82 98 94 97 98 99 99 99 95 76 80 91 80 79 94 60 60 52 52 47 45 44 39 37
10 16 10 7 15 20 34 54 68 42 43 51 68 82 88 98 100 100 98 90 97 94 94 97 92 97 97 90 66 73 60 74 80 70 72 85 60 55 50 51 46 44 40 35 38
13 15 9 8 14 21 36 54 59 57 42 47 64 70 75 87 98 97 100 82 92 81 87 96 98 96 96 94 77 66 62 68 64 56 59 68 55 60 63 65 57 44 39 38 28
16 18 11 8 12 19 38 51 41 54 39 43 50 60 68 70 92 100 100 94 79 70 93 88 93 90 86 75 76 88 83 71 60 56 54 51 58 62 63 61 56 48 36 33 31
17 20 8 7 13 21 35 33 25 43 31 35 44 52 63 70 74 77 96 100 99 91 92 94 97 93 91 76 83 84 75 92 82 74 67 70 78 82 70 70 59 57 40 37 36

GFSSW_700_rhum_099.txt.gz
RH
9 10 11 8 10 12 13 14 15 17 19 24 27 30 34 35 21 30 44 52 65 64 70 97 75 83 65 95 74 93 95 100 93 82 60 52 63 47 46 42 41 35 37 41 51
8 11 11 8 11 14 14 16 16 18 22 28 31 33 38 33 23 35 44 75 68 70 69 95 100 92 58 64 86 98 98 97 99 80 66 61 59 54 45 48 45 39 35 49 60
7 10 9 9 12 14 14 15 18 20 24 31 33 36 42 34 30 51 61 68 69 64 66 67 95 99 75 28 78 82 95 98 91 89 72 66 60 57 58 49 44 43 46 45 63
7 10 9 10 11 12 14 14 15 17 24 32 38 40 45 37 52 49 66 64 55 55 65 66 61 96 97 33 74 75 83 97 96 100 93 81 68 66 60 54 48 43 48 39 43
6 10 8 6 7 8 8 8 10 14 20 30 42 42 47 43 59 58 72 68 63 59 56 77 58 76 98 48 70 99 85 81 96 98 97 98 72 96 88 66 56 46 50 47 35
5 9 6 5 4 4 4 6 7 12 20 32 47 45 50 48 71 54 57 52 50 53 53 72 89 86 100 86 76 100 93 83 88 98 99 98 93 87 76 79 68 61 52 47 46
6 5 4 3 4 4 4 6 7 11 23 36 50 48 55 68 47 48 49 47 45 48 52 51 86 97 98 97 98 100 96 80 94 81 98 98 99 85 90 87 89 86 72 54 48
3 3 3 3 3 4 4 7 8 11 24 37 51 51 60 77 53 40 49 68 57 54 49 44 77 83 97 94 97 100 96 83 86 83 78 99 88 100 100 99 97 97 77 61 52
3 3 3 3 3 4 4 6 10 12 26 40 54 58 66 79 77 43 49 52 49 47 56 49 56 70 85 97 99 94 97 86 76 87 86 92 99 96 100 94 95 98 87 70 53
3 3 3 3 4 4 6 7 12 16 20 49 60 63 80 87 79 50 48 54 50 54 65 64 63 96 88 96 96 84 81 97 75 98 93 70 77 91 80 99 95 97 98 80 63
4 4 4 5 5 6 7 7 12 23 36 55 62 67 71 79 80 50 43 45 56 64 90 83 73 71 96 91 98 83 90 98 78 97 87 67 82 78 98 96 100 97 81 80 72
4 4 4 8 7 7 6 9 10 21 43 59 70 78 82 96 77 55 67 53 73 93 98 89 75 76 96 91 97 98 95 88 76 75 85 83 94 93 78 90 73 62 66 72 76
5 4 7 8 7 6 6 8 12 26 55 63 81 81 93 98 82 69 78 71 70 75 96 96 66 92 88 82 89 96 99 80 75 67 59 65 79 83 80 58 79 66 73 62 71
5 4 8 8 9 6 6 11 17 42 71 75 96 89 96 96 69 46 49 56 73 89 86 79 79 92 87 71 84 98 98 93 81 77 79 72 85 59 68 64 57 72 69 70 63
5 4 10 10 7 6 8 14 30 59 90 85 84 86 89 96 89 71 47 55 59 62 89 94 92 93 90 78 77 97 96 98 86 97 94 98 86 60 71 65 53 67 68 62 62
5 4 13 13 7 5 11 21 53 74 87 81 91 95 100 98 90 79 40 50 60 84 80 94 98 96 93 88 96 96 99 98 98 99 90 79 97 55 62 51 63 70 58 55 63
5 4 14 14 7 6 13 35 68 74 59 78 91 99 98 97 88 86 55 78 75 97 96 97 98 97 94 98 96 94 99 98 98 98 92 73 93 46 50 49 48 54 62 46 61
5 5 14 14 6 8 14 32 60 71 93 84 85 98 100 97 90 89 71 56 52 82 95 91 95 97 96 84 76 96 94 92 93 95 76 72 73 48 42 35 39 49 50 50 47
4 5 15 15 5 11 17 21 46 93 88 85 78 89 98 98 95 89 82 58 68 92 98 97 99 99 89 77 70 93 97 100 98 70 68 76 57 56 44 50 51 52 52 58 55
4 5 15 13 6 12 18 47 67 94 73 88 98 96 98 95 96 91 85 67 73 90 99 95 96 100 91 97 98 96 84 90 97 92 86 59 47 42 46 45 45 50 54 58 60
4 6 15 11 7 13 23 42 54 61 71 88 90 94 100 97 97 98 83 66 78 81 96 96 85 98 88 86 79 83 78 93 96 84 86 82 54 46 42 45 44 39 54 61 60
4 8 15 10 12 16 31 40 35 38 70 83 86 84 95 92 98 97 100 79 80 75 93 96 96 92 84 91 85 69 73 87 90 89 87 78 66 62 54 49 50 36 32 55 62
4 9 15 10 12 20 36 50 39 36 66 70 83 89 99 93 99 94 98 84 67 75 96 86 97 98 93 96 95 99 69 70 84 82 94 95 68 66 56 52 49 48 38 36 38
4 14 15 10 11 20 33 43 39 33 47 64 74 85 94 94 96 98 91 98 93 94 94 98 98 97 88 82 71 76 70 70 79 70 97 94 69 64 64 60 61 50 43 46 47
4 14 17 8 9 20 29 37 31 30 42 60 66 72 78 96 99 98 99 94 99 98 100 97 97 97 98 92 78 65 62 71 69 72 86 77 85 79 61 66 55 48 42 40 37
4 15 17 6 11 19 28 38 23 24 40 52 59 65 67 77 84 100 99 98 83 77 88 91 96 91 90 84 87 80 68 64 71 65 74 77 69 67 68 66 64 56 46 36 35
8 18 16 6 14 19 27 13 15 25 35 45 52 61 62 70 74 82 100 100 99 94 87 100 96 88 89 79 85 79 91 72 81 81 73 76 76 70 64 64 60 53 44 39 36

GFSSW_700_rhum_102.txt.gz
RH
5 7 9 9 8 9 12 13 14 14 15 16 18 23 26 28 34 38 25 27 32 49 62 77 65 64 86 81 73 92 100 97 100 99 86 64 61 48 49 52 43 35 32 31 36
5 7 8 8 7 7 10 12 11 8 9 12 16 24 30 35 39 38 41 54 85 68 80 65 78 90 84 84 95 98 96 79 96 99 99 78 65 53 55 56 45 38 37 39 33
5 6 8 8 6 5 6 8 6 5 6 9 18 28 34 41 40 46 43 51 58 60 60 63 65 95 80 88 85 98 84 95 89 100 100 96 76 63 58 52 44 39 48 38 45
5 5 8 6 4 4 4 5 5 5 6 9 19 28 36 45 48 48 44 52 58 57 50 65 79 93 95 99 61 96 88 83 99 99 100 100 88 86 86 51 45 41 43 46 50
4 6 6 4 3 4 4 4 5 6 7 12 22 34 44 48 51 58 50 52 64 58 61 53 70 85 78 98 57 53 70 86 97 99 100 100 100 83 73 58 58 61 55 55 54
4 4 3 3 4 4 4 4 6 5 8 12 28 37 49 54 61 46 38 39 44 46 48 59 65 88 86 91 91 58 70 91 98 97 100 100 99 98 92 73 61 66 66 54 53
4 4 3 3 3 3 4 4 7 7 8 17 27 44 52 59 66 52 32 40 46 49 47 50 63 96 98 91 94 66 77 79 88 94 98 100 100 94 95 72 65 69 74 61 52
3 3 3 3 3 4 5 7 8 9 11 18 41 53 56 68 72 65 42 46 42 63 53 50 56 89 98 96 99 70 84 86 87 94 85 92 98 100 94 75 76 82 72 69 58
3 4 4 4 6 7 8 8 9 10 14 31 51 56 63 75 78 82 47 56 49 46 54 64 66 70 88 93 98 93 94 92 79 90 87 90 97 96 94 76 99 86 76 69 63
3 4 4 6 9 7 8 7 9 12 22 42 52 56 61 74 84 88 50 58 59 54 56 72 72 83 98 92 97 85 99 92 82 93 85 87 92 97 100 96 98 94 85 77 72
4 5 5 10 9 8 7 7 10 15 40 42 55 54 79 86 90 96 60 50 53 63 72 80 84 84 83 94 94 99 93 82 88 75 88 86 72 90 100 100 100 93 92 83 78
4 5 6 10 12 10 6 7 12 22 53 55 44 61 88 99 95 76 74 86 75 87 87 72 93 83 88 95 91 98 90 91 93 85 89 92 87 94 89 98 97 99 100 96 80
4 5 5 12 14 10 6 9 16 38 49 53 56 79 88 86 91 73 76 92 73 78 78 75 68 80 98 99 89 98 75 76 95 96 99 99 99 98 63 98 99 96 99 96 94
3 5 4 13 15 10 6 10 27 44 46 50 84 80 91 96 81 65 50 67 75 80 80 86 94 77 93 94 93 96 78 66 98 98 97 98 96 98 76 93 92 92 96 80 96
3 5 4 12 15 9 8 14 44 64 62 62 73 77 99 99 91 83 48 46 64 70 84 84 92 88 91 94 95 98 99 85 85 95 92 92 59 56 64 69 60 70 76 66 67
3 5 4 12 15 9 8 27 48 58 65 69 71 93 100 100 90 88 49 46 60 95 90 92 98 98 94 89 85 98 100 98 83 86 90 77 66 59 60 37 32 40 72 71 68
3 4 5 14 15 6 10 31 43 47 40 65 86 95 98 95 91 91 52 58 90 96 94 94 98 100 94 91 82 97 99 98 98 97 95 80 83 44 51 51 39 34 56 61 69
2 4 5 15 15 6 13 28 35 70 77 73 80 96 92 94 93 76 58 86 97 90 94 96 97 100 92 80 76 92 97 97 95 96 96 92 85 49 48 50 48 49 57 66 60
2 4 6 15 13 8 16 17 43 71 69 74 79 91 99 99 91 84 66 72 84 100 99 93 97 100 85 70 71 92 98 92 89 77 82 92 70 55 43 47 34 45 57 57 51
3 4 6 16 9 10 19 20 52 66 60 78 85 94 90 100 95 86 78 83 86 99 98 92 94 96 100 100 97 95 94 96 86 85 92 76 53 48 51 49 47 46 48 50 51
4 4 8 16 8 12 20 23 33 52 61 75 85 96 95 100 100 90 76 86 75 93 94 93 91 96 92 85 91 83 86 92 95 92 87 83 56 55 49 48 47 46 46 48 51
4 4 10 16 9 13 23 22 25 43 59 68 83 89 96 100 99 92 85 78 70 88 96 93 89 84 84 89 85 82 76 84 79 89 91 72 73 69 51 49 46 47 43 54 56
4 4 14 15 8 15 25 21 28 54 62 66 80 88 99 100 96 94 85 91 81 93 97 98 89 98 87 93 96 74 61 66 75 77 96 87 73 66 62 59 57 57 47 44 62
4 6 15 15 8 16 23 21 27 53 56 67 76 92 97 95 86 68 79 100 96 95 91 100 99 97 81 83 81 74 64 66 74 72 96 87 70 69 62 53 50 52 51 45 45
4 8 15 14 7 17 23 19 24 46 49 62 68 82 90 100 95 75 71 100 94 94 95 89 99 98 98 97 82 70 61 67 76 72 85 93 80 74 64 57 50 52 48 44 44
5 9 14 12 9 18 23 16 18 37 46 54 60 68 79 86 94 99 89 98 92 90 88 92 94 84 87 96 98 87 65 72 82 86 76 93 87 79 71 66 62 56 47 41 39
5 12 17 8 10 19 19 10 14 33 42 48 58 63 72 74 82 95 100 99 99 100 100 99 95 84 81 82 87 88 97 71 76 90 86 84 81 74 69 63 57 58 57 50 42

GFSSW_700_rhum_105.txt.gz
RH
4 5 6 6 7 6 5 5 5 5 5 6 6 8 10 15 22 32 38 37 36 38 72 50 61 62 51 48 67 87 99 99 66 93 94 99 90 57 49 40 36 42 45 41 47
4 5 5 7 6 5 4 4 4 4 5 6 6 7 12 19 32 36 41 43 61 86 98 58 67 64 71 57 72 88 99 93 58 62 88 99 96 63 56 53 48 47 53 46 49
4 5 5 6 5 3 4 4 4 5 6 6 6 9 18 30 33 44 52 48 52 77 69 61 52 48 75 81 76 94 94 91 86 68 86 93 99 78 71 55 48 48 51 50 62
4 5 6 5 3 4 4 4 4 5 6 6 8 12 26 40 40 52 58 52 50 52 53 48 42 59 80 80 75 100 80 85 92 94 85 97 99 100 78 68 48 52 50 51 54
4 5 5 4 3 4 4 4 5 7 8 8 10 17 37 37 50 61 61 51 42 50 57 52 62 64 84 98 97 96 83 68 100 92 94 98 98 100 92 64 56 52 60 47 48
3 4 4 4 3 3 4 6 8 9 9 9 15 24 42 50 54 64 50 36 36 41 44 47 65 67 94 85 93 96 92 69 97 93 97 98 99 100 87 64 60 60 63 65 55
3 3 3 3 4 5 7 8 10 9 10 12 19 40 50 53 67 72 69 39 40 46 49 46 50 67 93 91 89 86 99 81 80 96 76 99 98 100 81 66 66 68 66 74 72
3 3 4 4 4 8 8 9 8 10 10 17 34 53 56 66 78 85 77 42 46 51 58 54 52 68 85 97 98 95 92 89 65 78 86 98 98 100 86 72 82 73 72 77 79
3 3 4 4 6 9 8 9 8 10 14 28 49 54 56 75 82 86 87 44 50 50 57 66 68 73 74 82 92 98 94 94 75 74 93 92 96 100 99 89 87 79 71 76 79
3 3 5 4 8 9 11 8 8 11 21 38 42 43 65 81 87 84 76 51 55 59 59 75 76 83 78 93 91 97 90 65 82 82 99 80 86 98 99 100 85 79 71 76 75
4 3 5 4 8 12 13 7 10 15 38 36 38 63 80 90 92 87 69 61 53 60 83 80 72 88 79 100 87 95 98 77 79 78 81 85 77 92 98 100 97 87 67 75 78
5 3 5 4 7 14 13 7 10 18 50 45 60 81 88 83 80 68 56 65 65 78 93 77 77 81 79 98 89 94 98 85 76 72 98 88 76 81 98 99 98 95 67 68 70
5 3 5 4 5 14 12 9 18 35 45 53 73 75 92 88 75 55 43 73 85 71 91 85 64 60 92 97 94 95 97 86 84 95 94 95 90 86 94 93 95 99 84 76 70
5 3 6 4 5 13 12 9 27 42 42 47 73 89 89 86 78 68 47 64 78 75 81 78 88 72 91 99 99 96 99 94 70 79 98 97 99 100 90 82 79 98 97 76 70
5 3 6 4 5 15 12 12 41 55 52 59 77 87 82 90 82 68 52 58 68 81 73 71 87 91 88 93 90 98 86 97 87 93 94 98 76 96 98 92 94 95 96 82 76
5 4 6 5 7 14 9 20 48 61 42 62 81 88 94 81 80 62 59 68 89 89 99 86 85 97 92 99 97 98 91 79 84 93 91 81 78 80 80 49 65 61 83 88 86
6 5 4 5 10 13 10 27 49 38 36 62 79 84 90 83 65 61 79 96 93 91 99 86 95 99 98 97 95 98 88 96 97 97 93 78 73 44 49 44 47 36 46 79 89
5 4 5 6 12 12 12 31 45 39 51 69 78 83 88 97 71 63 72 93 97 96 94 98 98 99 100 96 91 97 96 83 95 97 98 97 80 53 53 55 38 37 37 48 64
4 4 6 6 14 10 16 21 22 46 54 63 75 83 100 99 87 68 74 82 99 99 96 96 99 98 91 82 81 96 98 89 84 87 86 87 68 58 50 49 46 37 41 43 37
4 5 6 8 15 11 17 19 28 52 56 69 76 85 96 98 96 65 74 80 88 100 92 84 88 93 97 98 83 96 97 95 84 82 94 86 60 51 47 50 38 42 48 55 66
5 6 7 12 15 13 20 18 28 51 56 70 75 90 93 100 97 58 78 76 76 95 100 91 82 86 87 87 93 90 92 92 96 88 87 85 61 61 56 49 48 46 48 50 58
5 10 10 14 17 13 21 15 27 45 59 67 76 84 98 99 99 77 79 79 82 96 97 89 79 79 98 90 91 79 87 87 78 91 81 70 78 68 49 50 50 48 45 50 52
7 6 10 16 12 14 19 15 30 43 57 66 70 80 92 99 96 90 82 79 81 96 93 88 86 81 81 82 78 70 69 77 76 82 100 78 78 72 65 58 56 52 50 48 49
10 9 11 17 15 14 19 15 37 53 60 67 71 82 87 91 88 69 86 99 95 96 100 98 94 100 85 86 83 68 69 70 75 68 93 77 74 72 65 58 54 52 54 53 53
12 10 14 17 13 15 18 15 40 52 56 64 68 74 72 79 82 75 85 100 100 98 100 99 98 96 94 96 90 87 67 62 82 83 72 77 77 69 64 58 56 56 53 49 47
40 11 13 15 8 17 18 16 38 43 53 58 56 65 75 75 76 70 68 93 99 100 99 100 95 89 95 98 97 91 75 76 93 88 80 79 77 77 72 68 61 55 54 54 44
39 8 13 14 8 19 14 10 32 39 49 54 56 64 63 69 78 89 64 62 83 100 99 98 92 84 79 82 86 77 86 76 91 93 84 78 79 81 78 72 67 61 54 53 54

GFSSW_700_rhum_108.txt.gz
RH
4 5 5 7 8 9 7 5 4 4 4 4 5 5 6 6 10 20 29 29 32 40 64 93 79 47 53 47 50 69 96 100 86 81 42 64 82 88 58 55 48 38 35 68 71
4 6 6 6 8 8 5 4 4 4 4 4 6 6 6 9 15 28 29 32 44 80 96 100 96 69 66 66 61 72 92 75 54 72 78 71 90 97 78 76 54 42 45 52 67
4 6 6 7 9 6 4 4 4 4 5 6 7 7 8 14 26 28 46 49 59 75 93 99 82 74 68 57 51 64 74 52 55 85 86 80 96 73 100 91 71 54 48 47 62
5 5 5 7 7 5 4 4 4 6 8 8 8 8 13 22 31 46 49 57 57 52 50 53 57 53 57 62 76 84 58 61 48 84 94 93 72 89 98 92 70 64 51 58 59
6 5 4 6 5 4 4 4 6 8 9 8 9 12 17 30 43 53 62 61 52 41 37 48 57 59 70 66 86 86 71 66 64 69 90 98 99 84 99 97 78 66 61 67 62
7 5 4 4 4 4 4 8 8 9 8 9 10 16 28 43 56 65 68 63 52 35 35 38 47 62 80 80 90 95 95 77 70 66 82 96 99 99 56 100 81 57 67 62 68
9 7 3 3 4 4 6 9 9 9 9 10 15 24 43 52 59 75 77 76 45 42 43 48 46 49 63 74 95 99 86 81 84 71 64 98 98 99 59 100 92 73 69 67 65
52 9 3 3 5 5 7 9 11 9 10 12 23 42 51 56 72 82 84 84 50 47 46 56 59 56 62 72 80 96 99 76 69 71 64 99 93 100 71 99 99 84 69 65 68
96 10 6 3 5 5 8 12 12 10 11 17 38 42 51 65 81 84 87 82 45 47 48 55 66 67 69 70 72 74 95 83 95 72 67 98 93 88 72 99 100 87 72 65 64
100 18 6 3 5 5 8 15 13 12 14 28 46 33 57 84 83 88 91 71 47 44 52 62 76 76 77 90 80 84 96 96 89 62 64 77 99 83 84 97 100 99 83 61 66
99 35 8 4 6 5 7 16 14 14 16 32 34 57 79 80 83 91 80 61 64 58 64 78 80 88 85 80 97 90 93 97 82 67 71 85 99 79 97 96 100 100 88 77 67
100 83 10 4 6 5 8 15 12 14 32 43 52 77 85 78 77 72 45 60 77 72 73 72 63 80 77 80 99 93 96 95 53 93 97 97 92 90 93 88 98 100 99 88 83
99 84 16 6 6 6 9 13 11 24 41 54 69 79 78 80 77 74 48 54 69 61 72 80 66 66 63 86 95 81 97 91 71 88 97 99 98 95 97 98 97 98 100 92 90
99 99 20 7 7 10 9 13 12 35 49 47 68 78 84 80 79 64 45 47 60 81 72 69 83 88 83 97 100 94 88 100 97 75 98 96 98 100 93 93 83 98 98 96 93
98 94 22 8 6 7 11 12 20 44 74 59 71 83 76 76 69 51 46 58 61 89 97 69 79 90 97 100 96 99 87 97 91 79 98 97 83 99 85 78 88 92 100 94 85
98 96 32 9 9 8 13 11 33 67 46 61 76 85 77 64 55 47 72 86 99 95 97 87 76 89 96 89 94 99 97 91 90 88 94 92 62 70 94 92 88 88 98 100 89
98 48 26 11 10 9 14 17 49 52 36 59 78 80 72 45 48 79 86 91 98 94 96 90 95 98 96 96 94 90 97 96 90 88 96 84 63 56 62 58 66 71 96 98 84
98 72 25 14 10 12 14 27 46 30 39 60 80 81 88 77 66 79 88 98 98 99 97 97 99 94 98 95 97 96 76 80 92 94 93 92 82 71 68 63 50 57 61 99 97
98 64 26 10 10 16 17 28 14 33 43 56 77 83 96 94 68 68 82 87 100 90 98 99 95 95 82 100 98 99 76 84 86 86 86 93 66 62 53 54 56 53 45 86 94
97 47 20 9 16 17 16 18 19 38 47 58 66 80 95 97 92 68 78 77 87 94 96 94 94 96 96 94 98 92 93 94 84 84 90 84 63 68 57 55 52 47 40 53 92
78 48 13 14 20 18 16 21 21 42 54 67 68 82 94 99 90 75 77 76 81 89 85 92 82 80 86 95 95 90 95 93 91 88 92 88 74 75 61 60 49 55 58 51 59
50 23 12 16 19 18 15 22 18 43 56 64 70 83 99 97 85 83 78 80 94 90 91 80 79 91 98 92 94 90 95 92 80 88 73 73 82 75 58 55 53 61 62 62 50
39 11 17 21 17 18 17 19 23 40 56 60 74 80 84 86 70 69 81 85 95 92 86 95 92 80 65 75 79 76 75 81 83 81 99 80 79 70 65 61 52 50 50 57 59
15 13 21 30 18 16 20 19 27 39 54 58 72 79 74 82 66 60 79 93 94 94 100 94 100 100 97 99 97 82 71 75 70 66 78 78 76 72 63 56 52 48 46 44 44
13 13 27 19 15 15 24 17 26 41 52 61 74 74 63 57 60 54 64 92 100 97 100 97 98 86 91 90 99 84 71 75 79 77 69 75 72 69 65 63 62 58 50 48 46
13 17 32 15 17 14 24 18 29 42 48 58 62 70 77 53 54 50 64 79 89 98 100 99 93 90 92 94 95 84 80 97 92 82 70 74 74 72 69 68 66 61 55 54 47
8 37 29 16 12 19 23 12 32 43 50 55 67 70 66 69 74 59 64 72 80 98 98 95 84 83 76 83 92 76 91 85 94 87 84 84 86 81 78 72 65 61 64 59 54

GFSSW_700_rhum_111.txt.gz
RH
6 6 6 7 9 9 10 10 7 5 5 4 4 5 6 6 6 8 11 19 24 27 36 60 70 85 81 41 45 49 72 100 72 76 58 63 65 43 88 91 63 55 48 48 46
61 10 6 8 8 10 11 9 6 4 4 5 7 8 7 6 8 11 18 25 29 58 84 100 99 99 98 69 67 70 79 76 39 55 86 93 83 89 66 92 72 60 46 54 47
72 52 9 7 8 10 11 8 5 4 5 8 8 8 7 8 11 17 29 37 68 78 86 99 100 99 91 86 77 76 67 42 42 52 67 92 89 88 82 73 93 68 72 72 52
88 64 28 7 8 9 8 6 6 5 9 9 8 8 9 11 21 37 33 39 50 58 55 49 50 52 52 52 56 62 53 44 37 56 87 95 94 89 92 47 85 75 82 62 74
98 92 18 8 6 5 5 6 5 8 9 10 8 9 12 17 28 38 46 54 60 54 50 42 36 47 57 62 61 54 50 55 52 67 60 84 95 84 85 61 61 83 94 71 72
100 98 72 10 6 4 4 5 7 9 11 10 9 12 17 28 41 49 56 63 65 67 50 37 38 54 68 76 78 66 75 85 83 85 78 67 81 91 77 75 65 96 84 80 68
100 99 100 28 7 5 5 6 8 10 13 10 11 15 27 38 48 57 63 71 75 70 43 42 51 60 58 69 68 69 97 98 79 81 76 73 68 77 68 94 86 91 90 86 69
100 92 99 42 9 6 6 6 8 13 14 12 15 26 43 43 50 66 73 76 82 65 48 54 59 64 64 69 74 62 74 79 74 72 74 77 63 52 72 89 92 59 66 79 64
100 99 100 96 12 5 6 6 7 16 16 16 22 41 40 45 70 78 84 86 80 50 55 56 60 74 68 84 100 75 67 58 62 76 68 85 82 79 84 88 88 83 100 81 72
94 99 99 99 18 6 7 6 9 17 17 18 34 41 42 67 72 80 86 88 62 54 52 56 74 73 72 88 92 79 97 78 83 91 88 98 72 95 95 92 88 84 100 93 76
37 89 99 99 24 8 8 6 15 22 16 21 34 35 66 73 73 72 77 66 66 68 63 73 82 72 83 88 92 91 99 96 60 76 99 96 58 69 74 96 89 98 99 98 82
23 61 86 98 34 8 8 8 18 25 19 46 43 67 73 72 67 70 64 60 63 75 85 74 49 62 65 77 88 93 98 92 71 68 98 91 67 64 99 90 98 90 96 98 86
61 89 98 97 23 8 9 13 15 18 34 52 56 67 69 72 78 78 66 56 57 65 78 73 53 70 73 65 87 96 96 93 90 98 98 84 94 98 100 99 91 96 91 98 98
97 100 97 97 25 8 11 13 16 26 48 52 57 73 74 74 72 57 53 60 68 70 83 59 63 80 78 96 97 98 95 97 85 97 98 98 97 99 100 91 84 73 79 99 100
82 45 31 84 28 8 13 18 19 33 67 58 65 72 73 62 47 49 80 82 86 94 95 73 61 80 92 94 93 97 97 98 99 98 94 98 87 100 99 86 88 87 91 99 100
96 73 48 93 30 10 18 17 34 50 58 54 70 70 71 36 62 83 88 94 84 87 89 78 71 88 95 98 97 99 97 98 85 93 97 98 77 88 93 96 99 88 98 98 97
91 69 72 86 21 12 17 23 38 59 32 56 67 74 52 54 74 80 84 96 97 87 93 91 94 99 99 93 96 100 90 87 87 89 96 95 78 81 91 96 90 98 96 100 97
100 93 100 69 18 16 21 41 50 24 35 56 68 85 60 52 70 77 85 94 95 95 100 99 90 97 87 98 98 93 89 92 87 92 93 82 90 78 79 72 78 94 99 96 100
95 95 91 88 18 55 26 44 21 20 29 53 74 87 83 51 54 64 75 88 95 94 94 95 88 93 99 96 95 84 86 98 90 88 82 87 74 69 76 61 64 79 95 100 100
81 99 87 66 24 26 30 31 22 24 42 56 71 81 73 54 54 57 79 87 98 97 85 83 78 78 94 98 100 72 90 96 80 85 91 74 81 87 71 60 53 59 87 100 100
98 98 93 33 50 28 32 30 24 31 46 63 70 67 72 69 53 66 74 93 100 98 80 77 80 78 86 98 100 98 99 97 91 81 82 78 96 97 75 69 59 65 77 97 100
98 86 91 28 18 29 34 28 24 36 52 62 70 71 67 75 63 71 74 87 100 100 88 78 77 89 92 96 94 97 100 97 83 84 80 79 95 93 67 65 71 67 71 80 87
100 89 39 54 24 31 26 22 22 40 57 59 69 68 58 56 69 74 80 97 99 100 93 77 68 72 64 73 71 77 85 89 77 76 94 84 87 80 67 58 56 63 71 76 81
96 94 35 16 30 30 27 21 22 50 53 60 66 68 59 54 63 71 70 89 100 98 99 98 84 93 96 95 92 77 71 76 64 72 84 80 78 70 64 59 53 51 53 59 70
98 84 33 20 34 23 23 21 22 42 53 59 68 60 56 50 54 57 60 69 97 100 97 92 99 97 90 91 95 73 65 78 64 76 73 78 75 75 70 65 60 59 50 50 47
94 30 24 22 31 30 20 23 20 36 47 60 62 65 65 49 46 52 63 71 82 91 86 88 90 93 99 98 85 76 89 83 81 80 77 76 76 79 75 70 62 55 55 50 45
55 18 16 34 17 18 17 21 21 44 51 58 64 66 71 78 64 52 71 70 72 78 84 80 78 76 80 91 84 71 86 93 85 88 87 84 91 86 78 72 67 60 56 53 51

GFSSW_700_rhum_114.txt.gz
RH
99 75 67 68 10 11 9 10 12 11 6 5 5 6 7 8 7 7 6 9 12 17 26 30 30 39 49 66 54 37 98 88 72 64 61 68 68 71 68 81 96 96 80 63 66
100 95 75 72 46 11 10 11 11 8 5 4 7 9 9 8 7 8 9 12 19 33 72 84 98 95 100 91 86 79 95 77 68 66 65 67 85 88 85 67 86 88 67 59 51
100 100 79 69 46 33 9 12 9 6 5 7 9 10 9 8 9 13 21 25 33 74 83 85 94 100 99 93 83 92 92 72 75 78 84 82 88 91 92 89 80 84 78 72 48
100 100 100 88 72 39 40 8 8 6 6 9 10 12 9 9 16 22 23 27 33 43 49 56 55 53 53 55 54 73 47 85 67 90 86 83 90 90 93 94 96 91 59 84 50
85 99 98 99 99 18 12 6 6 5 8 10 13 11 10 12 20 27 34 42 44 50 55 53 52 48 48 80 80 75 67 84 78 55 42 71 68 90 92 81 80 94 83 92 79
75 88 100 100 99 74 18 5 6 5 8 13 14 13 13 20 33 40 44 44 51 59 66 66 51 43 45 84 100 96 94 95 99 73 60 97 91 98 72 60 74 81 62 91 95
59 85 100 100 99 87 23 7 6 6 8 15 15 15 18 36 43 43 47 59 69 74 78 63 43 48 55 84 84 90 90 90 61 58 74 98 98 94 36 62 80 67 59 71 94
5 85 100 100 99 95 50 7 5 7 8 16 16 18 36 46 41 55 66 76 80 82 82 54 52 70 75 75 79 100 96 90 61 85 64 96 82 88 79 84 74 91 56 52 98
8 11 94 100 98 95 26 8 7 8 11 20 18 28 43 40 61 68 74 85 92 82 53 48 55 64 64 73 96 99 93 65 61 70 90 100 94 89 74 83 63 79 81 48 64
9 10 25 89 100 98 30 9 8 8 22 27 24 40 40 60 69 73 74 79 84 57 51 48 56 78 82 86 78 71 93 83 75 76 98 99 93 91 66 47 62 70 81 61 58
7 9 60 57 98 89 41 11 9 16 26 22 27 39 50 72 71 68 64 65 56 55 84 72 80 94 85 91 100 100 100 100 88 90 95 91 96 91 75 87 88 74 88 80 54
8 12 56 71 100 92 71 8 10 20 21 26 51 45 70 68 72 63 60 55 48 81 64 88 98 86 78 58 78 100 100 96 88 82 96 90 98 89 84 66 75 73 82 84 54
13 41 95 100 86 98 46 9 12 17 30 48 56 64 63 69 64 51 48 55 54 59 97 93 76 58 62 81 99 98 97 99 99 98 97 100 98 96 81 73 72 65 91 96 77
48 99 99 99 87 88 17 9 12 16 37 54 61 62 72 59 56 49 68 75 71 72 85 68 48 61 73 96 98 98 97 98 98 98 98 92 85 95 80 98 68 69 64 66 74
52 51 52 68 67 76 17 11 22 23 68 55 56 68 69 55 56 65 75 79 86 89 86 64 60 72 86 93 98 96 96 95 98 95 96 94 93 98 99 99 81 71 58 62 68
82 98 100 60 100 80 31 21 50 34 66 48 65 73 50 67 62 73 84 77 71 81 84 62 62 77 95 95 98 96 97 99 98 98 97 99 87 98 99 99 86 82 59 53 50
77 97 66 91 99 69 15 40 23 58 35 52 62 68 53 67 68 81 81 90 94 92 95 84 88 96 100 99 96 86 93 82 94 94 95 99 76 97 99 96 90 84 69 81 96
93 93 100 97 90 35 23 44 29 29 33 52 59 68 55 61 64 76 85 92 90 92 91 100 84 88 85 100 100 100 100 93 90 91 94 97 89 98 94 84 90 100 100 100 100
94 98 98 93 91 23 31 38 26 21 27 44 68 74 53 50 57 60 71 83 99 100 99 100 96 93 100 99 93 88 98 100 97 77 74 98 90 88 93 86 95 92 99 99 98
99 88 91 99 98 27 47 49 23 25 33 54 70 65 54 52 54 62 66 86 96 99 93 95 96 91 99 90 85 94 97 98 90 75 88 89 97 98 83 79 82 96 99 98 99
98 98 77 98 78 35 44 30 23 28 46 65 63 62 52 54 56 68 75 83 100 88 99 85 86 85 88 99 96 98 99 98 91 84 66 76 96 98 95 88 78 96 99 99 99
98 100 92 97 40 69 39 24 27 29 54 65 63 67 51 48 54 64 76 91 100 71 100 78 73 98 97 97 87 91 100 99 87 76 75 73 96 94 84 81 87 82 92 99 99
99 98 98 96 67 76 28 26 29 36 63 65 60 63 46 43 57 68 86 96 100 99 96 98 80 81 66 86 76 91 89 69 71 75 98 72 95 86 72 74 84 86 88 98 99
98 96 96 81 82 40 26 30 29 46 64 61 61 62 44 42 53 64 73 96 98 88 98 90 100 97 89 99 90 96 71 64 76 80 80 86 89 78 73 72 66 72 81 82 84
97 95 89 64 70 30 31 26 31 49 58 59 63 60 48 44 47 58 66 92 100 97 85 87 96 97 96 89 98 96 93 70 72 80 83 91 89 82 72 68 71 67 63 62 71
90 93 84 43 32 21 32 24 27 41 48 51 61 47 47 42 45 55 68 87 92 94 89 88 90 91 98 90 94 95 88 93 82 87 90 88 84 80 73 73 68 63 61 52 51
77 92 79 49 23 37 34 25 24 42 47 58 64 66 61 44 43 56 76 81 82 83 82 82 86 84 90 83 75 81 95 99 92 86 89 91 88 81 71 65 60 57 56 56 50

GFSSW_700_rhum_117.txt.gz
RH
76 76 99 92 77 73 49 12 7 12 12 9 6 5 8 9 10 9 8 9 10 11 14 17 20 24 27 28 32 56 89 82 72 62 52 48 48 49 49 53 52 51 57 65 63
65 97 98 99 98 82 65 35 10 11 10 8 6 7 10 11 11 9 11 13 16 21 30 62 80 74 80 77 97 95 85 70 65 61 56 52 50 48 52 54 52 53 63 90 86
34 84 92 100 99 90 84 42 33 10 8 7 6 10 12 12 12 18 19 18 21 48 70 91 83 96 88 100 100 100 99 82 74 67 66 66 65 62 60 65 77 54 54 82 73
16 61 88 98 100 97 90 62 24 23 7 6 7 11 14 13 26 16 17 21 27 33 46 55 58 79 94 95 94 96 88 83 79 79 83 83 77 70 68 72 69 79 79 62 87
2 22 70 96 88 99 98 95 20 21 38 7 8 13 14 16 22 20 25 32 36 42 50 58 69 100 97 86 81 82 81 82 79 79 81 84 84 82 78 72 67 74 74 97 88
3 3 48 74 94 98 99 84 35 7 8 5 8 14 15 18 24 28 34 36 41 52 59 63 67 87 94 97 91 86 84 83 78 84 89 88 85 90 81 50 76 75 90 72 90
4 4 18 75 100 98 89 96 75 10 10 7 8 16 18 26 35 38 32 44 61 70 75 74 72 65 90 91 86 85 82 79 76 74 77 87 87 85 23 78 76 78 81 84 86
5 6 10 86 100 100 98 99 98 15 17 8 16 25 22 35 39 35 52 64 73 78 78 77 67 48 74 100 99 94 90 84 63 58 54 68 84 40 77 87 76 72 93 92 93
6 8 10 33 99 96 100 98 59 38 10 17 26 25 33 34 32 56 66 85 96 75 68 51 46 67 99 100 100 82 83 63 51 44 45 56 90 65 80 80 78 72 70 87 91
7 10 10 14 62 100 98 93 90 60 19 14 27 35 37 34 54 64 72 68 63 77 65 54 96 100 96 96 85 66 78 67 59 52 73 81 79 86 78 79 73 70 72 87 98
9 9 9 10 55 63 85 92 40 46 23 23 22 30 38 49 66 67 60 45 46 95 100 98 94 94 95 85 89 86 82 84 69 64 65 65 84 78 83 91 87 82 90 95 100
10 8 11 52 74 100 86 97 66 18 13 26 45 37 44 68 69 49 44 54 100 99 100 100 95 89 76 69 80 79 75 71 72 72 78 77 73 72 89 79 87 96 91 73 73
21 30 40 97 100 98 99 73 21 15 34 57 68 48 60 71 62 58 51 80 100 99 95 98 81 81 80 83 88 86 90 88 91 85 94 96 77 71 82 93 91 88 78 69 61
87 100 99 98 98 99 85 35 20 23 55 57 51 57 66 59 55 51 73 76 92 92 100 94 68 54 65 82 95 96 91 95 97 98 92 81 74 82 76 88 95 95 73 57 95
89 100 98 94 76 99 52 18 23 51 64 58 56 64 66 54 56 72 66 61 84 100 90 66 71 93 93 98 97 84 98 98 98 98 99 92 97 90 85 90 94 92 84 84 98
76 100 98 97 76 91 43 20 45 52 71 54 57 69 55 56 70 74 68 70 80 74 80 65 74 98 93 92 95 99 98 97 94 88 92 83 92 98 98 97 92 98 98 100 61
74 98 98 96 71 96 29 30 46 58 38 62 63 66 48 65 68 77 90 99 98 94 99 81 85 88 96 89 90 99 99 97 97 97 81 98 96 98 97 98 99 99 97 98 65
64 97 98 65 98 79 27 43 51 43 30 48 52 72 57 70 71 88 96 100 98 93 100 100 93 98 100 100 100 95 100 97 95 92 80 74 90 98 98 97 99 99 100 100 65
61 74 69 88 98 36 39 44 65 20 22 32 55 70 61 66 75 68 66 100 99 100 99 100 94 96 100 100 95 80 100 98 98 93 80 98 97 98 98 98 99 100 100 100 99
97 92 97 98 97 38 45 79 30 23 23 30 62 81 98 64 68 56 62 82 94 89 100 98 97 97 97 79 90 97 98 99 91 93 91 93 96 97 98 99 97 99 100 100 100
98 98 92 82 95 78 57 70 43 25 22 53 89 94 86 95 64 45 70 87 88 89 100 100 99 97 93 95 98 95 98 97 97 77 93 83 96 98 98 98 99 99 100 99 100
98 99 95 76 97 65 60 41 31 22 24 47 58 84 94 92 76 49 58 78 100 89 98 100 96 97 90 91 98 98 99 100 98 71 84 71 97 98 99 100 98 99 99 99 99
98 97 100 98 96 54 56 41 26 24 32 54 66 76 67 84 79 66 65 79 100 99 95 100 100 98 74 85 91 97 94 71 72 83 76 73 97 100 83 86 97 99 99 98 99
99 99 100 98 87 92 67 27 25 22 36 59 66 74 73 81 56 73 60 72 100 96 91 98 99 99 87 97 99 97 87 75 74 82 91 99 98 99 85 80 80 89 93 98 99
100 97 85 86 90 72 48 30 26 25 46 61 68 72 60 64 72 83 58 83 89 93 98 100 99 97 94 100 96 92 90 83 79 82 91 92 97 100 98 83 77 66 75 85 78
99 95 83 92 76 76 30 30 26 26 48 58 68 70 59 50 51 66 64 78 82 93 88 91 98 94 90 86 86 99 94 96 90 87 90 92 100 88 82 76 68 66 59 55 62
88 94 93 53 35 43 50 29 27 34 47 53 66 57 54 45 44 58 67 72 74 76 81 92 95 91 79 84 80 71 99 99 100 95 94 97 99 94 69 62 62 60 58 58 49

GFSSW_700_rhum_120.txt.gz
RH
3 8 12 38 81 92 94 88 82 40 10 11 11 7 5 5 10 12 11 12 11 12 12 12 15 18 22 23 25 58 91 90 81 72 64 57 53 49 47 45 45 34 43 48 48
2 4 36 46 98 86 97 99 90 69 21 13 11 7 5 8 12 13 13 16 16 15 17 36 66 82 54 48 75 59 77 70 57 66 62 59 57 53 49 46 48 47 40 49 52
2 2 4 77 86 75 96 100 100 86 35 14 8 6 8 11 13 13 18 14 14 24 31 69 98 82 68 80 99 96 91 87 85 81 74 70 66 64 59 56 46 49 44 50 52
3 3 2 15 91 82 97 97 99 92 52 20 11 8 8 13 21 14 16 19 28 44 78 99 97 68 62 79 86 83 85 86 83 84 80 79 82 82 75 61 55 60 60 48 51
4 4 3 2 34 58 90 100 88 90 77 17 32 37 14 13 19 19 20 25 34 39 44 48 53 90 94 85 88 84 82 79 76 76 78 76 72 71 65 52 54 62 65 52 59
6 5 4 3 4 38 99 87 94 92 76 13 10 23 13 18 29 26 25 32 36 45 47 52 56 84 94 80 88 80 81 84 82 81 82 81 84 83 82 70 34 49 51 56 64
9 9 7 4 44 61 58 99 91 98 92 13 11 15 19 25 26 28 32 32 46 58 65 70 76 79 84 97 87 90 88 83 74 70 72 72 71 67 50 25 51 61 39 41 47
15 17 10 6 39 76 94 99 100 98 94 45 34 28 30 30 33 32 36 54 58 65 70 76 80 78 83 87 79 86 82 84 51 68 64 60 66 50 36 38 62 48 33 28 33
42 35 13 11 44 74 95 98 99 76 53 45 41 34 40 47 80 35 56 68 73 67 57 62 90 93 87 91 88 81 88 77 75 62 55 48 48 50 53 60 70 81 51 49 48
98 63 14 13 58 57 92 99 100 95 68 52 34 31 34 68 57 50 69 74 71 78 95 82 88 90 88 97 94 82 78 62 62 56 57 55 57 56 60 73 87 79 85 74 71
93 65 12 11 25 71 73 80 90 71 53 50 28 24 64 62 39 68 62 44 41 100 92 91 94 87 82 89 89 94 92 88 68 57 62 64 66 61 57 64 57 94 90 74 72
86 27 10 11 28 68 88 100 99 70 37 28 26 68 72 45 65 56 40 46 81 90 92 100 89 75 90 93 77 69 69 54 51 67 82 90 84 70 66 69 64 87 96 92 67
73 65 43 35 82 100 100 98 97 40 26 33 73 95 57 57 64 69 47 58 96 98 100 97 65 76 87 79 79 72 80 80 86 76 87 79 71 53 52 73 84 89 75 94 94
77 100 98 77 98 98 98 90 29 29 53 78 62 47 56 67 58 50 59 77 99 100 100 85 73 78 80 72 93 92 76 97 97 99 96 81 88 56 71 66 83 88 93 77 80
64 98 98 97 96 98 80 37 25 51 97 96 48 64 68 54 64 66 83 86 94 94 90 71 68 95 92 83 99 80 99 100 97 98 98 85 98 67 77 73 84 93 94 98 76
80 91 98 98 99 82 44 28 40 70 97 68 65 73 60 48 59 74 87 83 85 80 81 70 69 95 79 91 97 96 94 98 97 98 98 65 97 96 93 91 97 84 85 96 99
81 68 90 91 98 80 68 36 61 98 73 57 66 74 46 60 74 88 100 100 100 100 94 84 89 96 100 98 71 99 98 97 97 100 93 96 96 97 98 93 96 98 100 96 99
73 77 98 98 100 99 45 49 97 83 46 67 68 89 50 61 76 100 94 97 95 100 96 95 89 95 95 100 97 90 98 98 96 97 93 98 97 98 99 98 99 99 93 98 97
78 88 96 98 99 76 40 64 90 49 32 45 96 69 54 66 60 73 69 93 93 98 98 97 89 93 94 99 100 91 98 98 98 94 80 96 95 96 98 98 98 99 99 98 95
74 94 96 100 98 59 46 98 47 31 32 49 86 90 75 46 54 60 87 98 98 100 98 96 95 96 95 93 90 96 98 97 97 96 95 96 97 98 97 98 99 99 100 99 97
97 100 100 99 99 68 41 96 53 38 44 99 88 87 85 65 66 66 89 100 100 90 97 95 97 89 98 98 100 97 98 98 98 93 96 95 97 98 98 98 99 99 99 100 100
97 98 98 98 95 95 39 53 40 33 38 76 78 82 87 76 83 57 80 93 100 99 97 95 98 95 96 97 100 100 91 90 96 96 97 95 98 98 98 98 99 99 99 100 100
96 98 100 90 97 84 50 50 36 40 67 62 63 63 59 75 77 83 79 96 96 98 89 96 94 96 86 76 86 98 79 79 76 82 97 96 98 96 98 98 98 99 99 98 100
96 99 100 91 94 94 67 36 34 39 64 60 58 60 67 72 60 64 59 88 84 94 98 94 94 94 98 98 99 98 85 71 76 92 97 99 98 95 86 91 98 98 100 98 99
96 91 92 94 92 87 66 51 47 43 50 57 59 62 79 76 69 66 56 79 79 99 99 92 88 88 92 97 84 92 98 87 78 80 96 98 99 100 84 81 85 83 95 99 99
89 86 90 96 89 54 39 40 58 36 56 58 63 63 57 65 70 65 60 70 81 98 93 100 88 83 84 86 82 82 91 95 96 98 93 98 100 81 73 65 63 66 57 61 89
81 90 78 61 71 79 81 37 34 38 50 54 62 54 56 46 46 59 66 64 71 77 80 84 92 89 78 65 73 72 97 99 99 98 93 95 97 71 60 59 59 56 55 49 46

GFSSW_700_rhum_126.txt.gz
RH
7 5 5 4 3 53 42 31 24 98 63 96 92 46 17 12 9 6 5 8 12 14 13 14 15 14 14 12 12 12 20 19 22 23 20 17 16 25 40 34 28 34 36 40 49
11 8 6 5 3 23 92 91 70 84 85 85 96 78 34 14 8 6 7 11 14 16 15 14 14 15 13 13 16 18 19 25 27 30 27 21 18 20 40 48 30 28 34 36 49
20 14 11 7 5 3 11 100 82 92 99 86 80 83 72 16 11 9 12 17 15 17 19 19 21 21 20 22 21 28 24 26 23 28 35 33 26 38 24 25 40 28 31 31 39
15 12 9 6 5 4 4 40 88 89 88 79 78 84 61 15 21 24 22 19 22 24 23 22 26 26 27 47 47 41 42 39 44 52 57 57 58 41 39 26 22 31 29 29 30
10 9 8 6 5 5 5 11 100 88 96 100 98 87 36 28 23 25 23 24 26 24 29 29 33 40 40 36 39 48 36 49 57 54 50 46 38 38 27 33 36 23 21 22 22
16 10 11 9 7 8 7 18 92 93 100 99 94 81 74 29 27 33 27 27 27 31 32 35 39 43 41 41 48 49 50 52 55 53 42 49 31 43 31 26 25 25 23 18 15
31 24 14 15 15 16 32 80 66 32 84 99 97 83 93 24 25 29 32 46 32 30 30 39 45 53 54 55 64 63 59 51 38 28 37 41 26 25 20 22 21 25 20 17 15
23 15 28 67 45 40 100 99 99 66 79 86 53 90 65 33 32 38 53 66 82 66 54 58 61 62 71 67 64 53 48 40 24 28 33 47 25 23 19 26 31 36 30 21 14
53 26 38 85 83 45 99 98 97 93 98 100 98 93 47 43 40 52 66 83 80 69 70 66 57 57 75 62 53 47 44 44 32 32 42 47 37 24 26 33 33 40 38 33 28
52 45 44 78 92 50 44 82 98 99 98 97 95 72 57 57 56 71 67 65 69 69 56 58 58 62 63 74 57 64 68 58 51 40 61 59 46 39 41 47 45 34 24 20 22
58 74 77 70 96 69 99 98 95 93 96 96 71 52 60 57 72 68 68 78 86 80 62 70 58 49 65 76 70 57 59 64 43 56 74 62 61 38 44 53 48 29 20 19 19
91 86 96 88 71 57 90 88 98 84 89 98 71 58 60 78 74 73 72 83 68 65 71 64 50 62 78 72 65 69 76 56 65 65 86 80 50 49 35 34 28 23 24 27 28
79 93 91 60 50 46 77 89 75 94 95 62 76 65 71 80 95 96 68 56 59 68 59 67 74 58 74 73 75 73 84 72 80 84 84 86 60 32 28 32 33 41 50 50 36
81 91 97 82 42 39 33 59 78 98 96 64 65 64 76 94 100 100 69 62 67 67 83 72 54 62 68 68 81 85 77 85 98 100 96 96 89 46 42 43 52 58 56 48 39
87 95 98 96 98 74 76 73 90 96 95 96 89 92 96 96 93 73 77 82 79 84 89 74 70 81 81 79 93 83 95 98 100 99 99 90 100 53 60 67 60 69 64 47 52
87 93 98 97 98 98 97 97 96 93 96 98 96 98 88 99 92 81 86 79 81 84 88 80 96 96 91 97 98 94 99 100 100 99 97 81 91 67 88 99 77 76 63 58 49
89 94 97 98 78 95 92 65 90 96 98 98 94 98 100 84 90 89 87 90 98 93 84 83 87 96 96 94 95 98 100 94 90 97 90 80 99 77 92 100 99 96 66 66 60
92 91 95 94 71 44 59 87 88 94 98 100 98 100 99 99 100 100 87 87 95 99 96 91 82 98 98 99 100 100 98 98 100 97 92 77 94 85 97 98 100 100 86 73 75
81 83 96 95 80 44 73 81 89 82 99 99 99 96 100 98 89 88 90 90 89 96 98 97 93 97 99 95 98 100 99 99 98 93 97 85 76 85 94 97 99 100 98 99 84
59 87 82 80 77 54 75 67 86 82 87 97 83 72 78 78 76 94 97 92 90 97 96 97 94 95 97 98 100 100 99 99 98 97 94 80 94 98 90 93 97 98 98 97 80
71 69 79 69 61 76 60 70 55 71 93 95 94 92 63 58 74 97 88 91 96 94 96 92 97 93 100 100 100 99 98 99 100 96 97 96 95 98 97 98 98 99 92 96 88
62 64 85 40 44 63 74 66 43 61 94 97 92 81 70 69 71 80 86 99 100 90 91 92 92 95 97 100 97 97 97 86 94 90 100 98 93 97 97 98 98 99 97 72 62
55 52 78 80 40 43 55 51 44 62 82 84 88 81 82 86 76 76 87 94 98 95 96 94 87 89 81 85 85 98 96 90 77 91 99 98 94 96 98 98 98 98 100 100 66
49 68 75 78 56 46 44 40 43 66 70 66 68 79 72 75 71 72 88 94 90 91 90 96 94 99 99 100 100 98 76 77 77 86 94 97 97 95 97 96 97 99 99 100 96
53 69 74 65 55 37 39 40 51 65 68 63 62 63 60 78 74 82 90 92 82 82 87 94 97 96 98 97 86 93 82 80 82 78 92 98 96 100 97 97 97 98 99 100 99
63 67 62 60 58 45 36 49 55 60 62 60 48 50 58 54 60 72 79 77 80 69 76 83 87 92 92 85 76 83 85 78 74 77 81 96 100 97 92 95 97 98 98 99 99
52 47 48 44 50 45 32 45 56 59 59 54 48 44 48 58 62 65 67 69 71 72 71 77 80 78 68 72 71 76 90 83 88 79 77 99 100 77 60 52 83 96 98 98 99